<?xml version='1.0' encoding='UTF-8'?><gpx version="1.1" creator="JPX - https://github.com/jenetics/jpx" xmlns="http://www.topografix.com/GPX/1/1"><trk><trkseg><trkpt lat="43.9046857" lon="10.653968"><ele>263.0</ele><time>2026-04-29T16:29:46Z</time></trkpt><trkpt lat="43.9047704" lon="10.6541038"><ele>263.0</ele><time>2026-04-29T16:29:48.013Z</time></trkpt><trkpt lat="43.9048129" lon="10.6541876"><ele>263.0</ele><time>2026-04-29T16:29:49.012Z</time></trkpt><trkpt lat="43.9048467" lon="10.6542684"><ele>263.0</ele><time>2026-04-29T16:29:50.017Z</time></trkpt><trkpt lat="43.9048692" lon="10.6543556"><ele>263.0</ele><time>2026-04-29T16:29:51.023Z</time></trkpt><trkpt lat="43.9048782" lon="10.6544509"><ele>263.0</ele><time>2026-04-29T16:29:52.015Z</time></trkpt><trkpt lat="43.9048764" lon="10.6545623"><ele>264.57142857142856</ele><time>2026-04-29T16:29:53.021Z</time></trkpt><trkpt lat="43.9048798" lon="10.6546797"><ele>266.1428571428571</ele><time>2026-04-29T16:29:54.001Z</time></trkpt><trkpt lat="43.9048886" lon="10.654792"><ele>267.7142857142857</ele><time>2026-04-29T16:29:55.013Z</time></trkpt><trkpt lat="43.9048847" lon="10.6548795"><ele>269.2857142857143</ele><time>2026-04-29T16:29:56.011Z</time></trkpt><trkpt lat="43.9048677" lon="10.6549683"><ele>270.8571428571429</ele><time>2026-04-29T16:29:57.014Z</time></trkpt><trkpt lat="43.9048444" lon="10.6550663"><ele>272.42857142857144</ele><time>2026-04-29T16:29:58.018Z</time></trkpt><trkpt lat="43.9048314" lon="10.6551734"><ele>274.0</ele><time>2026-04-29T16:29:59.022Z</time></trkpt><trkpt lat="43.9047932" lon="10.6552637"><ele>275.0</ele><time>2026-04-29T16:30:00.012Z</time></trkpt><trkpt lat="43.9047386" lon="10.6553337"><ele>276.0</ele><time>2026-04-29T16:30:01.02Z</time></trkpt><trkpt lat="43.9046716" lon="10.6554272"><ele>277.0</ele><time>2026-04-29T16:30:03.016Z</time></trkpt><trkpt lat="43.9046828" lon="10.6555694"><ele>278.0</ele><time>2026-04-29T16:30:05.009Z</time></trkpt><trkpt lat="43.9047223" lon="10.655685"><ele>279.0</ele><time>2026-04-29T16:30:06.016Z</time></trkpt><trkpt lat="43.9047813" lon="10.6558203"><ele>279.0</ele><time>2026-04-29T16:30:07.011Z</time></trkpt><trkpt lat="43.9048376" lon="10.6559432"><ele>279.0</ele><time>2026-04-29T16:30:08.013Z</time></trkpt><trkpt lat="43.9048915" lon="10.6560541"><ele>279.0</ele><time>2026-04-29T16:30:09.018Z</time></trkpt><trkpt lat="43.9049407" lon="10.6561484"><ele>279.0</ele><time>2026-04-29T16:30:10.011Z</time></trkpt><trkpt lat="43.9049941" lon="10.6562209"><ele>279.0</ele><time>2026-04-29T16:30:11.012Z</time></trkpt><trkpt lat="43.9050558" lon="10.6562811"><ele>279.0</ele><time>2026-04-29T16:30:12.021Z</time></trkpt><trkpt lat="43.9051369" lon="10.6563321"><ele>283.1666666666667</ele><time>2026-04-29T16:30:13.01Z</time></trkpt><trkpt lat="43.9052171" lon="10.6563776"><ele>287.3333333333333</ele><time>2026-04-29T16:30:14.012Z</time></trkpt><trkpt lat="43.9052929" lon="10.6564178"><ele>291.5</ele><time>2026-04-29T16:30:14.993Z</time></trkpt><trkpt lat="43.9053589" lon="10.6564561"><ele>295.66666666666663</ele><time>2026-04-29T16:30:16.018Z</time></trkpt><trkpt lat="43.9054274" lon="10.6565388"><ele>299.8333333333333</ele><time>2026-04-29T16:30:18.004Z</time></trkpt><trkpt lat="43.9054063" lon="10.6566464"><ele>304.0</ele><time>2026-04-29T16:30:20.009Z</time></trkpt><trkpt lat="43.9053347" lon="10.6567593"><ele>304.0</ele><time>2026-04-29T16:30:22.023Z</time></trkpt><trkpt lat="43.9053981" lon="10.6568597"><ele>304.0</ele><time>2026-04-29T16:30:25.024Z</time></trkpt><trkpt lat="43.9054965" lon="10.6568466"><ele>304.0</ele><time>2026-04-29T16:30:27.023Z</time></trkpt><trkpt lat="43.9055896" lon="10.6568049"><ele>304.0</ele><time>2026-04-29T16:30:29.012Z</time></trkpt><trkpt lat="43.9056524" lon="10.6568683"><ele>304.0</ele><time>2026-04-29T16:30:32.01Z</time></trkpt><trkpt lat="43.905624" lon="10.6569985"><ele>306.66666666666663</ele><time>2026-04-29T16:30:34.016Z</time></trkpt><trkpt lat="43.9055878" lon="10.6570958"><ele>309.3333333333333</ele><time>2026-04-29T16:30:35.012Z</time></trkpt><trkpt lat="43.9055607" lon="10.657186"><ele>312.0</ele><time>2026-04-29T16:30:36.028Z</time></trkpt><trkpt lat="43.9055563" lon="10.6573207"><ele>314.6666666666667</ele><time>2026-04-29T16:30:38.022Z</time></trkpt><trkpt lat="43.9056271" lon="10.6574578"><ele>317.33333333333337</ele><time>2026-04-29T16:30:40.026Z</time></trkpt><trkpt lat="43.9056723" lon="10.6575306"><ele>320.0</ele><time>2026-04-29T16:30:41.014Z</time></trkpt><trkpt lat="43.9057226" lon="10.6575968"><ele>320.0</ele><time>2026-04-29T16:30:42.02Z</time></trkpt><trkpt lat="43.9057602" lon="10.6576709"><ele>320.0</ele><time>2026-04-29T16:30:43.015Z</time></trkpt><trkpt lat="43.9058017" lon="10.6578335"><ele>320.0</ele><time>2026-04-29T16:30:45.016Z</time></trkpt><trkpt lat="43.905801" lon="10.6579243"><ele>320.0</ele><time>2026-04-29T16:30:46.014Z</time></trkpt><trkpt lat="43.9058101" lon="10.6580108"><ele>320.0</ele><time>2026-04-29T16:30:47.011Z</time></trkpt><trkpt lat="43.9058711" lon="10.6581543"><ele>320.0</ele><time>2026-04-29T16:30:49.021Z</time></trkpt><trkpt lat="43.9059073" lon="10.6582329"><ele>321.5</ele><time>2026-04-29T16:30:50.009Z</time></trkpt><trkpt lat="43.9059483" lon="10.6583232"><ele>323.0</ele><time>2026-04-29T16:30:51.018Z</time></trkpt><trkpt lat="43.9059836" lon="10.6584045"><ele>324.5</ele><time>2026-04-29T16:30:52.013Z</time></trkpt><trkpt lat="43.9060389" lon="10.6584779"><ele>326.0</ele><time>2026-04-29T16:30:53.012Z</time></trkpt><trkpt lat="43.906112" lon="10.6585544"><ele>327.5</ele><time>2026-04-29T16:30:53.997Z</time></trkpt><trkpt lat="43.9062003" lon="10.6586387"><ele>329.0</ele><time>2026-04-29T16:30:55.012Z</time></trkpt><trkpt lat="43.9062874" lon="10.6587437"><ele>329.0</ele><time>2026-04-29T16:30:56.011Z</time></trkpt><trkpt lat="43.9063738" lon="10.6588348"><ele>329.0</ele><time>2026-04-29T16:30:57.014Z</time></trkpt><trkpt lat="43.9064593" lon="10.6589191"><ele>329.0</ele><time>2026-04-29T16:30:58.024Z</time></trkpt><trkpt lat="43.9065488" lon="10.6589866"><ele>329.0</ele><time>2026-04-29T16:30:59.005Z</time></trkpt><trkpt lat="43.9066262" lon="10.6590446"><ele>329.0</ele><time>2026-04-29T16:31:00.02Z</time></trkpt><trkpt lat="43.9067003" lon="10.6591017"><ele>332.0</ele><time>2026-04-29T16:31:01.011Z</time></trkpt><trkpt lat="43.9067655" lon="10.6591557"><ele>335.0</ele><time>2026-04-29T16:31:02.017Z</time></trkpt><trkpt lat="43.9068306" lon="10.6592017"><ele>338.0</ele><time>2026-04-29T16:31:03.013Z</time></trkpt><trkpt lat="43.9068938" lon="10.6592364"><ele>341.0</ele><time>2026-04-29T16:31:04.01Z</time></trkpt><trkpt lat="43.9070044" lon="10.6592351"><ele>344.0</ele><time>2026-04-29T16:31:06.016Z</time></trkpt><trkpt lat="43.9070668" lon="10.659196"><ele>347.0</ele><time>2026-04-29T16:31:07.005Z</time></trkpt><trkpt lat="43.907136" lon="10.6591512"><ele>347.0</ele><time>2026-04-29T16:31:08.013Z</time></trkpt><trkpt lat="43.907201" lon="10.6591204"><ele>347.0</ele><time>2026-04-29T16:31:09.012Z</time></trkpt><trkpt lat="43.9073032" lon="10.6591297"><ele>347.0</ele><time>2026-04-29T16:31:11.015Z</time></trkpt><trkpt lat="43.9073457" lon="10.6591959"><ele>347.0</ele><time>2026-04-29T16:31:12.015Z</time></trkpt><trkpt lat="43.9073915" lon="10.6592825"><ele>347.0</ele><time>2026-04-29T16:31:13.01Z</time></trkpt><trkpt lat="43.9074276" lon="10.659378"><ele>347.0</ele><time>2026-04-29T16:31:14.01Z</time></trkpt><trkpt lat="43.907462" lon="10.6594746"><ele>345.42857142857144</ele><time>2026-04-29T16:31:15.001Z</time></trkpt><trkpt lat="43.9074976" lon="10.6595839"><ele>343.85714285714283</ele><time>2026-04-29T16:31:16.02Z</time></trkpt><trkpt lat="43.9075454" lon="10.6596555"><ele>342.2857142857143</ele><time>2026-04-29T16:31:17.012Z</time></trkpt><trkpt lat="43.9076076" lon="10.6596929"><ele>340.7142857142857</ele><time>2026-04-29T16:31:18.012Z</time></trkpt><trkpt lat="43.9076718" lon="10.6596933"><ele>339.1428571428571</ele><time>2026-04-29T16:31:19.012Z</time></trkpt><trkpt lat="43.9077416" lon="10.659664"><ele>337.57142857142856</ele><time>2026-04-29T16:31:20.003Z</time></trkpt><trkpt lat="43.9078124" lon="10.6596089"><ele>336.0</ele><time>2026-04-29T16:31:21.011Z</time></trkpt><trkpt lat="43.9078864" lon="10.659545"><ele>336.0</ele><time>2026-04-29T16:31:21.995Z</time></trkpt><trkpt lat="43.9079575" lon="10.659468"><ele>336.0</ele><time>2026-04-29T16:31:23.015Z</time></trkpt><trkpt lat="43.9080237" lon="10.6593787"><ele>336.0</ele><time>2026-04-29T16:31:24.025Z</time></trkpt><trkpt lat="43.9080768" lon="10.659286"><ele>336.0</ele><time>2026-04-29T16:31:25.016Z</time></trkpt><trkpt lat="43.9081209" lon="10.6591992"><ele>336.0</ele><time>2026-04-29T16:31:26.016Z</time></trkpt><trkpt lat="43.9081706" lon="10.6591342"><ele>336.0</ele><time>2026-04-29T16:31:27.025Z</time></trkpt><trkpt lat="43.9082286" lon="10.6590959"><ele>339.4</ele><time>2026-04-29T16:31:28.021Z</time></trkpt><trkpt lat="43.9083059" lon="10.6590732"><ele>342.8</ele><time>2026-04-29T16:31:29.019Z</time></trkpt><trkpt lat="43.9084056" lon="10.6590568"><ele>346.2</ele><time>2026-04-29T16:31:30.02Z</time></trkpt><trkpt lat="43.9085093" lon="10.6590406"><ele>349.59999999999997</ele><time>2026-04-29T16:31:31.003Z</time></trkpt><trkpt lat="43.9086174" lon="10.6590222"><ele>353.0</ele><time>2026-04-29T16:31:32.011Z</time></trkpt><trkpt lat="43.9087223" lon="10.6589972"><ele>355.83333333333337</ele><time>2026-04-29T16:31:33.006Z</time></trkpt><trkpt lat="43.9088237" lon="10.658974"><ele>358.6666666666667</ele><time>2026-04-29T16:31:34.01Z</time></trkpt><trkpt lat="43.9089271" lon="10.6589494"><ele>361.5</ele><time>2026-04-29T16:31:35.009Z</time></trkpt><trkpt lat="43.9090186" lon="10.6589295"><ele>364.3333333333333</ele><time>2026-04-29T16:31:35.999Z</time></trkpt><trkpt lat="43.909086" lon="10.6589064"><ele>367.16666666666663</ele><time>2026-04-29T16:31:37.01Z</time></trkpt><trkpt lat="43.9091453" lon="10.6588733"><ele>370.0</ele><time>2026-04-29T16:31:38.017Z</time></trkpt><trkpt lat="43.909198" lon="10.658819"><ele>375.5</ele><time>2026-04-29T16:31:39.009Z</time></trkpt><trkpt lat="43.9092489" lon="10.6587672"><ele>381.0</ele><time>2026-04-29T16:31:40.01Z</time></trkpt><trkpt lat="43.9093043" lon="10.6587168"><ele>386.5</ele><time>2026-04-29T16:31:41.011Z</time></trkpt><trkpt lat="43.9093666" lon="10.6586938"><ele>392.0</ele><time>2026-04-29T16:31:42.008Z</time></trkpt><trkpt lat="43.9094301" lon="10.6587142"><ele>397.50000000000006</ele><time>2026-04-29T16:31:43.01Z</time></trkpt><trkpt lat="43.9095195" lon="10.6587966"><ele>403.0</ele><time>2026-04-29T16:31:45.011Z</time></trkpt><trkpt lat="43.9095577" lon="10.6589368"><ele>403.00000000000006</ele><time>2026-04-29T16:31:47.016Z</time></trkpt><trkpt lat="43.9095385" lon="10.6590315"><ele>403.0</ele><time>2026-04-29T16:31:48.001Z</time></trkpt><trkpt lat="43.9095119" lon="10.6591518"><ele>403.0</ele><time>2026-04-29T16:31:49.01Z</time></trkpt><trkpt lat="43.9094965" lon="10.6592653"><ele>403.0</ele><time>2026-04-29T16:31:50.013Z</time></trkpt><trkpt lat="43.9094838" lon="10.6593564"><ele>403.00000000000006</ele><time>2026-04-29T16:31:51.007Z</time></trkpt><trkpt lat="43.9094575" lon="10.6594971"><ele>403.0</ele><time>2026-04-29T16:31:53.009Z</time></trkpt><trkpt lat="43.9094307" lon="10.6595822"><ele>400.83333333333337</ele><time>2026-04-29T16:31:54.01Z</time></trkpt><trkpt lat="43.9094042" lon="10.6596674"><ele>398.6666666666667</ele><time>2026-04-29T16:31:54.989Z</time></trkpt><trkpt lat="43.9093728" lon="10.6597993"><ele>396.5</ele><time>2026-04-29T16:31:57.017Z</time></trkpt><trkpt lat="43.9093998" lon="10.6598859"><ele>394.33333333333337</ele><time>2026-04-29T16:31:59.023Z</time></trkpt><trkpt lat="43.9094738" lon="10.6599511"><ele>392.1666666666667</ele><time>2026-04-29T16:32:01.011Z</time></trkpt><trkpt lat="43.909594" lon="10.6599552"><ele>390.0</ele><time>2026-04-29T16:32:03.003Z</time></trkpt><trkpt lat="43.9096645" lon="10.65997"><ele>390.0</ele><time>2026-04-29T16:32:04.016Z</time></trkpt><trkpt lat="43.9097331" lon="10.6599912"><ele>390.0</ele><time>2026-04-29T16:32:05.008Z</time></trkpt><trkpt lat="43.9098075" lon="10.6599871"><ele>390.0</ele><time>2026-04-29T16:32:06.017Z</time></trkpt><trkpt lat="43.909879" lon="10.6599724"><ele>390.0</ele><time>2026-04-29T16:32:07.018Z</time></trkpt><trkpt lat="43.9099551" lon="10.6599509"><ele>390.0</ele><time>2026-04-29T16:32:08.014Z</time></trkpt><trkpt lat="43.9100298" lon="10.6599169"><ele>390.0</ele><time>2026-04-29T16:32:09.021Z</time></trkpt><trkpt lat="43.9101045" lon="10.6599014"><ele>390.0</ele><time>2026-04-29T16:32:10.012Z</time></trkpt><trkpt lat="43.910179" lon="10.6599149"><ele>395.1666666666667</ele><time>2026-04-29T16:32:11.023Z</time></trkpt><trkpt lat="43.9102564" lon="10.659941"><ele>400.33333333333337</ele><time>2026-04-29T16:32:12.013Z</time></trkpt><trkpt lat="43.9103324" lon="10.6599715"><ele>405.5</ele><time>2026-04-29T16:32:13.01Z</time></trkpt><trkpt lat="43.9104048" lon="10.6600159"><ele>410.6666666666667</ele><time>2026-04-29T16:32:14.02Z</time></trkpt><trkpt lat="43.9104766" lon="10.6600707"><ele>415.83333333333337</ele><time>2026-04-29T16:32:15.009Z</time></trkpt><trkpt lat="43.9105506" lon="10.6601313"><ele>421.0</ele><time>2026-04-29T16:32:16.023Z</time></trkpt><trkpt lat="43.9106298" lon="10.6602047"><ele>420.00000000000006</ele><time>2026-04-29T16:32:17.006Z</time></trkpt><trkpt lat="43.9106996" lon="10.6602853"><ele>419.0</ele><time>2026-04-29T16:32:18.02Z</time></trkpt><trkpt lat="43.9107722" lon="10.660361"><ele>418.0</ele><time>2026-04-29T16:32:19.004Z</time></trkpt><trkpt lat="43.91085" lon="10.6604285"><ele>417.0</ele><time>2026-04-29T16:32:20.016Z</time></trkpt><trkpt lat="43.9109268" lon="10.6604748"><ele>416.00000000000006</ele><time>2026-04-29T16:32:21.015Z</time></trkpt><trkpt lat="43.9109953" lon="10.6605323"><ele>415.0</ele><time>2026-04-29T16:32:22.016Z</time></trkpt><trkpt lat="43.9110712" lon="10.6605783"><ele>415.00000000000006</ele><time>2026-04-29T16:32:23.008Z</time></trkpt><trkpt lat="43.9111518" lon="10.6606085"><ele>415.0</ele><time>2026-04-29T16:32:24.001Z</time></trkpt><trkpt lat="43.9112335" lon="10.6606451"><ele>415.0</ele><time>2026-04-29T16:32:25.015Z</time></trkpt><trkpt lat="43.9113114" lon="10.6606865"><ele>415.0</ele><time>2026-04-29T16:32:26.012Z</time></trkpt><trkpt lat="43.9113901" lon="10.6607283"><ele>415.00000000000006</ele><time>2026-04-29T16:32:27.014Z</time></trkpt><trkpt lat="43.9114598" lon="10.6607898"><ele>415.0</ele><time>2026-04-29T16:32:28.021Z</time></trkpt><trkpt lat="43.911536" lon="10.6608374"><ele>415.00000000000006</ele><time>2026-04-29T16:32:29.016Z</time></trkpt><trkpt lat="43.9116116" lon="10.6608693"><ele>415.0</ele><time>2026-04-29T16:32:30.013Z</time></trkpt><trkpt lat="43.9116865" lon="10.6608875"><ele>415.0</ele><time>2026-04-29T16:32:31.02Z</time></trkpt><trkpt lat="43.9117594" lon="10.6608875"><ele>415.0</ele><time>2026-04-29T16:32:32.017Z</time></trkpt><trkpt lat="43.9118278" lon="10.6608789"><ele>415.00000000000006</ele><time>2026-04-29T16:32:33.026Z</time></trkpt><trkpt lat="43.9119048" lon="10.6608513"><ele>415.0</ele><time>2026-04-29T16:32:34.032Z</time></trkpt><trkpt lat="43.9119963" lon="10.660796"><ele>415.6</ele><time>2026-04-29T16:32:35.011Z</time></trkpt><trkpt lat="43.912091" lon="10.6607276"><ele>416.2</ele><time>2026-04-29T16:32:36.005Z</time></trkpt><trkpt lat="43.9121849" lon="10.6606524"><ele>416.79999999999995</ele><time>2026-04-29T16:32:37.009Z</time></trkpt><trkpt lat="43.9122725" lon="10.6605653"><ele>417.4</ele><time>2026-04-29T16:32:38.001Z</time></trkpt><trkpt lat="43.9123559" lon="10.6604746"><ele>418.0</ele><time>2026-04-29T16:32:39.021Z</time></trkpt><trkpt lat="43.9124397" lon="10.6604052"><ele>418.0</ele><time>2026-04-29T16:32:40.015Z</time></trkpt><trkpt lat="43.9125268" lon="10.6603473"><ele>418.0</ele><time>2026-04-29T16:32:41Z</time></trkpt><trkpt lat="43.9126206" lon="10.6602982"><ele>418.0</ele><time>2026-04-29T16:32:42.021Z</time></trkpt><trkpt lat="43.9127132" lon="10.6602585"><ele>418.0</ele><time>2026-04-29T16:32:43.006Z</time></trkpt><trkpt lat="43.9127964" lon="10.660221"><ele>418.0</ele><time>2026-04-29T16:32:44.01Z</time></trkpt><trkpt lat="43.912879" lon="10.6601853"><ele>423.1666666666667</ele><time>2026-04-29T16:32:45.008Z</time></trkpt><trkpt lat="43.9129623" lon="10.6601448"><ele>428.33333333333337</ele><time>2026-04-29T16:32:46.02Z</time></trkpt><trkpt lat="43.9130387" lon="10.6601126"><ele>433.5</ele><time>2026-04-29T16:32:47.01Z</time></trkpt><trkpt lat="43.9131065" lon="10.6600996"><ele>438.66666666666663</ele><time>2026-04-29T16:32:48.012Z</time></trkpt><trkpt lat="43.913228" lon="10.6601117"><ele>443.8333333333333</ele><time>2026-04-29T16:32:50.015Z</time></trkpt><trkpt lat="43.9132936" lon="10.6601344"><ele>449.0</ele><time>2026-04-29T16:32:51.008Z</time></trkpt><trkpt lat="43.9133643" lon="10.6601459"><ele>449.3333333333333</ele><time>2026-04-29T16:32:51.998Z</time></trkpt><trkpt lat="43.9134329" lon="10.6601357"><ele>449.66666666666663</ele><time>2026-04-29T16:32:53.018Z</time></trkpt><trkpt lat="43.9135014" lon="10.6601059"><ele>450.0</ele><time>2026-04-29T16:32:54.007Z</time></trkpt><trkpt lat="43.9135726" lon="10.660056"><ele>450.33333333333337</ele><time>2026-04-29T16:32:55.016Z</time></trkpt><trkpt lat="43.9136422" lon="10.6600043"><ele>450.6666666666667</ele><time>2026-04-29T16:32:56.007Z</time></trkpt><trkpt lat="43.9137183" lon="10.6599406"><ele>451.0</ele><time>2026-04-29T16:32:57.005Z</time></trkpt><trkpt lat="43.9137992" lon="10.6598822"><ele>451.0</ele><time>2026-04-29T16:32:58.005Z</time></trkpt><trkpt lat="43.9138886" lon="10.6598304"><ele>451.0</ele><time>2026-04-29T16:32:59.007Z</time></trkpt><trkpt lat="43.9139779" lon="10.6597963"><ele>451.0</ele><time>2026-04-29T16:33:00.014Z</time></trkpt><trkpt lat="43.9140746" lon="10.6597793"><ele>451.0</ele><time>2026-04-29T16:33:01.002Z</time></trkpt><trkpt lat="43.9141681" lon="10.6597477"><ele>451.0</ele><time>2026-04-29T16:33:02.012Z</time></trkpt><trkpt lat="43.9142548" lon="10.6597201"><ele>451.6</ele><time>2026-04-29T16:33:03.013Z</time></trkpt><trkpt lat="43.9143345" lon="10.6596895"><ele>452.20000000000005</ele><time>2026-04-29T16:33:04.011Z</time></trkpt><trkpt lat="43.914415" lon="10.6596456"><ele>452.79999999999995</ele><time>2026-04-29T16:33:05.017Z</time></trkpt><trkpt lat="43.9144954" lon="10.6595898"><ele>453.4</ele><time>2026-04-29T16:33:06.013Z</time></trkpt><trkpt lat="43.9145754" lon="10.6595212"><ele>454.0</ele><time>2026-04-29T16:33:07.023Z</time></trkpt><trkpt lat="43.9146545" lon="10.6594254"><ele>457.0</ele><time>2026-04-29T16:33:08.017Z</time></trkpt><trkpt lat="43.9147298" lon="10.6593286"><ele>460.0</ele><time>2026-04-29T16:33:08.996Z</time></trkpt><trkpt lat="43.9148081" lon="10.659243"><ele>463.0</ele><time>2026-04-29T16:33:10.029Z</time></trkpt><trkpt lat="43.9149033" lon="10.6591736"><ele>466.0</ele><time>2026-04-29T16:33:11.015Z</time></trkpt><trkpt lat="43.915004" lon="10.6591096"><ele>469.0</ele><time>2026-04-29T16:33:12.016Z</time></trkpt><trkpt lat="43.9151055" lon="10.6590466"><ele>469.0</ele><time>2026-04-29T16:33:13.015Z</time></trkpt><trkpt lat="43.9151997" lon="10.6589922"><ele>469.0</ele><time>2026-04-29T16:33:14.009Z</time></trkpt><trkpt lat="43.9152989" lon="10.6589441"><ele>469.0</ele><time>2026-04-29T16:33:15.005Z</time></trkpt><trkpt lat="43.915401" lon="10.6589008"><ele>469.0</ele><time>2026-04-29T16:33:16.016Z</time></trkpt><trkpt lat="43.9155058" lon="10.6588514"><ele>469.0</ele><time>2026-04-29T16:33:17.02Z</time></trkpt><trkpt lat="43.9156082" lon="10.6588039"><ele>469.0</ele><time>2026-04-29T16:33:18.006Z</time></trkpt><trkpt lat="43.915707" lon="10.6587598"><ele>469.0</ele><time>2026-04-29T16:33:19.013Z</time></trkpt><trkpt lat="43.9158076" lon="10.6587168"><ele>469.0</ele><time>2026-04-29T16:33:20.017Z</time></trkpt><trkpt lat="43.915906" lon="10.6586712"><ele>469.0</ele><time>2026-04-29T16:33:21.013Z</time></trkpt><trkpt lat="43.9160006" lon="10.6586364"><ele>469.0</ele><time>2026-04-29T16:33:22.017Z</time></trkpt><trkpt lat="43.9160941" lon="10.6586205"><ele>469.6666666666667</ele><time>2026-04-29T16:33:23.015Z</time></trkpt><trkpt lat="43.9161864" lon="10.6586233"><ele>470.33333333333337</ele><time>2026-04-29T16:33:24.008Z</time></trkpt><trkpt lat="43.9162811" lon="10.6586418"><ele>471.0</ele><time>2026-04-29T16:33:25.008Z</time></trkpt><trkpt lat="43.9163652" lon="10.6586639"><ele>471.66666666666663</ele><time>2026-04-29T16:33:26.005Z</time></trkpt><trkpt lat="43.9164446" lon="10.6586762"><ele>472.3333333333333</ele><time>2026-04-29T16:33:27.013Z</time></trkpt><trkpt lat="43.9165181" lon="10.6586877"><ele>473.0</ele><time>2026-04-29T16:33:28.025Z</time></trkpt><trkpt lat="43.9165924" lon="10.6587239"><ele>473.0</ele><time>2026-04-29T16:33:29.011Z</time></trkpt><trkpt lat="43.9166588" lon="10.6587738"><ele>473.0</ele><time>2026-04-29T16:33:29.998Z</time></trkpt><trkpt lat="43.9167186" lon="10.6588262"><ele>473.0</ele><time>2026-04-29T16:33:31.024Z</time></trkpt><trkpt lat="43.9167797" lon="10.65886"><ele>473.0</ele><time>2026-04-29T16:33:32.02Z</time></trkpt><trkpt lat="43.9168526" lon="10.6588524"><ele>473.0</ele><time>2026-04-29T16:33:33.016Z</time></trkpt><trkpt lat="43.9169294" lon="10.6588593"><ele>473.0</ele><time>2026-04-29T16:33:34.024Z</time></trkpt><trkpt lat="43.917005" lon="10.6588882"><ele>473.0</ele><time>2026-04-29T16:33:35.007Z</time></trkpt><trkpt lat="43.9170778" lon="10.6589201"><ele>475.59999999999997</ele><time>2026-04-29T16:33:36.007Z</time></trkpt><trkpt lat="43.9171534" lon="10.6589522"><ele>478.19999999999993</ele><time>2026-04-29T16:33:37.022Z</time></trkpt><trkpt lat="43.9172378" lon="10.6589807"><ele>480.8</ele><time>2026-04-29T16:33:38.008Z</time></trkpt><trkpt lat="43.9173371" lon="10.6589951"><ele>483.4</ele><time>2026-04-29T16:33:39.017Z</time></trkpt><trkpt lat="43.9174389" lon="10.6590033"><ele>486.0</ele><time>2026-04-29T16:33:40.017Z</time></trkpt><trkpt lat="43.9175394" lon="10.6590139"><ele>487.1666666666667</ele><time>2026-04-29T16:33:41.009Z</time></trkpt><trkpt lat="43.917636" lon="10.6590151"><ele>488.33333333333337</ele><time>2026-04-29T16:33:42.008Z</time></trkpt><trkpt lat="43.917721" lon="10.6590317"><ele>489.5</ele><time>2026-04-29T16:33:43.009Z</time></trkpt><trkpt lat="43.9177928" lon="10.6590484"><ele>490.6666666666667</ele><time>2026-04-29T16:33:44.022Z</time></trkpt><trkpt lat="43.9178643" lon="10.6590467"><ele>491.83333333333337</ele><time>2026-04-29T16:33:45.008Z</time></trkpt><trkpt lat="43.9179544" lon="10.6590239"><ele>493.0</ele><time>2026-04-29T16:33:46.018Z</time></trkpt><trkpt lat="43.9180611" lon="10.6589857"><ele>493.0</ele><time>2026-04-29T16:33:47.02Z</time></trkpt><trkpt lat="43.9181806" lon="10.6589432"><ele>493.0</ele><time>2026-04-29T16:33:48.02Z</time></trkpt><trkpt lat="43.9182974" lon="10.6588996"><ele>493.0</ele><time>2026-04-29T16:33:49.016Z</time></trkpt><trkpt lat="43.9184169" lon="10.6588558"><ele>493.0</ele><time>2026-04-29T16:33:49.997Z</time></trkpt><trkpt lat="43.9185275" lon="10.6588148"><ele>494.79999999999995</ele><time>2026-04-29T16:33:51.006Z</time></trkpt><trkpt lat="43.9186472" lon="10.6587878"><ele>496.59999999999997</ele><time>2026-04-29T16:33:52.018Z</time></trkpt><trkpt lat="43.9187585" lon="10.6587794"><ele>498.40000000000003</ele><time>2026-04-29T16:33:53.008Z</time></trkpt><trkpt lat="43.9188679" lon="10.6587874"><ele>500.20000000000005</ele><time>2026-04-29T16:33:54.009Z</time></trkpt><trkpt lat="43.9189672" lon="10.6588022"><ele>502.0</ele><time>2026-04-29T16:33:55.007Z</time></trkpt><trkpt lat="43.9190545" lon="10.6588179"><ele>502.0</ele><time>2026-04-29T16:33:56.027Z</time></trkpt><trkpt lat="43.919125" lon="10.6588665"><ele>502.00000000000006</ele><time>2026-04-29T16:33:57.016Z</time></trkpt><trkpt lat="43.9192009" lon="10.6589484"><ele>502.00000000000006</ele><time>2026-04-29T16:33:57.996Z</time></trkpt><trkpt lat="43.9192826" lon="10.6590756"><ele>502.0</ele><time>2026-04-29T16:33:59.012Z</time></trkpt><trkpt lat="43.9193686" lon="10.6591882"><ele>502.0</ele><time>2026-04-29T16:34:00.018Z</time></trkpt><trkpt lat="43.9194532" lon="10.6592888"><ele>503.8</ele><time>2026-04-29T16:34:01.009Z</time></trkpt><trkpt lat="43.9195403" lon="10.6594014"><ele>505.6</ele><time>2026-04-29T16:34:02.031Z</time></trkpt><trkpt lat="43.9196246" lon="10.659506"><ele>507.40000000000003</ele><time>2026-04-29T16:34:03.003Z</time></trkpt><trkpt lat="43.9197078" lon="10.6595944"><ele>509.20000000000005</ele><time>2026-04-29T16:34:04.017Z</time></trkpt><trkpt lat="43.9197852" lon="10.6596925"><ele>511.0</ele><time>2026-04-29T16:34:05.018Z</time></trkpt><trkpt lat="43.9198579" lon="10.6597925"><ele>514.2</ele><time>2026-04-29T16:34:06.008Z</time></trkpt><trkpt lat="43.919926" lon="10.6598969"><ele>517.4000000000001</ele><time>2026-04-29T16:34:07.019Z</time></trkpt><trkpt lat="43.9199764" lon="10.6600092"><ele>520.6</ele><time>2026-04-29T16:34:08.016Z</time></trkpt><trkpt lat="43.9200183" lon="10.6601205"><ele>523.8000000000001</ele><time>2026-04-29T16:34:09.02Z</time></trkpt><trkpt lat="43.9200616" lon="10.6602369"><ele>527.0</ele><time>2026-04-29T16:34:10.019Z</time></trkpt><trkpt lat="43.9201084" lon="10.6603345"><ele>528.6</ele><time>2026-04-29T16:34:11.016Z</time></trkpt><trkpt lat="43.920154" lon="10.6604595"><ele>530.2</ele><time>2026-04-29T16:34:13.013Z</time></trkpt><trkpt lat="43.9201046" lon="10.6605706"><ele>531.8</ele><time>2026-04-29T16:34:15.031Z</time></trkpt><trkpt lat="43.9200251" lon="10.6605828"><ele>533.4</ele><time>2026-04-29T16:34:17Z</time></trkpt><trkpt lat="43.9199253" lon="10.6604909"><ele>535.0</ele><time>2026-04-29T16:34:19.022Z</time></trkpt><trkpt lat="43.9198618" lon="10.660432"><ele>535.0</ele><time>2026-04-29T16:34:20.016Z</time></trkpt><trkpt lat="43.9197977" lon="10.6603816"><ele>535.0</ele><time>2026-04-29T16:34:21Z</time></trkpt><trkpt lat="43.9197367" lon="10.6603251"><ele>535.0</ele><time>2026-04-29T16:34:22.019Z</time></trkpt><trkpt lat="43.9196742" lon="10.6602693"><ele>535.0</ele><time>2026-04-29T16:34:23.014Z</time></trkpt><trkpt lat="43.9196097" lon="10.6602239"><ele>535.0</ele><time>2026-04-29T16:34:24.021Z</time></trkpt><trkpt lat="43.9195461" lon="10.6601868"><ele>535.0</ele><time>2026-04-29T16:34:25.012Z</time></trkpt><trkpt lat="43.9194483" lon="10.6601811"><ele>535.0</ele><time>2026-04-29T16:34:27.028Z</time></trkpt><trkpt lat="43.9193839" lon="10.6602453"><ele>535.0</ele><time>2026-04-29T16:34:29.025Z</time></trkpt><trkpt lat="43.9193434" lon="10.6603984"><ele>535.0</ele><time>2026-04-29T16:34:31.016Z</time></trkpt><trkpt lat="43.9192789" lon="10.6605252"><ele>535.0</ele><time>2026-04-29T16:34:33.01Z</time></trkpt><trkpt lat="43.9191584" lon="10.6605116"><ele>535.0</ele><time>2026-04-29T16:34:35.007Z</time></trkpt><trkpt lat="43.9190934" lon="10.6604906"><ele>533.4</ele><time>2026-04-29T16:34:36.011Z</time></trkpt><trkpt lat="43.9190296" lon="10.6604807"><ele>531.8</ele><time>2026-04-29T16:34:37.01Z</time></trkpt><trkpt lat="43.9189207" lon="10.6605422"><ele>530.2</ele><time>2026-04-29T16:34:39.011Z</time></trkpt><trkpt lat="43.9188531" lon="10.6606303"><ele>528.6</ele><time>2026-04-29T16:34:40.006Z</time></trkpt><trkpt lat="43.9187858" lon="10.6607423"><ele>527.0</ele><time>2026-04-29T16:34:41.021Z</time></trkpt><trkpt lat="43.9187278" lon="10.6608484"><ele>527.0</ele><time>2026-04-29T16:34:42.008Z</time></trkpt><trkpt lat="43.9186738" lon="10.660953"><ele>527.0</ele><time>2026-04-29T16:34:43.013Z</time></trkpt><trkpt lat="43.9186298" lon="10.6610369"><ele>527.0</ele><time>2026-04-29T16:34:44.013Z</time></trkpt><trkpt lat="43.9186058" lon="10.6611177"><ele>527.0</ele><time>2026-04-29T16:34:45.008Z</time></trkpt><trkpt lat="43.9186148" lon="10.6612897"><ele>527.0</ele><time>2026-04-29T16:34:47.012Z</time></trkpt><trkpt lat="43.9186298" lon="10.661406"><ele>527.0</ele><time>2026-04-29T16:34:48.022Z</time></trkpt><trkpt lat="43.9186458" lon="10.6615172"><ele>528.0</ele><time>2026-04-29T16:34:49.012Z</time></trkpt><trkpt lat="43.9186632" lon="10.661623"><ele>529.0</ele><time>2026-04-29T16:34:50.012Z</time></trkpt><trkpt lat="43.91866" lon="10.6617701"><ele>530.0</ele><time>2026-04-29T16:34:52.013Z</time></trkpt><trkpt lat="43.9185863" lon="10.6618663"><ele>531.0</ele><time>2026-04-29T16:34:54.01Z</time></trkpt><trkpt lat="43.9185039" lon="10.6618675"><ele>532.0</ele><time>2026-04-29T16:34:55.013Z</time></trkpt><trkpt lat="43.9183892" lon="10.6618243"><ele>532.0</ele><time>2026-04-29T16:34:56.012Z</time></trkpt><trkpt lat="43.9182853" lon="10.6617756"><ele>532.0</ele><time>2026-04-29T16:34:57.015Z</time></trkpt><trkpt lat="43.9181947" lon="10.6617277"><ele>532.0</ele><time>2026-04-29T16:34:58.003Z</time></trkpt><trkpt lat="43.9181187" lon="10.6617172"><ele>532.0</ele><time>2026-04-29T16:34:59.013Z</time></trkpt><trkpt lat="43.9180507" lon="10.6617294"><ele>532.0</ele><time>2026-04-29T16:35:00.025Z</time></trkpt><trkpt lat="43.917982" lon="10.6617745"><ele>532.0</ele><time>2026-04-29T16:35:01.013Z</time></trkpt><trkpt lat="43.9179152" lon="10.6618805"><ele>535.0</ele><time>2026-04-29T16:35:03.018Z</time></trkpt><trkpt lat="43.9179377" lon="10.661994"><ele>538.0</ele><time>2026-04-29T16:35:05.014Z</time></trkpt><trkpt lat="43.9180076" lon="10.662064"><ele>541.0</ele><time>2026-04-29T16:35:07.008Z</time></trkpt><trkpt lat="43.9180628" lon="10.6621348"><ele>544.0</ele><time>2026-04-29T16:35:09.008Z</time></trkpt><trkpt lat="43.9180377" lon="10.6622151"><ele>547.0</ele><time>2026-04-29T16:35:11.012Z</time></trkpt><trkpt lat="43.9179387" lon="10.662289"><ele>550.0</ele><time>2026-04-29T16:35:13.009Z</time></trkpt><trkpt lat="43.9178636" lon="10.6622996"><ele>550.0</ele><time>2026-04-29T16:35:14.02Z</time></trkpt><trkpt lat="43.9177822" lon="10.6623163"><ele>550.0</ele><time>2026-04-29T16:35:15.005Z</time></trkpt><trkpt lat="43.9177054" lon="10.6623345"><ele>550.0</ele><time>2026-04-29T16:35:16.022Z</time></trkpt><trkpt lat="43.9176264" lon="10.6623397"><ele>550.0</ele><time>2026-04-29T16:35:17.016Z</time></trkpt><trkpt lat="43.9175417" lon="10.6623157"><ele>550.0</ele><time>2026-04-29T16:35:18.013Z</time></trkpt><trkpt lat="43.9174669" lon="10.6622868"><ele>550.0</ele><time>2026-04-29T16:35:19.021Z</time></trkpt><trkpt lat="43.9173998" lon="10.6622546"><ele>549.0</ele><time>2026-04-29T16:35:20.016Z</time></trkpt><trkpt lat="43.9173368" lon="10.6622354"><ele>548.0</ele><time>2026-04-29T16:35:21.014Z</time></trkpt><trkpt lat="43.9172706" lon="10.6622253"><ele>547.0</ele><time>2026-04-29T16:35:22.018Z</time></trkpt><trkpt lat="43.9171704" lon="10.662262"><ele>546.0</ele><time>2026-04-29T16:35:24.015Z</time></trkpt><trkpt lat="43.9171017" lon="10.6623032"><ele>545.0</ele><time>2026-04-29T16:35:25.012Z</time></trkpt><trkpt lat="43.917033" lon="10.6623543"><ele>544.0</ele><time>2026-04-29T16:35:26.039Z</time></trkpt><trkpt lat="43.9169644" lon="10.6623967"><ele>544.0</ele><time>2026-04-29T16:35:27.023Z</time></trkpt><trkpt lat="43.9169062" lon="10.6624534"><ele>544.0</ele><time>2026-04-29T16:35:28.012Z</time></trkpt><trkpt lat="43.9168489" lon="10.6625149"><ele>544.0</ele><time>2026-04-29T16:35:29.008Z</time></trkpt><trkpt lat="43.9168085" lon="10.6626525"><ele>544.0</ele><time>2026-04-29T16:35:31.012Z</time></trkpt><trkpt lat="43.9168553" lon="10.6627897"><ele>544.0</ele><time>2026-04-29T16:35:33.03Z</time></trkpt><trkpt lat="43.9169656" lon="10.6628524"><ele>544.6666666666667</ele><time>2026-04-29T16:35:35.028Z</time></trkpt><trkpt lat="43.9170482" lon="10.6628892"><ele>545.3333333333334</ele><time>2026-04-29T16:35:36.055Z</time></trkpt><trkpt lat="43.9171345" lon="10.6629272"><ele>546.0</ele><time>2026-04-29T16:35:37.017Z</time></trkpt><trkpt lat="43.9172102" lon="10.6629645"><ele>546.6666666666666</ele><time>2026-04-29T16:35:38.015Z</time></trkpt><trkpt lat="43.917281" lon="10.662998"><ele>547.3333333333333</ele><time>2026-04-29T16:35:39.015Z</time></trkpt><trkpt lat="43.9173511" lon="10.663009"><ele>548.0</ele><time>2026-04-29T16:35:40.037Z</time></trkpt><trkpt lat="43.9174218" lon="10.6629992"><ele>548.0</ele><time>2026-04-29T16:35:41.024Z</time></trkpt><trkpt lat="43.9174918" lon="10.6630002"><ele>548.0</ele><time>2026-04-29T16:35:42.027Z</time></trkpt><trkpt lat="43.9175594" lon="10.6629916"><ele>548.0</ele><time>2026-04-29T16:35:43.015Z</time></trkpt><trkpt lat="43.9176662" lon="10.6630702"><ele>548.0</ele><time>2026-04-29T16:35:45.013Z</time></trkpt><trkpt lat="43.917714" lon="10.6631491"><ele>548.0</ele><time>2026-04-29T16:35:46.01Z</time></trkpt><trkpt lat="43.9177581" lon="10.6632307"><ele>548.0</ele><time>2026-04-29T16:35:47.013Z</time></trkpt><trkpt lat="43.9177926" lon="10.6633148"><ele>550.6666666666666</ele><time>2026-04-29T16:35:48.013Z</time></trkpt><trkpt lat="43.917822" lon="10.6634072"><ele>553.3333333333333</ele><time>2026-04-29T16:35:49.015Z</time></trkpt><trkpt lat="43.9178322" lon="10.663514"><ele>556.0</ele><time>2026-04-29T16:35:50.021Z</time></trkpt><trkpt lat="43.9178452" lon="10.6636314"><ele>558.6666666666666</ele><time>2026-04-29T16:35:51.012Z</time></trkpt><trkpt lat="43.9178582" lon="10.6637451"><ele>561.3333333333334</ele><time>2026-04-29T16:35:52.026Z</time></trkpt><trkpt lat="43.9178798" lon="10.6638432"><ele>564.0</ele><time>2026-04-29T16:35:53.029Z</time></trkpt><trkpt lat="43.9179166" lon="10.6639537"><ele>564.0</ele><time>2026-04-29T16:35:54.013Z</time></trkpt><trkpt lat="43.917972" lon="10.6640668"><ele>564.0</ele><time>2026-04-29T16:35:55.042Z</time></trkpt><trkpt lat="43.9180288" lon="10.6641947"><ele>564.0</ele><time>2026-04-29T16:35:56.008Z</time></trkpt><trkpt lat="43.9180867" lon="10.6643147"><ele>564.0</ele><time>2026-04-29T16:35:57.017Z</time></trkpt><trkpt lat="43.9181338" lon="10.6644148"><ele>564.0</ele><time>2026-04-29T16:35:58.017Z</time></trkpt><trkpt lat="43.9181674" lon="10.6644907"><ele>563.0</ele><time>2026-04-29T16:35:59.019Z</time></trkpt><trkpt lat="43.918161" lon="10.6646235"><ele>562.0</ele><time>2026-04-29T16:36:01.007Z</time></trkpt><trkpt lat="43.9180876" lon="10.6647751"><ele>561.0</ele><time>2026-04-29T16:36:03.024Z</time></trkpt><trkpt lat="43.9180322" lon="10.6648551"><ele>560.0</ele><time>2026-04-29T16:36:04.025Z</time></trkpt><trkpt lat="43.917993" lon="10.6649662"><ele>559.0</ele><time>2026-04-29T16:36:06.02Z</time></trkpt><trkpt lat="43.9180325" lon="10.6650428"><ele>559.0</ele><time>2026-04-29T16:36:08.012Z</time></trkpt><trkpt lat="43.91814" lon="10.6651034"><ele>559.0</ele><time>2026-04-29T16:36:11.031Z</time></trkpt><trkpt lat="43.9182135" lon="10.6651152"><ele>559.0</ele><time>2026-04-29T16:36:12.027Z</time></trkpt><trkpt lat="43.9183097" lon="10.665113"><ele>559.0</ele><time>2026-04-29T16:36:13.017Z</time></trkpt><trkpt lat="43.9184015" lon="10.6650978"><ele>559.0</ele><time>2026-04-29T16:36:14.011Z</time></trkpt><trkpt lat="43.9184939" lon="10.6650686"><ele>557.5</ele><time>2026-04-29T16:36:15.02Z</time></trkpt><trkpt lat="43.9185822" lon="10.6650289"><ele>556.0</ele><time>2026-04-29T16:36:16.022Z</time></trkpt><trkpt lat="43.9186646" lon="10.6649858"><ele>554.5</ele><time>2026-04-29T16:36:17.005Z</time></trkpt><trkpt lat="43.9187386" lon="10.6649365"><ele>553.0</ele><time>2026-04-29T16:36:18.025Z</time></trkpt><trkpt lat="43.9188104" lon="10.664872"><ele>551.5</ele><time>2026-04-29T16:36:19.01Z</time></trkpt><trkpt lat="43.9188888" lon="10.664794"><ele>550.0</ele><time>2026-04-29T16:36:20.031Z</time></trkpt><trkpt lat="43.9189759" lon="10.6647282"><ele>550.0</ele><time>2026-04-29T16:36:21.02Z</time></trkpt><trkpt lat="43.9190748" lon="10.6646777"><ele>550.0</ele><time>2026-04-29T16:36:22.014Z</time></trkpt><trkpt lat="43.9191763" lon="10.6646442"><ele>550.0</ele><time>2026-04-29T16:36:23.026Z</time></trkpt><trkpt lat="43.9192825" lon="10.664616"><ele>550.0</ele><time>2026-04-29T16:36:24.016Z</time></trkpt><trkpt lat="43.9193817" lon="10.6645879"><ele>550.0</ele><time>2026-04-29T16:36:25.026Z</time></trkpt><trkpt lat="43.9194753" lon="10.6645555"><ele>548.3333333333334</ele><time>2026-04-29T16:36:26.02Z</time></trkpt><trkpt lat="43.9195663" lon="10.6645295"><ele>546.6666666666667</ele><time>2026-04-29T16:36:27.003Z</time></trkpt><trkpt lat="43.9196408" lon="10.6644993"><ele>545.0</ele><time>2026-04-29T16:36:28.026Z</time></trkpt><trkpt lat="43.9197135" lon="10.6644692"><ele>543.3333333333334</ele><time>2026-04-29T16:36:29.022Z</time></trkpt><trkpt lat="43.9197816" lon="10.6644182"><ele>541.6666666666666</ele><time>2026-04-29T16:36:30.027Z</time></trkpt><trkpt lat="43.9198415" lon="10.6643279"><ele>540.0</ele><time>2026-04-29T16:36:31.014Z</time></trkpt><trkpt lat="43.9199124" lon="10.6642127"><ele>542.6</ele><time>2026-04-29T16:36:32.011Z</time></trkpt><trkpt lat="43.9199705" lon="10.6641031"><ele>545.2</ele><time>2026-04-29T16:36:33.007Z</time></trkpt><trkpt lat="43.9200306" lon="10.6640091"><ele>547.8</ele><time>2026-04-29T16:36:34.017Z</time></trkpt><trkpt lat="43.9201051" lon="10.6639253"><ele>550.4</ele><time>2026-04-29T16:36:35.02Z</time></trkpt><trkpt lat="43.9201892" lon="10.6638437"><ele>553.0</ele><time>2026-04-29T16:36:36.024Z</time></trkpt><trkpt lat="43.9202758" lon="10.6637769"><ele>553.0</ele><time>2026-04-29T16:36:37.02Z</time></trkpt><trkpt lat="43.9203572" lon="10.6637181"><ele>553.0</ele><time>2026-04-29T16:36:38.019Z</time></trkpt><trkpt lat="43.920435" lon="10.6636281"><ele>553.0</ele><time>2026-04-29T16:36:39.023Z</time></trkpt><trkpt lat="43.9205194" lon="10.6635159"><ele>553.0</ele><time>2026-04-29T16:36:40.01Z</time></trkpt><trkpt lat="43.9206043" lon="10.6634114"><ele>553.0</ele><time>2026-04-29T16:36:41.029Z</time></trkpt><trkpt lat="43.9206802" lon="10.6633074"><ele>554.6</ele><time>2026-04-29T16:36:42.017Z</time></trkpt><trkpt lat="43.9207549" lon="10.6631974"><ele>556.1999999999999</ele><time>2026-04-29T16:36:43.01Z</time></trkpt><trkpt lat="43.9208355" lon="10.6630873"><ele>557.8</ele><time>2026-04-29T16:36:44.035Z</time></trkpt><trkpt lat="43.9209171" lon="10.6629853"><ele>559.4</ele><time>2026-04-29T16:36:45.01Z</time></trkpt><trkpt lat="43.9209893" lon="10.6628852"><ele>561.0</ele><time>2026-04-29T16:36:46.019Z</time></trkpt><trkpt lat="43.9210632" lon="10.6627936"><ele>562.4</ele><time>2026-04-29T16:36:47.017Z</time></trkpt><trkpt lat="43.9211377" lon="10.6626959"><ele>563.8</ele><time>2026-04-29T16:36:48.017Z</time></trkpt><trkpt lat="43.9212072" lon="10.6626017"><ele>565.1999999999999</ele><time>2026-04-29T16:36:49.017Z</time></trkpt><trkpt lat="43.9212657" lon="10.6624928"><ele>566.6</ele><time>2026-04-29T16:36:50.017Z</time></trkpt><trkpt lat="43.9213259" lon="10.6623688"><ele>568.0</ele><time>2026-04-29T16:36:51.043Z</time></trkpt><trkpt lat="43.9213824" lon="10.6622407"><ele>568.0</ele><time>2026-04-29T16:36:52.018Z</time></trkpt><trkpt lat="43.9214364" lon="10.6621028"><ele>568.0</ele><time>2026-04-29T16:36:53.016Z</time></trkpt><trkpt lat="43.9214833" lon="10.6619694"><ele>568.0</ele><time>2026-04-29T16:36:54.003Z</time></trkpt><trkpt lat="43.9215296" lon="10.661846"><ele>568.0</ele><time>2026-04-29T16:36:55.013Z</time></trkpt><trkpt lat="43.9215925" lon="10.6617427"><ele>568.0</ele><time>2026-04-29T16:36:56.015Z</time></trkpt><trkpt lat="43.9216801" lon="10.661628"><ele>567.1999999999999</ele><time>2026-04-29T16:36:57.022Z</time></trkpt><trkpt lat="43.9217656" lon="10.6615078"><ele>566.4</ele><time>2026-04-29T16:36:58.012Z</time></trkpt><trkpt lat="43.9218389" lon="10.661397"><ele>565.5999999999999</ele><time>2026-04-29T16:36:59.017Z</time></trkpt><trkpt lat="43.9219193" lon="10.6612936"><ele>564.8</ele><time>2026-04-29T16:37:00.012Z</time></trkpt><trkpt lat="43.9219966" lon="10.6611987"><ele>564.0</ele><time>2026-04-29T16:37:01.019Z</time></trkpt><trkpt lat="43.9220844" lon="10.6611164"><ele>565.5</ele><time>2026-04-29T16:37:02.023Z</time></trkpt><trkpt lat="43.9221701" lon="10.6610612"><ele>567.0</ele><time>2026-04-29T16:37:03.017Z</time></trkpt><trkpt lat="43.9222439" lon="10.6610327"><ele>568.5</ele><time>2026-04-29T16:37:04.029Z</time></trkpt><trkpt lat="43.922306" lon="10.6609949"><ele>570.0</ele><time>2026-04-29T16:37:05.02Z</time></trkpt><trkpt lat="43.9223777" lon="10.6609375"><ele>571.5</ele><time>2026-04-29T16:37:06.02Z</time></trkpt><trkpt lat="43.9224508" lon="10.6608604"><ele>573.0</ele><time>2026-04-29T16:37:07.013Z</time></trkpt><trkpt lat="43.9225175" lon="10.6607922"><ele>573.1999999999999</ele><time>2026-04-29T16:37:08.029Z</time></trkpt><trkpt lat="43.9225928" lon="10.6607339"><ele>573.4</ele><time>2026-04-29T16:37:09.009Z</time></trkpt><trkpt lat="43.9226774" lon="10.6607002"><ele>573.5999999999999</ele><time>2026-04-29T16:37:10.023Z</time></trkpt><trkpt lat="43.9227672" lon="10.6606878"><ele>573.8</ele><time>2026-04-29T16:37:11.011Z</time></trkpt><trkpt lat="43.9228726" lon="10.6606772"><ele>574.0</ele><time>2026-04-29T16:37:12.017Z</time></trkpt><trkpt lat="43.9229836" lon="10.6606569"><ele>574.0</ele><time>2026-04-29T16:37:13.009Z</time></trkpt><trkpt lat="43.9230844" lon="10.6606344"><ele>574.0</ele><time>2026-04-29T16:37:14.016Z</time></trkpt><trkpt lat="43.9231788" lon="10.6606125"><ele>574.0</ele><time>2026-04-29T16:37:15.017Z</time></trkpt><trkpt lat="43.9232745" lon="10.6606297"><ele>574.0</ele><time>2026-04-29T16:37:16.023Z</time></trkpt><trkpt lat="43.9233679" lon="10.6606536"><ele>574.0</ele><time>2026-04-29T16:37:17.028Z</time></trkpt><trkpt lat="43.923464" lon="10.6606704"><ele>574.75</ele><time>2026-04-29T16:37:18.024Z</time></trkpt><trkpt lat="43.9235636" lon="10.6606753"><ele>575.5</ele><time>2026-04-29T16:37:19.024Z</time></trkpt><trkpt lat="43.9236757" lon="10.660674"><ele>576.25</ele><time>2026-04-29T16:37:20.024Z</time></trkpt><trkpt lat="43.9237944" lon="10.6606707"><ele>577.0</ele><time>2026-04-29T16:37:21.019Z</time></trkpt><trkpt lat="43.9239162" lon="10.6606765"><ele>577.0</ele><time>2026-04-29T16:37:22.019Z</time></trkpt><trkpt lat="43.9240269" lon="10.6606876"><ele>577.0</ele><time>2026-04-29T16:37:23.019Z</time></trkpt><trkpt lat="43.924135" lon="10.6607048"><ele>577.0</ele><time>2026-04-29T16:37:24.019Z</time></trkpt><trkpt lat="43.9242233" lon="10.6607203"><ele>577.0</ele><time>2026-04-29T16:37:25.012Z</time></trkpt><trkpt lat="43.9242951" lon="10.6607525"><ele>577.0</ele><time>2026-04-29T16:37:26.024Z</time></trkpt><trkpt lat="43.9243611" lon="10.6608139"><ele>576.5</ele><time>2026-04-29T16:37:27.025Z</time></trkpt><trkpt lat="43.924427" lon="10.6608769"><ele>576.0</ele><time>2026-04-29T16:37:28.01Z</time></trkpt><trkpt lat="43.9244812" lon="10.6609306"><ele>575.5</ele><time>2026-04-29T16:37:29.015Z</time></trkpt><trkpt lat="43.9245953" lon="10.6609944"><ele>575.0</ele><time>2026-04-29T16:37:31.021Z</time></trkpt><trkpt lat="43.9246674" lon="10.6610105"><ele>574.5</ele><time>2026-04-29T16:37:32.022Z</time></trkpt><trkpt lat="43.9247433" lon="10.6610017"><ele>574.0</ele><time>2026-04-29T16:37:33.013Z</time></trkpt><trkpt lat="43.9248245" lon="10.6609791"><ele>574.0</ele><time>2026-04-29T16:37:34.011Z</time></trkpt><trkpt lat="43.924907" lon="10.6609547"><ele>574.0</ele><time>2026-04-29T16:37:35.018Z</time></trkpt><trkpt lat="43.9249865" lon="10.6609357"><ele>574.0</ele><time>2026-04-29T16:37:36.014Z</time></trkpt><trkpt lat="43.925071" lon="10.6609401"><ele>574.0</ele><time>2026-04-29T16:37:37.014Z</time></trkpt><trkpt lat="43.9251581" lon="10.6609763"><ele>574.0</ele><time>2026-04-29T16:37:38.018Z</time></trkpt><trkpt lat="43.9252406" lon="10.6610163"><ele>574.0</ele><time>2026-04-29T16:37:39.008Z</time></trkpt><trkpt lat="43.9253331" lon="10.6610557"><ele>573.1666666666667</ele><time>2026-04-29T16:37:40.025Z</time></trkpt><trkpt lat="43.9254294" lon="10.6610875"><ele>572.3333333333334</ele><time>2026-04-29T16:37:41.018Z</time></trkpt><trkpt lat="43.9255189" lon="10.6611022"><ele>571.5</ele><time>2026-04-29T16:37:42.023Z</time></trkpt><trkpt lat="43.9256084" lon="10.6611194"><ele>570.6666666666666</ele><time>2026-04-29T16:37:43.027Z</time></trkpt><trkpt lat="43.9256839" lon="10.6611484"><ele>569.8333333333333</ele><time>2026-04-29T16:37:44.013Z</time></trkpt><trkpt lat="43.9257525" lon="10.6611879"><ele>569.0</ele><time>2026-04-29T16:37:45.03Z</time></trkpt><trkpt lat="43.9258144" lon="10.6612449"><ele>570.8333333333333</ele><time>2026-04-29T16:37:46.028Z</time></trkpt><trkpt lat="43.9258773" lon="10.661319"><ele>572.6666666666666</ele><time>2026-04-29T16:37:47.008Z</time></trkpt><trkpt lat="43.9259319" lon="10.6614057"><ele>574.5</ele><time>2026-04-29T16:37:48.008Z</time></trkpt><trkpt lat="43.9259845" lon="10.6614985"><ele>576.3333333333334</ele><time>2026-04-29T16:37:49.022Z</time></trkpt><trkpt lat="43.9260371" lon="10.6616046"><ele>578.1666666666667</ele><time>2026-04-29T16:37:50.023Z</time></trkpt><trkpt lat="43.9260866" lon="10.6617022"><ele>580.0</ele><time>2026-04-29T16:37:51.027Z</time></trkpt><trkpt lat="43.9261378" lon="10.6617812"><ele>580.0</ele><time>2026-04-29T16:37:52.028Z</time></trkpt><trkpt lat="43.9261921" lon="10.6618555"><ele>580.0</ele><time>2026-04-29T16:37:53.024Z</time></trkpt><trkpt lat="43.9262572" lon="10.6619148"><ele>580.0</ele><time>2026-04-29T16:37:54.023Z</time></trkpt><trkpt lat="43.9263285" lon="10.6619767"><ele>580.0</ele><time>2026-04-29T16:37:55.024Z</time></trkpt><trkpt lat="43.9263967" lon="10.6620474"><ele>580.0</ele><time>2026-04-29T16:37:56.022Z</time></trkpt><trkpt lat="43.9264689" lon="10.6621097"><ele>580.0</ele><time>2026-04-29T16:37:57.023Z</time></trkpt><trkpt lat="43.9265365" lon="10.6621763"><ele>582.1428571428571</ele><time>2026-04-29T16:37:58.03Z</time></trkpt><trkpt lat="43.9265841" lon="10.6622629"><ele>584.2857142857143</ele><time>2026-04-29T16:37:59.006Z</time></trkpt><trkpt lat="43.9266211" lon="10.6623671"><ele>586.4285714285714</ele><time>2026-04-29T16:38:00.028Z</time></trkpt><trkpt lat="43.9266549" lon="10.66247"><ele>588.5714285714286</ele><time>2026-04-29T16:38:01.021Z</time></trkpt><trkpt lat="43.9266944" lon="10.6625581"><ele>590.7142857142858</ele><time>2026-04-29T16:38:02.024Z</time></trkpt><trkpt lat="43.9267405" lon="10.6626241"><ele>592.8571428571429</ele><time>2026-04-29T16:38:03.022Z</time></trkpt><trkpt lat="43.9267942" lon="10.6626725"><ele>595.0</ele><time>2026-04-29T16:38:04.022Z</time></trkpt><trkpt lat="43.9268554" lon="10.6627"><ele>595.0</ele><time>2026-04-29T16:38:05.026Z</time></trkpt><trkpt lat="43.926922" lon="10.662716"><ele>595.0</ele><time>2026-04-29T16:38:06.015Z</time></trkpt><trkpt lat="43.9269975" lon="10.6628023"><ele>595.0</ele><time>2026-04-29T16:38:08.021Z</time></trkpt><trkpt lat="43.9270105" lon="10.6629518"><ele>595.0</ele><time>2026-04-29T16:38:10.016Z</time></trkpt><trkpt lat="43.9269891" lon="10.6630499"><ele>595.0</ele><time>2026-04-29T16:38:11.029Z</time></trkpt><trkpt lat="43.9269556" lon="10.6631639"><ele>595.0</ele><time>2026-04-29T16:38:12.029Z</time></trkpt><trkpt lat="43.9269187" lon="10.6632769"><ele>600.4</ele><time>2026-04-29T16:38:13.023Z</time></trkpt><trkpt lat="43.9268816" lon="10.663388"><ele>605.8</ele><time>2026-04-29T16:38:14.024Z</time></trkpt><trkpt lat="43.9268473" lon="10.6634945"><ele>611.2</ele><time>2026-04-29T16:38:15.024Z</time></trkpt><trkpt lat="43.9268233" lon="10.6635838"><ele>616.6</ele><time>2026-04-29T16:38:16.02Z</time></trkpt><trkpt lat="43.9267517" lon="10.6637369"><ele>622.0</ele><time>2026-04-29T16:38:18.013Z</time></trkpt><trkpt lat="43.9266876" lon="10.6638027"><ele>623.5</ele><time>2026-04-29T16:38:19.019Z</time></trkpt><trkpt lat="43.9266106" lon="10.6638515"><ele>625.0</ele><time>2026-04-29T16:38:20.019Z</time></trkpt><trkpt lat="43.9265304" lon="10.6638906"><ele>626.5</ele><time>2026-04-29T16:38:21.008Z</time></trkpt><trkpt lat="43.926449" lon="10.6639274"><ele>628.0</ele><time>2026-04-29T16:38:22.018Z</time></trkpt><trkpt lat="43.9263866" lon="10.6639587"><ele>629.5</ele><time>2026-04-29T16:38:23.021Z</time></trkpt><trkpt lat="43.9263292" lon="10.6640121"><ele>631.0</ele><time>2026-04-29T16:38:24.028Z</time></trkpt><trkpt lat="43.9262408" lon="10.6641315"><ele>631.0</ele><time>2026-04-29T16:38:26.02Z</time></trkpt><trkpt lat="43.9261847" lon="10.6642804"><ele>631.0</ele><time>2026-04-29T16:38:28.023Z</time></trkpt><trkpt lat="43.9261723" lon="10.6643674"><ele>631.0</ele><time>2026-04-29T16:38:29.035Z</time></trkpt><trkpt lat="43.9261607" lon="10.664472"><ele>631.0</ele><time>2026-04-29T16:38:30.024Z</time></trkpt><trkpt lat="43.9261526" lon="10.6646103"><ele>631.0</ele><time>2026-04-29T16:38:31.024Z</time></trkpt><trkpt lat="43.9261476" lon="10.6647599"><ele>634.3333333333334</ele><time>2026-04-29T16:38:32.034Z</time></trkpt><trkpt lat="43.9261547" lon="10.6648963"><ele>637.6666666666667</ele><time>2026-04-29T16:38:33.01Z</time></trkpt><trkpt lat="43.9261628" lon="10.6650123"><ele>641.0</ele><time>2026-04-29T16:38:34.009Z</time></trkpt><trkpt lat="43.9261686" lon="10.6651037"><ele>644.3333333333334</ele><time>2026-04-29T16:38:34.994Z</time></trkpt><trkpt lat="43.9261258" lon="10.6652302"><ele>647.6666666666666</ele><time>2026-04-29T16:38:37.019Z</time></trkpt><trkpt lat="43.9260624" lon="10.6652447"><ele>651.0</ele><time>2026-04-29T16:38:38.012Z</time></trkpt><trkpt lat="43.925987" lon="10.6652544"><ele>649.1666666666666</ele><time>2026-04-29T16:38:39.013Z</time></trkpt><trkpt lat="43.9259162" lon="10.6652909"><ele>647.3333333333334</ele><time>2026-04-29T16:38:40.025Z</time></trkpt><trkpt lat="43.9258429" lon="10.6653203"><ele>645.5</ele><time>2026-04-29T16:38:41.021Z</time></trkpt><trkpt lat="43.9257738" lon="10.665359"><ele>643.6666666666667</ele><time>2026-04-29T16:38:42.023Z</time></trkpt><trkpt lat="43.9257239" lon="10.6654136"><ele>641.8333333333334</ele><time>2026-04-29T16:38:43.014Z</time></trkpt><trkpt lat="43.9256717" lon="10.6654684"><ele>640.0</ele><time>2026-04-29T16:38:44.002Z</time></trkpt><trkpt lat="43.9256219" lon="10.6656327"><ele>640.0</ele><time>2026-04-29T16:38:46.03Z</time></trkpt><trkpt lat="43.925606" lon="10.6657377"><ele>640.0</ele><time>2026-04-29T16:38:47.016Z</time></trkpt><trkpt lat="43.9255968" lon="10.6658717"><ele>640.0</ele><time>2026-04-29T16:38:48.026Z</time></trkpt><trkpt lat="43.9255929" lon="10.6660083"><ele>640.0</ele><time>2026-04-29T16:38:49.007Z</time></trkpt><trkpt lat="43.9255911" lon="10.6661305"><ele>640.0</ele><time>2026-04-29T16:38:50.017Z</time></trkpt><trkpt lat="43.9255891" lon="10.6662393"><ele>640.0</ele><time>2026-04-29T16:38:51.015Z</time></trkpt><trkpt lat="43.9255791" lon="10.666347"><ele>640.2</ele><time>2026-04-29T16:38:52.032Z</time></trkpt><trkpt lat="43.9255578" lon="10.6664448"><ele>640.4</ele><time>2026-04-29T16:38:53.026Z</time></trkpt><trkpt lat="43.925517" lon="10.6665861"><ele>640.5999999999999</ele><time>2026-04-29T16:38:55.03Z</time></trkpt><trkpt lat="43.9255061" lon="10.6667529"><ele>640.8</ele><time>2026-04-29T16:38:57.015Z</time></trkpt><trkpt lat="43.9255398" lon="10.6668947"><ele>641.0</ele><time>2026-04-29T16:38:59.014Z</time></trkpt><trkpt lat="43.9256272" lon="10.6670352"><ele>641.0</ele><time>2026-04-29T16:39:01.016Z</time></trkpt><trkpt lat="43.9256943" lon="10.6671167"><ele>641.0</ele><time>2026-04-29T16:39:02.01Z</time></trkpt><trkpt lat="43.9257653" lon="10.6671932"><ele>641.0</ele><time>2026-04-29T16:39:03.018Z</time></trkpt><trkpt lat="43.9258374" lon="10.6672728"><ele>641.0</ele><time>2026-04-29T16:39:04.012Z</time></trkpt><trkpt lat="43.9258995" lon="10.667365"><ele>641.0</ele><time>2026-04-29T16:39:04.994Z</time></trkpt><trkpt lat="43.9259527" lon="10.6674665"><ele>644.6666666666666</ele><time>2026-04-29T16:39:06.011Z</time></trkpt><trkpt lat="43.9259931" lon="10.6675879"><ele>648.3333333333333</ele><time>2026-04-29T16:39:07.006Z</time></trkpt><trkpt lat="43.9260228" lon="10.6676925"><ele>652.0</ele><time>2026-04-29T16:39:07.989Z</time></trkpt><trkpt lat="43.9260455" lon="10.6677837"><ele>655.6666666666666</ele><time>2026-04-29T16:39:09.012Z</time></trkpt><trkpt lat="43.9260765" lon="10.6678658"><ele>659.3333333333334</ele><time>2026-04-29T16:39:10.02Z</time></trkpt><trkpt lat="43.9261816" lon="10.6679575"><ele>663.0</ele><time>2026-04-29T16:39:12.023Z</time></trkpt><trkpt lat="43.9262837" lon="10.6679811"><ele>663.0</ele><time>2026-04-29T16:39:13.006Z</time></trkpt><trkpt lat="43.9263805" lon="10.6680099"><ele>663.0</ele><time>2026-04-29T16:39:14.002Z</time></trkpt><trkpt lat="43.9264682" lon="10.6680388"><ele>663.0</ele><time>2026-04-29T16:39:15.015Z</time></trkpt><trkpt lat="43.9265454" lon="10.6680559"><ele>663.0</ele><time>2026-04-29T16:39:16.01Z</time></trkpt><trkpt lat="43.9266367" lon="10.6680678"><ele>663.0</ele><time>2026-04-29T16:39:18.014Z</time></trkpt><trkpt lat="43.926704" lon="10.6680321"><ele>663.0</ele><time>2026-04-29T16:39:20.015Z</time></trkpt><trkpt lat="43.9268016" lon="10.6680127"><ele>665.8333333333334</ele><time>2026-04-29T16:39:22.014Z</time></trkpt><trkpt lat="43.9268416" lon="10.6681121"><ele>668.6666666666666</ele><time>2026-04-29T16:39:24.01Z</time></trkpt><trkpt lat="43.9268849" lon="10.6682481"><ele>671.5</ele><time>2026-04-29T16:39:26.011Z</time></trkpt><trkpt lat="43.9269164" lon="10.6683595"><ele>674.3333333333333</ele><time>2026-04-29T16:39:28.032Z</time></trkpt><trkpt lat="43.9269582" lon="10.668281"><ele>677.1666666666666</ele><time>2026-04-29T16:39:34.015Z</time></trkpt><trkpt lat="43.9269629" lon="10.6681395"><ele>680.0</ele><time>2026-04-29T16:39:36.015Z</time></trkpt><trkpt lat="43.9269937" lon="10.6680126"><ele>680.0</ele><time>2026-04-29T16:39:36.99Z</time></trkpt><trkpt lat="43.9269845" lon="10.6678658"><ele>680.0</ele><time>2026-04-29T16:39:39.017Z</time></trkpt><trkpt lat="43.9269245" lon="10.6676626"><ele>680.0</ele><time>2026-04-29T16:39:41.014Z</time></trkpt><trkpt lat="43.9268779" lon="10.6675707"><ele>680.0</ele><time>2026-04-29T16:39:42.006Z</time></trkpt><trkpt lat="43.9268115" lon="10.6674941"><ele>680.0</ele><time>2026-04-29T16:39:43.006Z</time></trkpt><trkpt lat="43.9267489" lon="10.6674324"><ele>681.8</ele><time>2026-04-29T16:39:44.012Z</time></trkpt><trkpt lat="43.9266926" lon="10.6673908"><ele>683.6</ele><time>2026-04-29T16:39:45.004Z</time></trkpt><trkpt lat="43.9266049" lon="10.6672982"><ele>685.4000000000001</ele><time>2026-04-29T16:39:47.008Z</time></trkpt><trkpt lat="43.9266683" lon="10.6672139"><ele>687.2</ele><time>2026-04-29T16:39:50.001Z</time></trkpt><trkpt lat="43.9267958" lon="10.667191"><ele>689.0</ele><time>2026-04-29T16:39:52.018Z</time></trkpt><trkpt lat="43.9268652" lon="10.6671867"><ele>689.0</ele><time>2026-04-29T16:39:53.012Z</time></trkpt><trkpt lat="43.926931" lon="10.6671795"><ele>689.0</ele><time>2026-04-29T16:39:54.008Z</time></trkpt><trkpt lat="43.9269985" lon="10.6671803"><ele>689.0</ele><time>2026-04-29T16:39:55.023Z</time></trkpt><trkpt lat="43.9270767" lon="10.6672011"><ele>689.0</ele><time>2026-04-29T16:39:56.023Z</time></trkpt><trkpt lat="43.9271488" lon="10.6672313"><ele>689.0</ele><time>2026-04-29T16:39:57.007Z</time></trkpt><trkpt lat="43.9272485" lon="10.6672806"><ele>689.0</ele><time>2026-04-29T16:39:59.012Z</time></trkpt><trkpt lat="43.9273363" lon="10.6673243"><ele>689.0</ele><time>2026-04-29T16:40:01.019Z</time></trkpt><trkpt lat="43.9274448" lon="10.6673416"><ele>689.0</ele><time>2026-04-29T16:40:03.015Z</time></trkpt><trkpt lat="43.9275449" lon="10.6673733"><ele>689.0</ele><time>2026-04-29T16:40:04.994Z</time></trkpt><trkpt lat="43.9275976" lon="10.6674607"><ele>689.0</ele><time>2026-04-29T16:40:07.024Z</time></trkpt><trkpt lat="43.9275618" lon="10.66762"><ele>689.0</ele><time>2026-04-29T16:40:09.017Z</time></trkpt><trkpt lat="43.9275513" lon="10.6677758"><ele>690.5</ele><time>2026-04-29T16:40:11.021Z</time></trkpt><trkpt lat="43.9276183" lon="10.6679131"><ele>692.0</ele><time>2026-04-29T16:40:13.015Z</time></trkpt><trkpt lat="43.9276666" lon="10.6679759"><ele>693.5</ele><time>2026-04-29T16:40:14.016Z</time></trkpt><trkpt lat="43.9277283" lon="10.6680383"><ele>695.0</ele><time>2026-04-29T16:40:15.024Z</time></trkpt><trkpt lat="43.9278022" lon="10.6681057"><ele>696.5</ele><time>2026-04-29T16:40:16.021Z</time></trkpt><trkpt lat="43.9278752" lon="10.6681811"><ele>698.0</ele><time>2026-04-29T16:40:17.018Z</time></trkpt><trkpt lat="43.9279472" lon="10.668254"><ele>698.0</ele><time>2026-04-29T16:40:18.029Z</time></trkpt><trkpt lat="43.928018" lon="10.6683232"><ele>698.0</ele><time>2026-04-29T16:40:19.021Z</time></trkpt><trkpt lat="43.9280868" lon="10.6683853"><ele>698.0</ele><time>2026-04-29T16:40:20.004Z</time></trkpt><trkpt lat="43.9281823" lon="10.6684408"><ele>698.0</ele><time>2026-04-29T16:40:22.013Z</time></trkpt><trkpt lat="43.9282535" lon="10.6684051"><ele>698.0</ele><time>2026-04-29T16:40:24.042Z</time></trkpt><trkpt lat="43.9283182" lon="10.6683627"><ele>698.0</ele><time>2026-04-29T16:40:25.017Z</time></trkpt><trkpt lat="43.9283904" lon="10.6683033"><ele>697.8</ele><time>2026-04-29T16:40:26.022Z</time></trkpt><trkpt lat="43.9284671" lon="10.6682406"><ele>697.5999999999999</ele><time>2026-04-29T16:40:26.994Z</time></trkpt><trkpt lat="43.928567" lon="10.6681662"><ele>697.4000000000001</ele><time>2026-04-29T16:40:28.019Z</time></trkpt><trkpt lat="43.92865" lon="10.6680975"><ele>697.2</ele><time>2026-04-29T16:40:29.015Z</time></trkpt><trkpt lat="43.9287334" lon="10.6680243"><ele>697.0</ele><time>2026-04-29T16:40:30.032Z</time></trkpt><trkpt lat="43.9288142" lon="10.6679225"><ele>697.0</ele><time>2026-04-29T16:40:31.024Z</time></trkpt><trkpt lat="43.9288899" lon="10.6678012"><ele>697.0</ele><time>2026-04-29T16:40:32.016Z</time></trkpt><trkpt lat="43.9289527" lon="10.6676875"><ele>697.0</ele><time>2026-04-29T16:40:32.992Z</time></trkpt><trkpt lat="43.9290067" lon="10.667572"><ele>697.0</ele><time>2026-04-29T16:40:33.995Z</time></trkpt><trkpt lat="43.929051" lon="10.667439"><ele>697.0</ele><time>2026-04-29T16:40:35.017Z</time></trkpt><trkpt lat="43.9290796" lon="10.6673218"><ele>699.0</ele><time>2026-04-29T16:40:36.018Z</time></trkpt><trkpt lat="43.9291185" lon="10.6672324"><ele>701.0</ele><time>2026-04-29T16:40:37.018Z</time></trkpt><trkpt lat="43.9291695" lon="10.6671572"><ele>703.0</ele><time>2026-04-29T16:40:38.017Z</time></trkpt><trkpt lat="43.9292187" lon="10.6670907"><ele>705.0</ele><time>2026-04-29T16:40:39.018Z</time></trkpt><trkpt lat="43.9292754" lon="10.6670458"><ele>707.0</ele><time>2026-04-29T16:40:40.015Z</time></trkpt><trkpt lat="43.9293444" lon="10.6670424"><ele>709.0</ele><time>2026-04-29T16:40:40.997Z</time></trkpt><trkpt lat="43.929438" lon="10.6670739"><ele>711.0</ele><time>2026-04-29T16:40:42.022Z</time></trkpt><trkpt lat="43.9295291" lon="10.6671121"><ele>711.1999999999999</ele><time>2026-04-29T16:40:43.01Z</time></trkpt><trkpt lat="43.9296109" lon="10.6671584"><ele>711.4</ele><time>2026-04-29T16:40:44.019Z</time></trkpt><trkpt lat="43.9296967" lon="10.6672126"><ele>711.6</ele><time>2026-04-29T16:40:45.009Z</time></trkpt><trkpt lat="43.9297874" lon="10.6672749"><ele>711.8</ele><time>2026-04-29T16:40:46.02Z</time></trkpt><trkpt lat="43.9298784" lon="10.6673382"><ele>712.0</ele><time>2026-04-29T16:40:47.015Z</time></trkpt><trkpt lat="43.9299703" lon="10.6674076"><ele>711.75</ele><time>2026-04-29T16:40:48.018Z</time></trkpt><trkpt lat="43.9300681" lon="10.6674876"><ele>711.5</ele><time>2026-04-29T16:40:49.023Z</time></trkpt><trkpt lat="43.9301645" lon="10.6675675"><ele>711.25</ele><time>2026-04-29T16:40:50.019Z</time></trkpt><trkpt lat="43.9302628" lon="10.6676562"><ele>711.0</ele><time>2026-04-29T16:40:51.008Z</time></trkpt><trkpt lat="43.9303626" lon="10.6677399"><ele>709.4</ele><time>2026-04-29T16:40:52.022Z</time></trkpt><trkpt lat="43.9304508" lon="10.66782"><ele>707.8</ele><time>2026-04-29T16:40:53.006Z</time></trkpt><trkpt lat="43.9305248" lon="10.6678922"><ele>706.1999999999999</ele><time>2026-04-29T16:40:54.019Z</time></trkpt><trkpt lat="43.9305943" lon="10.6679627"><ele>704.5999999999999</ele><time>2026-04-29T16:40:55.017Z</time></trkpt><trkpt lat="43.9306621" lon="10.6680376"><ele>703.0</ele><time>2026-04-29T16:40:56.019Z</time></trkpt><trkpt lat="43.930709" lon="10.6681438"><ele>703.0</ele><time>2026-04-29T16:40:57.008Z</time></trkpt><trkpt lat="43.9307427" lon="10.6682722"><ele>703.0</ele><time>2026-04-29T16:40:58.015Z</time></trkpt><trkpt lat="43.9307661" lon="10.6683957"><ele>703.0</ele><time>2026-04-29T16:40:59.015Z</time></trkpt><trkpt lat="43.9307864" lon="10.6684874"><ele>703.0</ele><time>2026-04-29T16:41:00.012Z</time></trkpt><trkpt lat="43.9308162" lon="10.6685761"><ele>703.0</ele><time>2026-04-29T16:41:01.008Z</time></trkpt><trkpt lat="43.9308679" lon="10.6686573"><ele>703.0</ele><time>2026-04-29T16:41:01.995Z</time></trkpt><trkpt lat="43.9309198" lon="10.6687309"><ele>701.6666666666667</ele><time>2026-04-29T16:41:03.017Z</time></trkpt><trkpt lat="43.9310227" lon="10.6687763"><ele>700.3333333333334</ele><time>2026-04-29T16:41:05.014Z</time></trkpt><trkpt lat="43.931118" lon="10.6687372"><ele>699.0</ele><time>2026-04-29T16:41:07.012Z</time></trkpt><trkpt lat="43.9311592" lon="10.6686698"><ele>697.6666666666666</ele><time>2026-04-29T16:41:08.025Z</time></trkpt><trkpt lat="43.9312045" lon="10.6685923"><ele>696.3333333333333</ele><time>2026-04-29T16:41:09.012Z</time></trkpt><trkpt lat="43.9312481" lon="10.6684953"><ele>695.0</ele><time>2026-04-29T16:41:10.024Z</time></trkpt><trkpt lat="43.9312789" lon="10.6683781"><ele>694.8</ele><time>2026-04-29T16:41:11.008Z</time></trkpt><trkpt lat="43.9312948" lon="10.6682572"><ele>694.6</ele><time>2026-04-29T16:41:12.022Z</time></trkpt><trkpt lat="43.9313143" lon="10.6681274"><ele>694.4000000000001</ele><time>2026-04-29T16:41:13.016Z</time></trkpt><trkpt lat="43.9313351" lon="10.667996"><ele>694.2</ele><time>2026-04-29T16:41:14.014Z</time></trkpt><trkpt lat="43.9313511" lon="10.6678706"><ele>694.0</ele><time>2026-04-29T16:41:15.002Z</time></trkpt><trkpt lat="43.9313806" lon="10.6677656"><ele>694.6</ele><time>2026-04-29T16:41:16.01Z</time></trkpt><trkpt lat="43.9314453" lon="10.6676565"><ele>695.2</ele><time>2026-04-29T16:41:17.027Z</time></trkpt><trkpt lat="43.9315215" lon="10.6675799"><ele>695.8000000000001</ele><time>2026-04-29T16:41:18.008Z</time></trkpt><trkpt lat="43.9315858" lon="10.6675154"><ele>696.4000000000001</ele><time>2026-04-29T16:41:19.027Z</time></trkpt><trkpt lat="43.9316581" lon="10.667419"><ele>697.0</ele><time>2026-04-29T16:41:21.022Z</time></trkpt><trkpt lat="43.9316966" lon="10.6672654"><ele>694.8</ele><time>2026-04-29T16:41:23.017Z</time></trkpt><trkpt lat="43.9318086" lon="10.6671864"><ele>692.6</ele><time>2026-04-29T16:41:25.015Z</time></trkpt><trkpt lat="43.9319109" lon="10.6671854"><ele>690.4</ele><time>2026-04-29T16:41:26.03Z</time></trkpt><trkpt lat="43.9320226" lon="10.6671873"><ele>688.1999999999999</ele><time>2026-04-29T16:41:27.025Z</time></trkpt><trkpt lat="43.9321307" lon="10.6671954"><ele>686.0</ele><time>2026-04-29T16:41:28.003Z</time></trkpt><trkpt lat="43.9322322" lon="10.6671974"><ele>686.0</ele><time>2026-04-29T16:41:29.021Z</time></trkpt><trkpt lat="43.9323159" lon="10.6671914"><ele>686.0</ele><time>2026-04-29T16:41:30.02Z</time></trkpt><trkpt lat="43.9324014" lon="10.6671563"><ele>686.0</ele><time>2026-04-29T16:41:31.005Z</time></trkpt><trkpt lat="43.9324877" lon="10.6671112"><ele>686.0</ele><time>2026-04-29T16:41:32.03Z</time></trkpt><trkpt lat="43.9325785" lon="10.6670605"><ele>686.0</ele><time>2026-04-29T16:41:33.016Z</time></trkpt><trkpt lat="43.9326675" lon="10.6670133"><ele>684.5</ele><time>2026-04-29T16:41:34.014Z</time></trkpt><trkpt lat="43.9327413" lon="10.6669649"><ele>683.0</ele><time>2026-04-29T16:41:35.019Z</time></trkpt><trkpt lat="43.9328041" lon="10.6669188"><ele>681.5</ele><time>2026-04-29T16:41:36.013Z</time></trkpt><trkpt lat="43.9328563" lon="10.6668629"><ele>680.0</ele><time>2026-04-29T16:41:37.018Z</time></trkpt><trkpt lat="43.9329263" lon="10.6667796"><ele>678.5</ele><time>2026-04-29T16:41:38.013Z</time></trkpt><trkpt lat="43.9330008" lon="10.6666743"><ele>677.0</ele><time>2026-04-29T16:41:39.027Z</time></trkpt><trkpt lat="43.9330618" lon="10.6665516"><ele>677.0</ele><time>2026-04-29T16:41:40.021Z</time></trkpt><trkpt lat="43.933114" lon="10.6664295"><ele>677.0</ele><time>2026-04-29T16:41:41.005Z</time></trkpt><trkpt lat="43.933164" lon="10.6663047"><ele>677.0</ele><time>2026-04-29T16:41:42.012Z</time></trkpt><trkpt lat="43.9332131" lon="10.6661903"><ele>677.0</ele><time>2026-04-29T16:41:43.016Z</time></trkpt><trkpt lat="43.933258" lon="10.6660772"><ele>677.0</ele><time>2026-04-29T16:41:44.021Z</time></trkpt><trkpt lat="43.9333031" lon="10.6659642"><ele>677.3333333333333</ele><time>2026-04-29T16:41:45.033Z</time></trkpt><trkpt lat="43.9333451" lon="10.6658576"><ele>677.6666666666666</ele><time>2026-04-29T16:41:46.026Z</time></trkpt><trkpt lat="43.9333781" lon="10.6657596"><ele>678.0</ele><time>2026-04-29T16:41:47.011Z</time></trkpt><trkpt lat="43.9334234" lon="10.6656634"><ele>678.3333333333334</ele><time>2026-04-29T16:41:48.028Z</time></trkpt><trkpt lat="43.9334683" lon="10.6655674"><ele>678.6666666666667</ele><time>2026-04-29T16:41:49.018Z</time></trkpt><trkpt lat="43.9335163" lon="10.6654803"><ele>679.0</ele><time>2026-04-29T16:41:50.019Z</time></trkpt><trkpt lat="43.9335695" lon="10.6654069"><ele>679.0</ele><time>2026-04-29T16:41:51.025Z</time></trkpt><trkpt lat="43.9336201" lon="10.6653442"><ele>679.0</ele><time>2026-04-29T16:41:52.031Z</time></trkpt><trkpt lat="43.9337366" lon="10.6652848"><ele>679.0</ele><time>2026-04-29T16:41:54.028Z</time></trkpt><trkpt lat="43.93382" lon="10.6652885"><ele>679.0</ele><time>2026-04-29T16:41:55.027Z</time></trkpt><trkpt lat="43.9339085" lon="10.6653327"><ele>679.0</ele><time>2026-04-29T16:41:56.024Z</time></trkpt><trkpt lat="43.9339978" lon="10.6654142"><ele>679.0</ele><time>2026-04-29T16:41:57.022Z</time></trkpt><trkpt lat="43.9341024" lon="10.6655432"><ele>679.0</ele><time>2026-04-29T16:41:58.017Z</time></trkpt><trkpt lat="43.9341965" lon="10.6656879"><ele>679.0</ele><time>2026-04-29T16:41:59.011Z</time></trkpt><trkpt lat="43.934292" lon="10.6658519"><ele>679.0</ele><time>2026-04-29T16:42:00.018Z</time></trkpt><trkpt lat="43.9343571" lon="10.6659896"><ele>680.6</ele><time>2026-04-29T16:42:01.017Z</time></trkpt><trkpt lat="43.934414" lon="10.6660942"><ele>682.2</ele><time>2026-04-29T16:42:02.027Z</time></trkpt><trkpt lat="43.934466" lon="10.6661643"><ele>683.8000000000001</ele><time>2026-04-29T16:42:03.025Z</time></trkpt><trkpt lat="43.9345756" lon="10.6661962"><ele>685.4000000000001</ele><time>2026-04-29T16:42:05.028Z</time></trkpt><trkpt lat="43.9347" lon="10.666118"><ele>687.0</ele><time>2026-04-29T16:42:07.011Z</time></trkpt><trkpt lat="43.9347798" lon="10.666069"><ele>687.0</ele><time>2026-04-29T16:42:08.018Z</time></trkpt><trkpt lat="43.9348623" lon="10.6660371"><ele>687.0</ele><time>2026-04-29T16:42:09.02Z</time></trkpt><trkpt lat="43.9349462" lon="10.6660279"><ele>687.0</ele><time>2026-04-29T16:42:10.029Z</time></trkpt><trkpt lat="43.9350263" lon="10.6660424"><ele>687.0</ele><time>2026-04-29T16:42:11.026Z</time></trkpt><trkpt lat="43.9351053" lon="10.6660627"><ele>687.0</ele><time>2026-04-29T16:42:12.03Z</time></trkpt><trkpt lat="43.9351883" lon="10.6660696"><ele>687.0</ele><time>2026-04-29T16:42:13.025Z</time></trkpt><trkpt lat="43.9352762" lon="10.6660732"><ele>687.1666666666666</ele><time>2026-04-29T16:42:14.016Z</time></trkpt><trkpt lat="43.9353598" lon="10.6660655"><ele>687.3333333333334</ele><time>2026-04-29T16:42:15.016Z</time></trkpt><trkpt lat="43.9354322" lon="10.6660676"><ele>687.5</ele><time>2026-04-29T16:42:16.01Z</time></trkpt><trkpt lat="43.9355112" lon="10.6660999"><ele>687.6666666666667</ele><time>2026-04-29T16:42:17.019Z</time></trkpt><trkpt lat="43.9355858" lon="10.6661621"><ele>687.8333333333334</ele><time>2026-04-29T16:42:18.025Z</time></trkpt><trkpt lat="43.9356525" lon="10.666253"><ele>688.0</ele><time>2026-04-29T16:42:19.017Z</time></trkpt><trkpt lat="43.9356983" lon="10.6663662"><ele>685.1666666666667</ele><time>2026-04-29T16:42:20.051Z</time></trkpt><trkpt lat="43.9357457" lon="10.6664648"><ele>682.3333333333334</ele><time>2026-04-29T16:42:21.014Z</time></trkpt><trkpt lat="43.9357846" lon="10.6665565"><ele>679.5</ele><time>2026-04-29T16:42:22.015Z</time></trkpt><trkpt lat="43.9358782" lon="10.6665914"><ele>676.6666666666666</ele><time>2026-04-29T16:42:24.038Z</time></trkpt><trkpt lat="43.9359344" lon="10.6665485"><ele>673.8333333333333</ele><time>2026-04-29T16:42:25.011Z</time></trkpt><trkpt lat="43.9360054" lon="10.6664452"><ele>671.0</ele><time>2026-04-29T16:42:26.028Z</time></trkpt><trkpt lat="43.9360845" lon="10.6663021"><ele>669.8</ele><time>2026-04-29T16:42:27.023Z</time></trkpt><trkpt lat="43.9361554" lon="10.6661589"><ele>668.5999999999999</ele><time>2026-04-29T16:42:28.021Z</time></trkpt><trkpt lat="43.9362155" lon="10.6660319"><ele>667.4</ele><time>2026-04-29T16:42:29.015Z</time></trkpt><trkpt lat="43.9362768" lon="10.6659293"><ele>666.2</ele><time>2026-04-29T16:42:30.025Z</time></trkpt><trkpt lat="43.9363434" lon="10.665857"><ele>665.0</ele><time>2026-04-29T16:42:31.027Z</time></trkpt><trkpt lat="43.9364201" lon="10.6657881"><ele>667.6</ele><time>2026-04-29T16:42:32.033Z</time></trkpt><trkpt lat="43.9365032" lon="10.6657358"><ele>670.2</ele><time>2026-04-29T16:42:33.026Z</time></trkpt><trkpt lat="43.9365838" lon="10.6656963"><ele>672.8</ele><time>2026-04-29T16:42:34.034Z</time></trkpt><trkpt lat="43.9366721" lon="10.665672"><ele>675.4</ele><time>2026-04-29T16:42:35.015Z</time></trkpt><trkpt lat="43.9367674" lon="10.6656578"><ele>678.0</ele><time>2026-04-29T16:42:36.019Z</time></trkpt><trkpt lat="43.9368651" lon="10.6656529"><ele>678.8</ele><time>2026-04-29T16:42:37.019Z</time></trkpt><trkpt lat="43.9369569" lon="10.6656643"><ele>679.5999999999999</ele><time>2026-04-29T16:42:38.023Z</time></trkpt><trkpt lat="43.937043" lon="10.6656878"><ele>680.4000000000001</ele><time>2026-04-29T16:42:39.014Z</time></trkpt><trkpt lat="43.9371342" lon="10.6657394"><ele>681.2</ele><time>2026-04-29T16:42:40.016Z</time></trkpt><trkpt lat="43.9372281" lon="10.6658021"><ele>682.0</ele><time>2026-04-29T16:42:41.017Z</time></trkpt><trkpt lat="43.9372999" lon="10.6658487"><ele>682.0</ele><time>2026-04-29T16:42:42.02Z</time></trkpt><trkpt lat="43.9373736" lon="10.6658616"><ele>682.0</ele><time>2026-04-29T16:42:43.04Z</time></trkpt><trkpt lat="43.9374354" lon="10.6658412"><ele>682.0</ele><time>2026-04-29T16:42:44.005Z</time></trkpt><trkpt lat="43.9374981" lon="10.6657983"><ele>682.0</ele><time>2026-04-29T16:42:45.005Z</time></trkpt><trkpt lat="43.9375676" lon="10.6657601"><ele>682.0</ele><time>2026-04-29T16:42:46.004Z</time></trkpt><trkpt lat="43.9376494" lon="10.6657261"><ele>682.0</ele><time>2026-04-29T16:42:47.01Z</time></trkpt><trkpt lat="43.9377338" lon="10.6657117"><ele>681.5</ele><time>2026-04-29T16:42:48.026Z</time></trkpt><trkpt lat="43.9378126" lon="10.6657337"><ele>681.0</ele><time>2026-04-29T16:42:49Z</time></trkpt><trkpt lat="43.9378759" lon="10.6657996"><ele>680.5</ele><time>2026-04-29T16:42:50.028Z</time></trkpt><trkpt lat="43.9379224" lon="10.6658926"><ele>680.0</ele><time>2026-04-29T16:42:51.023Z</time></trkpt><trkpt lat="43.9379693" lon="10.6659673"><ele>679.5</ele><time>2026-04-29T16:42:52.018Z</time></trkpt><trkpt lat="43.9380191" lon="10.6660326"><ele>679.0</ele><time>2026-04-29T16:42:53.019Z</time></trkpt><trkpt lat="43.9381245" lon="10.6660959"><ele>679.0</ele><time>2026-04-29T16:42:55.017Z</time></trkpt><trkpt lat="43.938205" lon="10.6660954"><ele>679.0</ele><time>2026-04-29T16:42:56.012Z</time></trkpt><trkpt lat="43.9382798" lon="10.6660963"><ele>679.0</ele><time>2026-04-29T16:42:57.008Z</time></trkpt><trkpt lat="43.9383608" lon="10.6661232"><ele>679.0</ele><time>2026-04-29T16:42:58.012Z</time></trkpt><trkpt lat="43.9384358" lon="10.6661885"><ele>679.0</ele><time>2026-04-29T16:42:59.017Z</time></trkpt><trkpt lat="43.9385107" lon="10.6662644"><ele>679.0</ele><time>2026-04-29T16:43:00.026Z</time></trkpt><trkpt lat="43.9385859" lon="10.6663365"><ele>676.5</ele><time>2026-04-29T16:43:01.015Z</time></trkpt><trkpt lat="43.938663" lon="10.6664081"><ele>674.0</ele><time>2026-04-29T16:43:02.019Z</time></trkpt><trkpt lat="43.9387393" lon="10.6664741"><ele>671.5</ele><time>2026-04-29T16:43:03.028Z</time></trkpt><trkpt lat="43.938808" lon="10.6665599"><ele>669.0</ele><time>2026-04-29T16:43:04.027Z</time></trkpt><trkpt lat="43.9388676" lon="10.666653"><ele>666.5</ele><time>2026-04-29T16:43:05.022Z</time></trkpt><trkpt lat="43.9389182" lon="10.6667429"><ele>664.0</ele><time>2026-04-29T16:43:06.018Z</time></trkpt><trkpt lat="43.9389567" lon="10.6668395"><ele>664.0</ele><time>2026-04-29T16:43:07.026Z</time></trkpt><trkpt lat="43.9389987" lon="10.6669409"><ele>664.0</ele><time>2026-04-29T16:43:08.009Z</time></trkpt><trkpt lat="43.9390421" lon="10.6670365"><ele>664.0</ele><time>2026-04-29T16:43:09.004Z</time></trkpt><trkpt lat="43.9390991" lon="10.667129"><ele>664.0</ele><time>2026-04-29T16:43:10.016Z</time></trkpt><trkpt lat="43.9391673" lon="10.6672019"><ele>664.0</ele><time>2026-04-29T16:43:11.018Z</time></trkpt><trkpt lat="43.9392296" lon="10.6672489"><ele>664.0</ele><time>2026-04-29T16:43:12.017Z</time></trkpt><trkpt lat="43.9392979" lon="10.6672832"><ele>664.6</ele><time>2026-04-29T16:43:13.023Z</time></trkpt><trkpt lat="43.9393671" lon="10.6672903"><ele>665.2</ele><time>2026-04-29T16:43:14.014Z</time></trkpt><trkpt lat="43.939451" lon="10.6672625"><ele>665.8000000000001</ele><time>2026-04-29T16:43:15.015Z</time></trkpt><trkpt lat="43.9395424" lon="10.6672107"><ele>666.4000000000001</ele><time>2026-04-29T16:43:16.013Z</time></trkpt><trkpt lat="43.9396323" lon="10.6671316"><ele>667.0</ele><time>2026-04-29T16:43:17.031Z</time></trkpt><trkpt lat="43.9397149" lon="10.6670458"><ele>667.0</ele><time>2026-04-29T16:43:18.019Z</time></trkpt><trkpt lat="43.9397871" lon="10.6669699"><ele>667.0</ele><time>2026-04-29T16:43:19.021Z</time></trkpt><trkpt lat="43.93985" lon="10.6669275"><ele>667.0</ele><time>2026-04-29T16:43:20.026Z</time></trkpt><trkpt lat="43.939926" lon="10.6669103"><ele>667.0</ele><time>2026-04-29T16:43:21.015Z</time></trkpt><trkpt lat="43.9400151" lon="10.6669285"><ele>667.0</ele><time>2026-04-29T16:43:22.024Z</time></trkpt><trkpt lat="43.9401179" lon="10.6669644"><ele>667.0</ele><time>2026-04-29T16:43:23.019Z</time></trkpt><trkpt lat="43.9402209" lon="10.6669947"><ele>663.8</ele><time>2026-04-29T16:43:24.031Z</time></trkpt><trkpt lat="43.9403221" lon="10.6670187"><ele>660.6</ele><time>2026-04-29T16:43:25.02Z</time></trkpt><trkpt lat="43.9404147" lon="10.6670546"><ele>657.4</ele><time>2026-04-29T16:43:26.015Z</time></trkpt><trkpt lat="43.9405027" lon="10.6671119"><ele>654.1999999999999</ele><time>2026-04-29T16:43:27.017Z</time></trkpt><trkpt lat="43.9405875" lon="10.6671928"><ele>651.0</ele><time>2026-04-29T16:43:28.03Z</time></trkpt><trkpt lat="43.94066" lon="10.6672909"><ele>651.0</ele><time>2026-04-29T16:43:29.016Z</time></trkpt><trkpt lat="43.940724" lon="10.6673791"><ele>651.0</ele><time>2026-04-29T16:43:30.024Z</time></trkpt><trkpt lat="43.9407887" lon="10.6674551"><ele>651.0</ele><time>2026-04-29T16:43:31.017Z</time></trkpt><trkpt lat="43.9408597" lon="10.667525"><ele>651.0</ele><time>2026-04-29T16:43:32.019Z</time></trkpt><trkpt lat="43.9409305" lon="10.6675922"><ele>651.0</ele><time>2026-04-29T16:43:33.01Z</time></trkpt><trkpt lat="43.9409837" lon="10.667673"><ele>651.0</ele><time>2026-04-29T16:43:34.02Z</time></trkpt><trkpt lat="43.9410307" lon="10.6677615"><ele>648.1666666666666</ele><time>2026-04-29T16:43:35.011Z</time></trkpt><trkpt lat="43.9410835" lon="10.6678489"><ele>645.3333333333334</ele><time>2026-04-29T16:43:36.014Z</time></trkpt><trkpt lat="43.9411301" lon="10.6679408"><ele>642.5</ele><time>2026-04-29T16:43:37.036Z</time></trkpt><trkpt lat="43.9411671" lon="10.6680377"><ele>639.6666666666667</ele><time>2026-04-29T16:43:38.017Z</time></trkpt><trkpt lat="43.9411933" lon="10.668137"><ele>636.8333333333334</ele><time>2026-04-29T16:43:39.018Z</time></trkpt><trkpt lat="43.941215" lon="10.6682325"><ele>634.0</ele><time>2026-04-29T16:43:40.017Z</time></trkpt><trkpt lat="43.9412381" lon="10.6683275"><ele>634.0</ele><time>2026-04-29T16:43:41.021Z</time></trkpt><trkpt lat="43.9412913" lon="10.6684441"><ele>634.0</ele><time>2026-04-29T16:43:43.019Z</time></trkpt><trkpt lat="43.9413596" lon="10.6684709"><ele>634.0</ele><time>2026-04-29T16:43:45.022Z</time></trkpt><trkpt lat="43.9414496" lon="10.6683683"><ele>634.0</ele><time>2026-04-29T16:43:47.028Z</time></trkpt><trkpt lat="43.9414939" lon="10.6683015"><ele>634.0</ele><time>2026-04-29T16:43:48.013Z</time></trkpt><trkpt lat="43.941537" lon="10.6682295"><ele>634.0</ele><time>2026-04-29T16:43:49.029Z</time></trkpt><trkpt lat="43.941588" lon="10.6681487"><ele>634.0</ele><time>2026-04-29T16:43:50.019Z</time></trkpt><trkpt lat="43.9416369" lon="10.6680782"><ele>634.0</ele><time>2026-04-29T16:43:51.021Z</time></trkpt><trkpt lat="43.9417066" lon="10.6679471"><ele>634.0</ele><time>2026-04-29T16:43:53.025Z</time></trkpt><trkpt lat="43.94175" lon="10.6677906"><ele>634.0</ele><time>2026-04-29T16:43:55.021Z</time></trkpt><trkpt lat="43.941748" lon="10.6677026"><ele>634.0</ele><time>2026-04-29T16:43:56.025Z</time></trkpt><trkpt lat="43.9417283" lon="10.6676146"><ele>634.0</ele><time>2026-04-29T16:43:57.016Z</time></trkpt><trkpt lat="43.9417079" lon="10.6675244"><ele>634.0</ele><time>2026-04-29T16:43:58.029Z</time></trkpt><trkpt lat="43.9416812" lon="10.6674385"><ele>634.0</ele><time>2026-04-29T16:43:59.015Z</time></trkpt><trkpt lat="43.9416862" lon="10.6673017"><ele>634.0</ele><time>2026-04-29T16:44:01.02Z</time></trkpt><trkpt lat="43.941786" lon="10.667292"><ele>634.0</ele><time>2026-04-29T16:44:03.015Z</time></trkpt><trkpt lat="43.9418493" lon="10.667334"><ele>634.0</ele><time>2026-04-29T16:44:04.016Z</time></trkpt><trkpt lat="43.9419132" lon="10.6673887"><ele>634.0</ele><time>2026-04-29T16:44:05.021Z</time></trkpt><trkpt lat="43.9419713" lon="10.6674575"><ele>632.25</ele><time>2026-04-29T16:44:06.021Z</time></trkpt><trkpt lat="43.9420183" lon="10.6675559"><ele>630.5</ele><time>2026-04-29T16:44:07.015Z</time></trkpt><trkpt lat="43.9420791" lon="10.6677083"><ele>628.75</ele><time>2026-04-29T16:44:07.991Z</time></trkpt><trkpt lat="43.9421301" lon="10.6678579"><ele>627.0</ele><time>2026-04-29T16:44:09.01Z</time></trkpt><trkpt lat="43.9421976" lon="10.668001"><ele>627.0</ele><time>2026-04-29T16:44:10.024Z</time></trkpt><trkpt lat="43.9422555" lon="10.6681458"><ele>627.0</ele><time>2026-04-29T16:44:11.018Z</time></trkpt><trkpt lat="43.9423119" lon="10.6682771"><ele>627.0</ele><time>2026-04-29T16:44:12.024Z</time></trkpt><trkpt lat="43.9423612" lon="10.6683901"><ele>627.0</ele><time>2026-04-29T16:44:13.009Z</time></trkpt><trkpt lat="43.9424233" lon="10.6684922"><ele>627.0</ele><time>2026-04-29T16:44:14.031Z</time></trkpt><trkpt lat="43.9425134" lon="10.6685998"><ele>625.4</ele><time>2026-04-29T16:44:15.017Z</time></trkpt><trkpt lat="43.942615" lon="10.6686984"><ele>623.8000000000001</ele><time>2026-04-29T16:44:16.017Z</time></trkpt><trkpt lat="43.9426991" lon="10.6687823"><ele>622.2</ele><time>2026-04-29T16:44:17.02Z</time></trkpt><trkpt lat="43.9427759" lon="10.6688432"><ele>620.6</ele><time>2026-04-29T16:44:18.021Z</time></trkpt><trkpt lat="43.9428487" lon="10.6688857"><ele>619.0</ele><time>2026-04-29T16:44:19.019Z</time></trkpt><trkpt lat="43.9429229" lon="10.6689275"><ele>619.0</ele><time>2026-04-29T16:44:20.011Z</time></trkpt><trkpt lat="43.9429884" lon="10.6689738"><ele>619.0</ele><time>2026-04-29T16:44:21.019Z</time></trkpt><trkpt lat="43.943053" lon="10.6690252"><ele>619.0</ele><time>2026-04-29T16:44:22.016Z</time></trkpt><trkpt lat="43.9431646" lon="10.6690769"><ele>619.0</ele><time>2026-04-29T16:44:24.018Z</time></trkpt><trkpt lat="43.9432335" lon="10.6690645"><ele>619.0</ele><time>2026-04-29T16:44:25.013Z</time></trkpt><trkpt lat="43.94331" lon="10.6690539"><ele>619.0</ele><time>2026-04-29T16:44:26.042Z</time></trkpt><trkpt lat="43.9433753" lon="10.6690649"><ele>616.4</ele><time>2026-04-29T16:44:27.012Z</time></trkpt><trkpt lat="43.9434779" lon="10.6691559"><ele>613.8</ele><time>2026-04-29T16:44:29.007Z</time></trkpt><trkpt lat="43.9435182" lon="10.6692232"><ele>611.2</ele><time>2026-04-29T16:44:30.018Z</time></trkpt><trkpt lat="43.9436279" lon="10.669299"><ele>608.6</ele><time>2026-04-29T16:44:32.002Z</time></trkpt><trkpt lat="43.943746" lon="10.6692318"><ele>606.0</ele><time>2026-04-29T16:44:34.016Z</time></trkpt><trkpt lat="43.943818" lon="10.6691536"><ele>606.0</ele><time>2026-04-29T16:44:35.021Z</time></trkpt><trkpt lat="43.9438866" lon="10.6690716"><ele>606.0</ele><time>2026-04-29T16:44:36.016Z</time></trkpt><trkpt lat="43.9439417" lon="10.6689907"><ele>606.0</ele><time>2026-04-29T16:44:37.033Z</time></trkpt><trkpt lat="43.9439899" lon="10.668917"><ele>606.0</ele><time>2026-04-29T16:44:38.021Z</time></trkpt><trkpt lat="43.9441027" lon="10.6688208"><ele>606.0</ele><time>2026-04-29T16:44:40.045Z</time></trkpt><trkpt lat="43.9441742" lon="10.668806"><ele>606.0</ele><time>2026-04-29T16:44:41.01Z</time></trkpt><trkpt lat="43.9442466" lon="10.6688057"><ele>605.5714285714286</ele><time>2026-04-29T16:44:42.014Z</time></trkpt><trkpt lat="43.9443128" lon="10.6688152"><ele>605.1428571428571</ele><time>2026-04-29T16:44:43.023Z</time></trkpt><trkpt lat="43.9443724" lon="10.6688474"><ele>604.7142857142858</ele><time>2026-04-29T16:44:44.029Z</time></trkpt><trkpt lat="43.944415" lon="10.6689233"><ele>604.2857142857142</ele><time>2026-04-29T16:44:45.011Z</time></trkpt><trkpt lat="43.944476" lon="10.6690462"><ele>603.8571428571428</ele><time>2026-04-29T16:44:47.033Z</time></trkpt><trkpt lat="43.9445308" lon="10.6691071"><ele>603.4285714285714</ele><time>2026-04-29T16:44:49.014Z</time></trkpt><trkpt lat="43.9446007" lon="10.6690988"><ele>603.0</ele><time>2026-04-29T16:44:51.019Z</time></trkpt><trkpt lat="43.9446612" lon="10.6690667"><ele>603.0</ele><time>2026-04-29T16:44:53.032Z</time></trkpt><trkpt lat="43.9447667" lon="10.6690483"><ele>603.0</ele><time>2026-04-29T16:44:55.025Z</time></trkpt><trkpt lat="43.9448394" lon="10.6690774"><ele>603.0</ele><time>2026-04-29T16:44:56.026Z</time></trkpt><trkpt lat="43.9449113" lon="10.6691269"><ele>603.0</ele><time>2026-04-29T16:44:57.019Z</time></trkpt><trkpt lat="43.9449826" lon="10.6692002"><ele>603.0</ele><time>2026-04-29T16:44:58.022Z</time></trkpt><trkpt lat="43.945061" lon="10.6692748"><ele>603.0</ele><time>2026-04-29T16:44:59.013Z</time></trkpt><trkpt lat="43.945126" lon="10.6693401"><ele>604.1666666666666</ele><time>2026-04-29T16:45:00.028Z</time></trkpt><trkpt lat="43.9451795" lon="10.6694029"><ele>605.3333333333334</ele><time>2026-04-29T16:45:01.013Z</time></trkpt><trkpt lat="43.9452346" lon="10.6694697"><ele>606.5</ele><time>2026-04-29T16:45:02.026Z</time></trkpt><trkpt lat="43.9453054" lon="10.6695317"><ele>607.6666666666667</ele><time>2026-04-29T16:45:03.017Z</time></trkpt><trkpt lat="43.945376" lon="10.6695838"><ele>608.8333333333334</ele><time>2026-04-29T16:45:04.032Z</time></trkpt><trkpt lat="43.9454459" lon="10.6696359"><ele>610.0</ele><time>2026-04-29T16:45:05.016Z</time></trkpt><trkpt lat="43.9455079" lon="10.6696918"><ele>607.5</ele><time>2026-04-29T16:45:06.015Z</time></trkpt><trkpt lat="43.9455789" lon="10.6697381"><ele>605.0</ele><time>2026-04-29T16:45:07.017Z</time></trkpt><trkpt lat="43.9456489" lon="10.6697655"><ele>602.5</ele><time>2026-04-29T16:45:08.016Z</time></trkpt><trkpt lat="43.9457213" lon="10.6697673"><ele>600.0</ele><time>2026-04-29T16:45:09.018Z</time></trkpt><trkpt lat="43.9458356" lon="10.6697203"><ele>597.5</ele><time>2026-04-29T16:45:11.028Z</time></trkpt><trkpt lat="43.9458893" lon="10.6696614"><ele>595.0</ele><time>2026-04-29T16:45:12.013Z</time></trkpt><trkpt lat="43.9459876" lon="10.6695643"><ele>594.6666666666667</ele><time>2026-04-29T16:45:14.032Z</time></trkpt><trkpt lat="43.9460518" lon="10.6695348"><ele>594.3333333333334</ele><time>2026-04-29T16:45:15.011Z</time></trkpt><trkpt lat="43.9461217" lon="10.6695119"><ele>594.0</ele><time>2026-04-29T16:45:16.015Z</time></trkpt><trkpt lat="43.9462027" lon="10.669496"><ele>593.6666666666666</ele><time>2026-04-29T16:45:17.017Z</time></trkpt><trkpt lat="43.9462898" lon="10.6694753"><ele>593.3333333333333</ele><time>2026-04-29T16:45:18.022Z</time></trkpt><trkpt lat="43.946383" lon="10.6694711"><ele>593.0</ele><time>2026-04-29T16:45:19.019Z</time></trkpt><trkpt lat="43.9464819" lon="10.6694682"><ele>593.0</ele><time>2026-04-29T16:45:20.029Z</time></trkpt><trkpt lat="43.9465736" lon="10.6694681"><ele>593.0</ele><time>2026-04-29T16:45:21.016Z</time></trkpt><trkpt lat="43.946657" lon="10.6694762"><ele>593.0</ele><time>2026-04-29T16:45:22.02Z</time></trkpt><trkpt lat="43.9467346" lon="10.6694922"><ele>593.0</ele><time>2026-04-29T16:45:23.005Z</time></trkpt><trkpt lat="43.9468343" lon="10.6695741"><ele>593.0</ele><time>2026-04-29T16:45:24.01Z</time></trkpt><trkpt lat="43.9469274" lon="10.6696771"><ele>593.3333333333333</ele><time>2026-04-29T16:45:25.011Z</time></trkpt><trkpt lat="43.9469877" lon="10.6697844"><ele>593.6666666666666</ele><time>2026-04-29T16:45:26.014Z</time></trkpt><trkpt lat="43.9470374" lon="10.6698574"><ele>594.0</ele><time>2026-04-29T16:45:27.009Z</time></trkpt><trkpt lat="43.9470976" lon="10.6699035"><ele>594.3333333333334</ele><time>2026-04-29T16:45:28.039Z</time></trkpt><trkpt lat="43.9471644" lon="10.6699169"><ele>594.6666666666667</ele><time>2026-04-29T16:45:29.018Z</time></trkpt><trkpt lat="43.9472351" lon="10.6699197"><ele>595.0</ele><time>2026-04-29T16:45:30.013Z</time></trkpt><trkpt lat="43.9473128" lon="10.6699179"><ele>595.0</ele><time>2026-04-29T16:45:31.039Z</time></trkpt><trkpt lat="43.9473923" lon="10.6698941"><ele>595.0</ele><time>2026-04-29T16:45:32.016Z</time></trkpt><trkpt lat="43.9474683" lon="10.6698636"><ele>595.0</ele><time>2026-04-29T16:45:33.037Z</time></trkpt><trkpt lat="43.9475516" lon="10.6698477"><ele>595.0</ele><time>2026-04-29T16:45:34.019Z</time></trkpt><trkpt lat="43.9476513" lon="10.6698588"><ele>595.0</ele><time>2026-04-29T16:45:35.004Z</time></trkpt><trkpt lat="43.9477564" lon="10.6698823"><ele>594.8</ele><time>2026-04-29T16:45:36.017Z</time></trkpt><trkpt lat="43.9478606" lon="10.6699005"><ele>594.6</ele><time>2026-04-29T16:45:37.006Z</time></trkpt><trkpt lat="43.9479638" lon="10.669927"><ele>594.4</ele><time>2026-04-29T16:45:38.014Z</time></trkpt><trkpt lat="43.948068" lon="10.6699565"><ele>594.2</ele><time>2026-04-29T16:45:39.015Z</time></trkpt><trkpt lat="43.9481705" lon="10.669995"><ele>594.0</ele><time>2026-04-29T16:45:40.019Z</time></trkpt><trkpt lat="43.9482739" lon="10.6700392"><ele>594.0</ele><time>2026-04-29T16:45:41.013Z</time></trkpt><trkpt lat="43.9483649" lon="10.6700748"><ele>594.0</ele><time>2026-04-29T16:45:42.016Z</time></trkpt><trkpt lat="43.9484568" lon="10.6700845"><ele>594.0</ele><time>2026-04-29T16:45:43.006Z</time></trkpt><trkpt lat="43.9485379" lon="10.6700764"><ele>594.0</ele><time>2026-04-29T16:45:44.011Z</time></trkpt><trkpt lat="43.9486173" lon="10.670072"><ele>594.0</ele><time>2026-04-29T16:45:44.994Z</time></trkpt><trkpt lat="43.9486939" lon="10.670078"><ele>594.0</ele><time>2026-04-29T16:45:46.017Z</time></trkpt><trkpt lat="43.9487566" lon="10.6700918"><ele>596.2</ele><time>2026-04-29T16:45:47.013Z</time></trkpt><trkpt lat="43.948838" lon="10.6702083"><ele>598.4</ele><time>2026-04-29T16:45:49.008Z</time></trkpt><trkpt lat="43.9488888" lon="10.6703041"><ele>600.6</ele><time>2026-04-29T16:45:50.016Z</time></trkpt><trkpt lat="43.9489301" lon="10.6704081"><ele>602.8</ele><time>2026-04-29T16:45:51.015Z</time></trkpt><trkpt lat="43.9489575" lon="10.6705224"><ele>605.0</ele><time>2026-04-29T16:45:52.026Z</time></trkpt><trkpt lat="43.9489758" lon="10.6706424"><ele>605.0</ele><time>2026-04-29T16:45:53.002Z</time></trkpt><trkpt lat="43.9489879" lon="10.6707485"><ele>605.0</ele><time>2026-04-29T16:45:54.021Z</time></trkpt><trkpt lat="43.9490523" lon="10.6708845"><ele>605.0</ele><time>2026-04-29T16:45:56.012Z</time></trkpt><trkpt lat="43.9491108" lon="10.6709225"><ele>605.0</ele><time>2026-04-29T16:45:57.015Z</time></trkpt><trkpt lat="43.9492267" lon="10.6709552"><ele>605.0</ele><time>2026-04-29T16:45:59.025Z</time></trkpt><trkpt lat="43.9493146" lon="10.6710224"><ele>607.5</ele><time>2026-04-29T16:46:01.016Z</time></trkpt><trkpt lat="43.9493946" lon="10.6711413"><ele>610.0</ele><time>2026-04-29T16:46:03.01Z</time></trkpt><trkpt lat="43.9494339" lon="10.6712213"><ele>612.5</ele><time>2026-04-29T16:46:04.016Z</time></trkpt><trkpt lat="43.9494707" lon="10.671327"><ele>615.0</ele><time>2026-04-29T16:46:05.006Z</time></trkpt><trkpt lat="43.9495073" lon="10.6714399"><ele>617.5</ele><time>2026-04-29T16:46:06.03Z</time></trkpt><trkpt lat="43.9495383" lon="10.6715486"><ele>620.0</ele><time>2026-04-29T16:46:07.021Z</time></trkpt><trkpt lat="43.9495725" lon="10.6716689"><ele>620.0</ele><time>2026-04-29T16:46:08.019Z</time></trkpt><trkpt lat="43.949595" lon="10.6717776"><ele>620.0</ele><time>2026-04-29T16:46:09.02Z</time></trkpt><trkpt lat="43.9496097" lon="10.6718741"><ele>620.0</ele><time>2026-04-29T16:46:10.021Z</time></trkpt><trkpt lat="43.9496573" lon="10.6720214"><ele>620.0</ele><time>2026-04-29T16:46:12.019Z</time></trkpt><trkpt lat="43.9497272" lon="10.6720839"><ele>620.0</ele><time>2026-04-29T16:46:13.017Z</time></trkpt><trkpt lat="43.9498022" lon="10.6721677"><ele>620.0</ele><time>2026-04-29T16:46:14.027Z</time></trkpt><trkpt lat="43.9498718" lon="10.6722387"><ele>620.6666666666666</ele><time>2026-04-29T16:46:15Z</time></trkpt><trkpt lat="43.9499437" lon="10.67229"><ele>621.3333333333333</ele><time>2026-04-29T16:46:16.015Z</time></trkpt><trkpt lat="43.9500132" lon="10.6723168"><ele>622.0</ele><time>2026-04-29T16:46:17.012Z</time></trkpt><trkpt lat="43.9500761" lon="10.6723376"><ele>622.6666666666666</ele><time>2026-04-29T16:46:18.029Z</time></trkpt><trkpt lat="43.950156" lon="10.6723541"><ele>623.3333333333334</ele><time>2026-04-29T16:46:19.018Z</time></trkpt><trkpt lat="43.9502466" lon="10.6723735"><ele>624.0</ele><time>2026-04-29T16:46:20.012Z</time></trkpt><trkpt lat="43.9503361" lon="10.6723911"><ele>626.5</ele><time>2026-04-29T16:46:21.026Z</time></trkpt><trkpt lat="43.9504225" lon="10.672403"><ele>629.0</ele><time>2026-04-29T16:46:22.006Z</time></trkpt><trkpt lat="43.9504991" lon="10.6724145"><ele>631.5</ele><time>2026-04-29T16:46:23.019Z</time></trkpt><trkpt lat="43.9505798" lon="10.6724348"><ele>634.0</ele><time>2026-04-29T16:46:24.014Z</time></trkpt><trkpt lat="43.9506658" lon="10.6724532"><ele>636.5</ele><time>2026-04-29T16:46:25.02Z</time></trkpt><trkpt lat="43.9507501" lon="10.6724681"><ele>639.0</ele><time>2026-04-29T16:46:26.024Z</time></trkpt><trkpt lat="43.9508298" lon="10.6724801"><ele>639.6666666666666</ele><time>2026-04-29T16:46:27Z</time></trkpt><trkpt lat="43.9509183" lon="10.6724728"><ele>640.3333333333334</ele><time>2026-04-29T16:46:28.035Z</time></trkpt><trkpt lat="43.9510069" lon="10.672445"><ele>641.0</ele><time>2026-04-29T16:46:29.009Z</time></trkpt><trkpt lat="43.9510918" lon="10.6724186"><ele>641.6666666666667</ele><time>2026-04-29T16:46:30.031Z</time></trkpt><trkpt lat="43.9511779" lon="10.6723966"><ele>642.3333333333334</ele><time>2026-04-29T16:46:31.007Z</time></trkpt><trkpt lat="43.9512685" lon="10.672396"><ele>643.0</ele><time>2026-04-29T16:46:32.02Z</time></trkpt><trkpt lat="43.9513591" lon="10.672423"><ele>643.0</ele><time>2026-04-29T16:46:33.013Z</time></trkpt><trkpt lat="43.9514526" lon="10.6724771"><ele>643.0</ele><time>2026-04-29T16:46:34.009Z</time></trkpt><trkpt lat="43.9515543" lon="10.6725258"><ele>643.0</ele><time>2026-04-29T16:46:35.018Z</time></trkpt><trkpt lat="43.9516419" lon="10.6725593"><ele>643.0</ele><time>2026-04-29T16:46:36.012Z</time></trkpt><trkpt lat="43.9517299" lon="10.6725636"><ele>643.0</ele><time>2026-04-29T16:46:37.027Z</time></trkpt><trkpt lat="43.9518195" lon="10.6725623"><ele>645.0</ele><time>2026-04-29T16:46:38.005Z</time></trkpt><trkpt lat="43.951903" lon="10.672587"><ele>647.0</ele><time>2026-04-29T16:46:38.999Z</time></trkpt><trkpt lat="43.9519692" lon="10.6726307"><ele>649.0</ele><time>2026-04-29T16:46:40.012Z</time></trkpt><trkpt lat="43.952022" lon="10.672691"><ele>651.0</ele><time>2026-04-29T16:46:41.022Z</time></trkpt><trkpt lat="43.9520685" lon="10.6727671"><ele>653.0</ele><time>2026-04-29T16:46:42.023Z</time></trkpt><trkpt lat="43.9521009" lon="10.672852"><ele>655.0</ele><time>2026-04-29T16:46:43.007Z</time></trkpt><trkpt lat="43.9521409" lon="10.6729464"><ele>657.0</ele><time>2026-04-29T16:46:44.02Z</time></trkpt><trkpt lat="43.952201" lon="10.6730374"><ele>657.0</ele><time>2026-04-29T16:46:45.008Z</time></trkpt><trkpt lat="43.9522638" lon="10.6731376"><ele>657.0</ele><time>2026-04-29T16:46:46.018Z</time></trkpt><trkpt lat="43.9523188" lon="10.6732256"><ele>657.0</ele><time>2026-04-29T16:46:47.021Z</time></trkpt><trkpt lat="43.9523657" lon="10.6733085"><ele>657.0</ele><time>2026-04-29T16:46:48.014Z</time></trkpt><trkpt lat="43.9524829" lon="10.673395"><ele>657.0</ele><time>2026-04-29T16:46:50.011Z</time></trkpt><trkpt lat="43.952562" lon="10.6734151"><ele>658.1666666666666</ele><time>2026-04-29T16:46:51.028Z</time></trkpt><trkpt lat="43.9526407" lon="10.6734535"><ele>659.3333333333334</ele><time>2026-04-29T16:46:52.022Z</time></trkpt><trkpt lat="43.9527153" lon="10.6735103"><ele>660.5</ele><time>2026-04-29T16:46:53.019Z</time></trkpt><trkpt lat="43.9527743" lon="10.6735802"><ele>661.6666666666667</ele><time>2026-04-29T16:46:54.023Z</time></trkpt><trkpt lat="43.9528371" lon="10.6736616"><ele>662.8333333333334</ele><time>2026-04-29T16:46:55.022Z</time></trkpt><trkpt lat="43.9528936" lon="10.6737434"><ele>664.0</ele><time>2026-04-29T16:46:56.013Z</time></trkpt><trkpt lat="43.9529547" lon="10.6738074"><ele>664.0</ele><time>2026-04-29T16:46:57.024Z</time></trkpt><trkpt lat="43.9530235" lon="10.6738716"><ele>664.0</ele><time>2026-04-29T16:46:58.012Z</time></trkpt><trkpt lat="43.9531061" lon="10.6739253"><ele>664.0</ele><time>2026-04-29T16:46:59.019Z</time></trkpt><trkpt lat="43.9531907" lon="10.6739738"><ele>664.0</ele><time>2026-04-29T16:47:00.031Z</time></trkpt><trkpt lat="43.9532499" lon="10.6740307"><ele>664.0</ele><time>2026-04-29T16:47:01.019Z</time></trkpt><trkpt lat="43.9532944" lon="10.6742239"><ele>664.0</ele><time>2026-04-29T16:47:03.025Z</time></trkpt><trkpt lat="43.9533089" lon="10.6743772"><ele>664.0</ele><time>2026-04-29T16:47:04.026Z</time></trkpt><trkpt lat="43.9533316" lon="10.6745212"><ele>664.0</ele><time>2026-04-29T16:47:05.009Z</time></trkpt><trkpt lat="43.953348" lon="10.6746565"><ele>664.0</ele><time>2026-04-29T16:47:06.025Z</time></trkpt><trkpt lat="43.9533719" lon="10.6747809"><ele>664.0</ele><time>2026-04-29T16:47:07.015Z</time></trkpt><trkpt lat="43.9534233" lon="10.67489"><ele>664.6</ele><time>2026-04-29T16:47:08.025Z</time></trkpt><trkpt lat="43.9534943" lon="10.6749865"><ele>665.2</ele><time>2026-04-29T16:47:09.028Z</time></trkpt><trkpt lat="43.9535704" lon="10.6750827"><ele>665.8000000000001</ele><time>2026-04-29T16:47:10.015Z</time></trkpt><trkpt lat="43.9536491" lon="10.6751702"><ele>666.4000000000001</ele><time>2026-04-29T16:47:11.021Z</time></trkpt><trkpt lat="43.9537359" lon="10.6752525"><ele>667.0</ele><time>2026-04-29T16:47:12.033Z</time></trkpt><trkpt lat="43.9538329" lon="10.6753233"><ele>667.0</ele><time>2026-04-29T16:47:13.012Z</time></trkpt><trkpt lat="43.953935" lon="10.6753809"><ele>667.0</ele><time>2026-04-29T16:47:14.032Z</time></trkpt><trkpt lat="43.9540368" lon="10.6754481"><ele>667.0</ele><time>2026-04-29T16:47:15.021Z</time></trkpt><trkpt lat="43.9541483" lon="10.6754958"><ele>667.0</ele><time>2026-04-29T16:47:16.017Z</time></trkpt><trkpt lat="43.9542613" lon="10.6755308"><ele>666.6</ele><time>2026-04-29T16:47:17.023Z</time></trkpt><trkpt lat="43.9543711" lon="10.6755695"><ele>666.2</ele><time>2026-04-29T16:47:18.013Z</time></trkpt><trkpt lat="43.9544805" lon="10.6756026"><ele>665.8</ele><time>2026-04-29T16:47:19.028Z</time></trkpt><trkpt lat="43.9545768" lon="10.6756407"><ele>665.4</ele><time>2026-04-29T16:47:20.016Z</time></trkpt><trkpt lat="43.9546691" lon="10.6756657"><ele>665.0</ele><time>2026-04-29T16:47:21.02Z</time></trkpt><trkpt lat="43.9547509" lon="10.6756569"><ele>665.0</ele><time>2026-04-29T16:47:22.021Z</time></trkpt><trkpt lat="43.9548366" lon="10.6756308"><ele>665.0</ele><time>2026-04-29T16:47:23.003Z</time></trkpt><trkpt lat="43.9549306" lon="10.6755697"><ele>665.0</ele><time>2026-04-29T16:47:24.019Z</time></trkpt><trkpt lat="43.9550309" lon="10.6754872"><ele>665.0</ele><time>2026-04-29T16:47:25.013Z</time></trkpt><trkpt lat="43.955128" lon="10.6754007"><ele>665.0</ele><time>2026-04-29T16:47:26.025Z</time></trkpt><trkpt lat="43.9552196" lon="10.6753113"><ele>666.0</ele><time>2026-04-29T16:47:27.011Z</time></trkpt><trkpt lat="43.9552922" lon="10.6752248"><ele>667.0</ele><time>2026-04-29T16:47:28.028Z</time></trkpt><trkpt lat="43.9553645" lon="10.6751354"><ele>668.0</ele><time>2026-04-29T16:47:29.017Z</time></trkpt><trkpt lat="43.9554338" lon="10.6750465"><ele>669.0</ele><time>2026-04-29T16:47:30.016Z</time></trkpt><trkpt lat="43.9554994" lon="10.6749815"><ele>670.0</ele><time>2026-04-29T16:47:31.013Z</time></trkpt><trkpt lat="43.9556191" lon="10.6749574"><ele>670.0</ele><time>2026-04-29T16:47:33.01Z</time></trkpt><trkpt lat="43.9557031" lon="10.6750107"><ele>670.0</ele><time>2026-04-29T16:47:34.021Z</time></trkpt><trkpt lat="43.9558217" lon="10.6751003"><ele>670.0</ele><time>2026-04-29T16:47:35.031Z</time></trkpt><trkpt lat="43.9559494" lon="10.6752046"><ele>670.0</ele><time>2026-04-29T16:47:36.03Z</time></trkpt><trkpt lat="43.9560625" lon="10.6752833"><ele>668.3333333333334</ele><time>2026-04-29T16:47:37.014Z</time></trkpt><trkpt lat="43.9561415" lon="10.6753471"><ele>666.6666666666667</ele><time>2026-04-29T16:47:38.017Z</time></trkpt><trkpt lat="43.9562101" lon="10.6753861"><ele>665.0</ele><time>2026-04-29T16:47:39.013Z</time></trkpt><trkpt lat="43.9562779" lon="10.6754127"><ele>663.3333333333334</ele><time>2026-04-29T16:47:40.019Z</time></trkpt><trkpt lat="43.9563471" lon="10.6754272"><ele>661.6666666666666</ele><time>2026-04-29T16:47:41.02Z</time></trkpt><trkpt lat="43.9564302" lon="10.6754139"><ele>660.0</ele><time>2026-04-29T16:47:42.03Z</time></trkpt><trkpt lat="43.9565083" lon="10.6753873"><ele>660.0</ele><time>2026-04-29T16:47:43.037Z</time></trkpt><trkpt lat="43.9565975" lon="10.675365"><ele>660.0</ele><time>2026-04-29T16:47:44.021Z</time></trkpt><trkpt lat="43.9566956" lon="10.6753338"><ele>660.0</ele><time>2026-04-29T16:47:45.023Z</time></trkpt><trkpt lat="43.9567821" lon="10.675305"><ele>660.0</ele><time>2026-04-29T16:47:46.032Z</time></trkpt><trkpt lat="43.9568581" lon="10.6752878"><ele>660.0</ele><time>2026-04-29T16:47:47.009Z</time></trkpt><trkpt lat="43.956946" lon="10.6752876"><ele>660.0</ele><time>2026-04-29T16:47:48.018Z</time></trkpt><trkpt lat="43.957049" lon="10.6753276"><ele>662.0</ele><time>2026-04-29T16:47:49.021Z</time></trkpt><trkpt lat="43.95715" lon="10.6754014"><ele>664.0</ele><time>2026-04-29T16:47:50.023Z</time></trkpt><trkpt lat="43.9572453" lon="10.6754847"><ele>666.0</ele><time>2026-04-29T16:47:51.017Z</time></trkpt><trkpt lat="43.9573467" lon="10.6755701"><ele>668.0</ele><time>2026-04-29T16:47:52.026Z</time></trkpt><trkpt lat="43.9574487" lon="10.6756445"><ele>664.0</ele><time>2026-04-29T16:47:53.019Z</time></trkpt><trkpt lat="43.9575486" lon="10.6757156"><ele>660.0</ele><time>2026-04-29T16:47:54.023Z</time></trkpt><trkpt lat="43.9576489" lon="10.6758207"><ele>656.0</ele><time>2026-04-29T16:47:55.01Z</time></trkpt><trkpt lat="43.9577362" lon="10.6759466"><ele>652.0</ele><time>2026-04-29T16:47:56.031Z</time></trkpt><trkpt lat="43.9578086" lon="10.676068"><ele>656.4000000000001</ele><time>2026-04-29T16:47:57.017Z</time></trkpt><trkpt lat="43.9578647" lon="10.6761839"><ele>660.8000000000001</ele><time>2026-04-29T16:47:58.018Z</time></trkpt><trkpt lat="43.9579178" lon="10.6762907"><ele>665.2</ele><time>2026-04-29T16:47:59.01Z</time></trkpt><trkpt lat="43.9579725" lon="10.6763723"><ele>669.6</ele><time>2026-04-29T16:48:00.008Z</time></trkpt><trkpt lat="43.9580509" lon="10.6764232"><ele>674.0</ele><time>2026-04-29T16:48:01.022Z</time></trkpt><trkpt lat="43.9581416" lon="10.6764555"><ele>674.0</ele><time>2026-04-29T16:48:02.004Z</time></trkpt><trkpt lat="43.9582435" lon="10.6764694"><ele>674.0</ele><time>2026-04-29T16:48:03Z</time></trkpt><trkpt lat="43.9583493" lon="10.6764733"><ele>674.0</ele><time>2026-04-29T16:48:04.019Z</time></trkpt><trkpt lat="43.9584474" lon="10.6764665"><ele>674.0</ele><time>2026-04-29T16:48:05.009Z</time></trkpt><trkpt lat="43.9585384" lon="10.6764769"><ele>674.0</ele><time>2026-04-29T16:48:06.012Z</time></trkpt><trkpt lat="43.9586357" lon="10.6765063"><ele>674.8000000000001</ele><time>2026-04-29T16:48:07.019Z</time></trkpt><trkpt lat="43.9587252" lon="10.6765365"><ele>675.6</ele><time>2026-04-29T16:48:08.012Z</time></trkpt><trkpt lat="43.9588123" lon="10.6765471"><ele>676.4</ele><time>2026-04-29T16:48:09.015Z</time></trkpt><trkpt lat="43.9588965" lon="10.6765393"><ele>677.2</ele><time>2026-04-29T16:48:10.019Z</time></trkpt><trkpt lat="43.9589999" lon="10.6764943"><ele>678.0</ele><time>2026-04-29T16:48:11.004Z</time></trkpt><trkpt lat="43.9591121" lon="10.6764456"><ele>678.0</ele><time>2026-04-29T16:48:12.024Z</time></trkpt><trkpt lat="43.9591982" lon="10.6763925"><ele>678.0</ele><time>2026-04-29T16:48:13.013Z</time></trkpt><trkpt lat="43.9592614" lon="10.6763182"><ele>678.0</ele><time>2026-04-29T16:48:14.018Z</time></trkpt><trkpt lat="43.9593168" lon="10.6762144"><ele>678.0</ele><time>2026-04-29T16:48:15.019Z</time></trkpt><trkpt lat="43.9593801" lon="10.6760879"><ele>678.0</ele><time>2026-04-29T16:48:16.018Z</time></trkpt><trkpt lat="43.9594464" lon="10.6759488"><ele>676.4</ele><time>2026-04-29T16:48:17.029Z</time></trkpt><trkpt lat="43.9595096" lon="10.6758173"><ele>674.8</ele><time>2026-04-29T16:48:18.02Z</time></trkpt><trkpt lat="43.9595698" lon="10.6756912"><ele>673.2</ele><time>2026-04-29T16:48:19.027Z</time></trkpt><trkpt lat="43.9596259" lon="10.6755737"><ele>671.6</ele><time>2026-04-29T16:48:20.019Z</time></trkpt><trkpt lat="43.9596815" lon="10.6754779"><ele>670.0</ele><time>2026-04-29T16:48:21.022Z</time></trkpt><trkpt lat="43.9597779" lon="10.6754143"><ele>670.0</ele><time>2026-04-29T16:48:23.016Z</time></trkpt><trkpt lat="43.959842" lon="10.6754319"><ele>670.0</ele><time>2026-04-29T16:48:24.03Z</time></trkpt><trkpt lat="43.9599136" lon="10.6754618"><ele>670.0</ele><time>2026-04-29T16:48:25.001Z</time></trkpt><trkpt lat="43.9599965" lon="10.6754972"><ele>670.0</ele><time>2026-04-29T16:48:26.009Z</time></trkpt><trkpt lat="43.9600854" lon="10.6755442"><ele>670.0</ele><time>2026-04-29T16:48:27.023Z</time></trkpt><trkpt lat="43.9601761" lon="10.6756075"><ele>670.0</ele><time>2026-04-29T16:48:28.018Z</time></trkpt><trkpt lat="43.960267" lon="10.6756867"><ele>668.4</ele><time>2026-04-29T16:48:29.017Z</time></trkpt><trkpt lat="43.9603552" lon="10.6757786"><ele>666.8</ele><time>2026-04-29T16:48:30.013Z</time></trkpt><trkpt lat="43.9604337" lon="10.6758513"><ele>665.2</ele><time>2026-04-29T16:48:31.012Z</time></trkpt><trkpt lat="43.9605104" lon="10.6759128"><ele>663.6</ele><time>2026-04-29T16:48:32.007Z</time></trkpt><trkpt lat="43.9605838" lon="10.6759704"><ele>662.0</ele><time>2026-04-29T16:48:33.009Z</time></trkpt><trkpt lat="43.9606591" lon="10.6759985"><ele>662.0</ele><time>2026-04-29T16:48:34.016Z</time></trkpt><trkpt lat="43.9607382" lon="10.6760186"><ele>662.0</ele><time>2026-04-29T16:48:35.022Z</time></trkpt><trkpt lat="43.9608173" lon="10.6760367"><ele>662.0</ele><time>2026-04-29T16:48:36.015Z</time></trkpt><trkpt lat="43.9609038" lon="10.6760486"><ele>662.0</ele><time>2026-04-29T16:48:37Z</time></trkpt><trkpt lat="43.9610013" lon="10.6760415"><ele>662.0</ele><time>2026-04-29T16:48:38.017Z</time></trkpt><trkpt lat="43.961111" lon="10.6760084"><ele>662.75</ele><time>2026-04-29T16:48:39.024Z</time></trkpt><trkpt lat="43.9612348" lon="10.675951"><ele>663.5</ele><time>2026-04-29T16:48:40.025Z</time></trkpt><trkpt lat="43.9613588" lon="10.6759007"><ele>664.25</ele><time>2026-04-29T16:48:41.016Z</time></trkpt><trkpt lat="43.9614783" lon="10.6758531"><ele>665.0</ele><time>2026-04-29T16:48:42.02Z</time></trkpt><trkpt lat="43.9615852" lon="10.6758147"><ele>665.0</ele><time>2026-04-29T16:48:43.023Z</time></trkpt><trkpt lat="43.961686" lon="10.6757887"><ele>665.0</ele><time>2026-04-29T16:48:44.019Z</time></trkpt><trkpt lat="43.9617756" lon="10.6757733"><ele>665.0</ele><time>2026-04-29T16:48:45.022Z</time></trkpt><trkpt lat="43.9618639" lon="10.675717"><ele>665.0</ele><time>2026-04-29T16:48:46.032Z</time></trkpt><trkpt lat="43.9619488" lon="10.6756433"><ele>665.0</ele><time>2026-04-29T16:48:47.02Z</time></trkpt><trkpt lat="43.9620404" lon="10.6755495"><ele>664.5</ele><time>2026-04-29T16:48:48.03Z</time></trkpt><trkpt lat="43.9621361" lon="10.675449"><ele>664.0</ele><time>2026-04-29T16:48:49.019Z</time></trkpt><trkpt lat="43.9622297" lon="10.6753553"><ele>663.5</ele><time>2026-04-29T16:48:50.03Z</time></trkpt><trkpt lat="43.9623274" lon="10.6752716"><ele>663.0</ele><time>2026-04-29T16:48:51.029Z</time></trkpt><trkpt lat="43.9624325" lon="10.67522"><ele>664.8</ele><time>2026-04-29T16:48:52.028Z</time></trkpt><trkpt lat="43.9625454" lon="10.6751829"><ele>666.5999999999999</ele><time>2026-04-29T16:48:53.023Z</time></trkpt><trkpt lat="43.9626569" lon="10.6751387"><ele>668.4000000000001</ele><time>2026-04-29T16:48:54.021Z</time></trkpt><trkpt lat="43.9627578" lon="10.6750976"><ele>670.2</ele><time>2026-04-29T16:48:55.017Z</time></trkpt><trkpt lat="43.9628593" lon="10.6750356"><ele>672.0</ele><time>2026-04-29T16:48:56.014Z</time></trkpt><trkpt lat="43.9629627" lon="10.6749588"><ele>672.0</ele><time>2026-04-29T16:48:57.011Z</time></trkpt><trkpt lat="43.9630663" lon="10.6748691"><ele>672.0</ele><time>2026-04-29T16:48:58.014Z</time></trkpt><trkpt lat="43.9631667" lon="10.6747867"><ele>672.0</ele><time>2026-04-29T16:48:59.019Z</time></trkpt><trkpt lat="43.9632811" lon="10.674704"><ele>672.0</ele><time>2026-04-29T16:49:00.021Z</time></trkpt><trkpt lat="43.9633911" lon="10.6746087"><ele>672.75</ele><time>2026-04-29T16:49:01.009Z</time></trkpt><trkpt lat="43.9634899" lon="10.6744999"><ele>673.5</ele><time>2026-04-29T16:49:02.026Z</time></trkpt><trkpt lat="43.9635732" lon="10.6743939"><ele>674.25</ele><time>2026-04-29T16:49:03.008Z</time></trkpt><trkpt lat="43.963654" lon="10.6742975"><ele>675.0</ele><time>2026-04-29T16:49:04.01Z</time></trkpt><trkpt lat="43.9637228" lon="10.6741739"><ele>675.0</ele><time>2026-04-29T16:49:05.018Z</time></trkpt><trkpt lat="43.9637899" lon="10.6740234"><ele>675.0</ele><time>2026-04-29T16:49:06.019Z</time></trkpt><trkpt lat="43.9638661" lon="10.6738582"><ele>675.0</ele><time>2026-04-29T16:49:07.008Z</time></trkpt><trkpt lat="43.9639382" lon="10.6737021"><ele>675.0</ele><time>2026-04-29T16:49:08.014Z</time></trkpt><trkpt lat="43.9640044" lon="10.6735505"><ele>676.4</ele><time>2026-04-29T16:49:09.015Z</time></trkpt><trkpt lat="43.9640614" lon="10.6734239"><ele>677.8</ele><time>2026-04-29T16:49:10.03Z</time></trkpt><trkpt lat="43.9641059" lon="10.6733369"><ele>679.2</ele><time>2026-04-29T16:49:11.019Z</time></trkpt><trkpt lat="43.9641703" lon="10.6732705"><ele>680.6</ele><time>2026-04-29T16:49:13.015Z</time></trkpt><trkpt lat="43.9642626" lon="10.6732543"><ele>682.0</ele><time>2026-04-29T16:49:23.044Z</time></trkpt><trkpt lat="43.9643624" lon="10.6732069"><ele>682.8333333333334</ele><time>2026-04-29T16:49:25.015Z</time></trkpt><trkpt lat="43.9644822" lon="10.6731529"><ele>683.6666666666667</ele><time>2026-04-29T16:49:27.021Z</time></trkpt><trkpt lat="43.964557" lon="10.6731555"><ele>684.5</ele><time>2026-04-29T16:49:28.015Z</time></trkpt><trkpt lat="43.9646404" lon="10.6731629"><ele>685.3333333333334</ele><time>2026-04-29T16:49:29.015Z</time></trkpt><trkpt lat="43.964725" lon="10.6731852"><ele>686.1666666666666</ele><time>2026-04-29T16:49:30.029Z</time></trkpt><trkpt lat="43.9647986" lon="10.6732209"><ele>687.0</ele><time>2026-04-29T16:49:31.017Z</time></trkpt><trkpt lat="43.9648674" lon="10.6732769"><ele>687.0</ele><time>2026-04-29T16:49:32.025Z</time></trkpt><trkpt lat="43.9649303" lon="10.6733288"><ele>687.0</ele><time>2026-04-29T16:49:33.02Z</time></trkpt><trkpt lat="43.9650029" lon="10.6733569"><ele>687.0</ele><time>2026-04-29T16:49:34.031Z</time></trkpt><trkpt lat="43.9650849" lon="10.673375"><ele>687.0</ele><time>2026-04-29T16:49:35.008Z</time></trkpt><trkpt lat="43.9651733" lon="10.673393"><ele>687.0</ele><time>2026-04-29T16:49:36.024Z</time></trkpt><trkpt lat="43.9652492" lon="10.6734253"><ele>687.0</ele><time>2026-04-29T16:49:37.023Z</time></trkpt><trkpt lat="43.9653126" lon="10.6735001"><ele>689.6</ele><time>2026-04-29T16:49:38.02Z</time></trkpt><trkpt lat="43.9653634" lon="10.67359"><ele>692.2</ele><time>2026-04-29T16:49:39.015Z</time></trkpt><trkpt lat="43.9654276" lon="10.6737082"><ele>694.8</ele><time>2026-04-29T16:49:40.017Z</time></trkpt><trkpt lat="43.9655004" lon="10.6738443"><ele>697.4</ele><time>2026-04-29T16:49:41.008Z</time></trkpt><trkpt lat="43.9655659" lon="10.673964"><ele>700.0</ele><time>2026-04-29T16:49:42.024Z</time></trkpt><trkpt lat="43.9656201" lon="10.6740795"><ele>700.0</ele><time>2026-04-29T16:49:43.02Z</time></trkpt><trkpt lat="43.9656624" lon="10.6741868"><ele>700.0</ele><time>2026-04-29T16:49:44.016Z</time></trkpt><trkpt lat="43.9657129" lon="10.6742885"><ele>700.0</ele><time>2026-04-29T16:49:45.025Z</time></trkpt><trkpt lat="43.9657686" lon="10.6743645"><ele>700.0</ele><time>2026-04-29T16:49:46.031Z</time></trkpt><trkpt lat="43.9658285" lon="10.6744126"><ele>700.0</ele><time>2026-04-29T16:49:47.03Z</time></trkpt><trkpt lat="43.965893" lon="10.6744446"><ele>700.0</ele><time>2026-04-29T16:49:48.032Z</time></trkpt><trkpt lat="43.9659641" lon="10.6744558"><ele>701.4</ele><time>2026-04-29T16:49:49.026Z</time></trkpt><trkpt lat="43.9660779" lon="10.6744266"><ele>702.8</ele><time>2026-04-29T16:49:51.022Z</time></trkpt><trkpt lat="43.9661779" lon="10.6743362"><ele>704.2</ele><time>2026-04-29T16:49:53.025Z</time></trkpt><trkpt lat="43.9662222" lon="10.674245"><ele>705.6</ele><time>2026-04-29T16:49:54.024Z</time></trkpt><trkpt lat="43.9662625" lon="10.6741414"><ele>707.0</ele><time>2026-04-29T16:49:55.024Z</time></trkpt><trkpt lat="43.9663038" lon="10.6740251"><ele>707.0</ele><time>2026-04-29T16:49:56.016Z</time></trkpt><trkpt lat="43.9663475" lon="10.6738991"><ele>707.0</ele><time>2026-04-29T16:49:57.014Z</time></trkpt><trkpt lat="43.9663804" lon="10.6737654"><ele>707.0</ele><time>2026-04-29T16:49:58.019Z</time></trkpt><trkpt lat="43.9664139" lon="10.6736212"><ele>707.0</ele><time>2026-04-29T16:49:59.017Z</time></trkpt><trkpt lat="43.9664478" lon="10.6735104"><ele>707.0</ele><time>2026-04-29T16:50:00.009Z</time></trkpt><trkpt lat="43.966517" lon="10.6734013"><ele>708.6</ele><time>2026-04-29T16:50:02.028Z</time></trkpt><trkpt lat="43.966654" lon="10.673474"><ele>710.2</ele><time>2026-04-29T16:50:04.019Z</time></trkpt><trkpt lat="43.9667379" lon="10.6735751"><ele>711.8</ele><time>2026-04-29T16:50:05.028Z</time></trkpt><trkpt lat="43.9668128" lon="10.6736828"><ele>713.4</ele><time>2026-04-29T16:50:06.022Z</time></trkpt><trkpt lat="43.966862" lon="10.6737667"><ele>715.0</ele><time>2026-04-29T16:50:07.023Z</time></trkpt><trkpt lat="43.9669086" lon="10.6738276"><ele>715.8</ele><time>2026-04-29T16:50:08.023Z</time></trkpt><trkpt lat="43.9670307" lon="10.6738877"><ele>716.6</ele><time>2026-04-29T16:50:10.021Z</time></trkpt><trkpt lat="43.967123" lon="10.6738741"><ele>717.4000000000001</ele><time>2026-04-29T16:50:11.02Z</time></trkpt><trkpt lat="43.9672205" lon="10.6738585"><ele>718.2</ele><time>2026-04-29T16:50:12.024Z</time></trkpt><trkpt lat="43.9673137" lon="10.6738514"><ele>719.0</ele><time>2026-04-29T16:50:13.02Z</time></trkpt><trkpt lat="43.9674051" lon="10.6738574"><ele>719.0</ele><time>2026-04-29T16:50:14.025Z</time></trkpt><trkpt lat="43.9674996" lon="10.6738639"><ele>719.0</ele><time>2026-04-29T16:50:15.022Z</time></trkpt><trkpt lat="43.9675708" lon="10.673898"><ele>719.0</ele><time>2026-04-29T16:50:16.011Z</time></trkpt><trkpt lat="43.967632" lon="10.67395"><ele>719.0</ele><time>2026-04-29T16:50:17.023Z</time></trkpt><trkpt lat="43.9676952" lon="10.6739944"><ele>719.0</ele><time>2026-04-29T16:50:18.025Z</time></trkpt><trkpt lat="43.9677633" lon="10.6740215"><ele>719.0</ele><time>2026-04-29T16:50:19.023Z</time></trkpt><trkpt lat="43.9678835" lon="10.6740283"><ele>720.6</ele><time>2026-04-29T16:50:21.014Z</time></trkpt><trkpt lat="43.9680051" lon="10.6739328"><ele>722.2</ele><time>2026-04-29T16:50:23.016Z</time></trkpt><trkpt lat="43.9680608" lon="10.6738487"><ele>723.8000000000001</ele><time>2026-04-29T16:50:24.021Z</time></trkpt><trkpt lat="43.9681191" lon="10.6737659"><ele>725.4000000000001</ele><time>2026-04-29T16:50:25.021Z</time></trkpt><trkpt lat="43.9681853" lon="10.6737058"><ele>727.0</ele><time>2026-04-29T16:50:26.017Z</time></trkpt><trkpt lat="43.9682672" lon="10.673669"><ele>727.0</ele><time>2026-04-29T16:50:27.02Z</time></trkpt><trkpt lat="43.9683509" lon="10.6736386"><ele>727.0</ele><time>2026-04-29T16:50:28.009Z</time></trkpt><trkpt lat="43.9684355" lon="10.6736151"><ele>727.0</ele><time>2026-04-29T16:50:29.023Z</time></trkpt><trkpt lat="43.9685271" lon="10.6736024"><ele>727.0</ele><time>2026-04-29T16:50:30.033Z</time></trkpt><trkpt lat="43.9686162" lon="10.6736007"><ele>727.0</ele><time>2026-04-29T16:50:31.017Z</time></trkpt><trkpt lat="43.9687011" lon="10.6736072"><ele>727.0</ele><time>2026-04-29T16:50:32.031Z</time></trkpt><trkpt lat="43.9687915" lon="10.6736166"><ele>726.2</ele><time>2026-04-29T16:50:33.031Z</time></trkpt><trkpt lat="43.9688814" lon="10.6736362"><ele>725.4000000000001</ele><time>2026-04-29T16:50:34.02Z</time></trkpt><trkpt lat="43.9689668" lon="10.6736723"><ele>724.5999999999999</ele><time>2026-04-29T16:50:35.019Z</time></trkpt><trkpt lat="43.9690454" lon="10.6737277"><ele>723.8</ele><time>2026-04-29T16:50:36.027Z</time></trkpt><trkpt lat="43.9691308" lon="10.6738195"><ele>723.0</ele><time>2026-04-29T16:50:37.013Z</time></trkpt><trkpt lat="43.9692227" lon="10.6739105"><ele>723.0</ele><time>2026-04-29T16:50:38.008Z</time></trkpt><trkpt lat="43.9693078" lon="10.6739944"><ele>723.0</ele><time>2026-04-29T16:50:39.017Z</time></trkpt><trkpt lat="43.9693847" lon="10.6740675"><ele>723.0</ele><time>2026-04-29T16:50:40.012Z</time></trkpt><trkpt lat="43.9694452" lon="10.6741498"><ele>723.0</ele><time>2026-04-29T16:50:41.021Z</time></trkpt><trkpt lat="43.9694809" lon="10.6742586"><ele>723.0</ele><time>2026-04-29T16:50:42.024Z</time></trkpt><trkpt lat="43.9695166" lon="10.674358"><ele>723.0</ele><time>2026-04-29T16:50:43.027Z</time></trkpt><trkpt lat="43.9695584" lon="10.674444"><ele>726.0</ele><time>2026-04-29T16:50:44.02Z</time></trkpt><trkpt lat="43.9696105" lon="10.6745287"><ele>729.0</ele><time>2026-04-29T16:50:45.021Z</time></trkpt><trkpt lat="43.9696611" lon="10.6746012"><ele>732.0</ele><time>2026-04-29T16:50:46.014Z</time></trkpt><trkpt lat="43.9705046" lon="10.6747295"><ele>733.0</ele><time>2026-04-29T16:50:52.941Z</time></trkpt><trkpt lat="43.9707585" lon="10.6746003"><ele>734.0</ele><time>2026-04-29T16:50:56.018Z</time></trkpt><trkpt lat="43.9708491" lon="10.6745641"><ele>735.0</ele><time>2026-04-29T16:50:56.993Z</time></trkpt><trkpt lat="43.9709444" lon="10.6745302"><ele>736.6666666666666</ele><time>2026-04-29T16:50:58.006Z</time></trkpt><trkpt lat="43.9710317" lon="10.6745085"><ele>738.3333333333334</ele><time>2026-04-29T16:50:59.012Z</time></trkpt><trkpt lat="43.9711187" lon="10.674505"><ele>740.0</ele><time>2026-04-29T16:51:00.024Z</time></trkpt><trkpt lat="43.9711729" lon="10.6745792"><ele>741.6666666666667</ele><time>2026-04-29T16:51:01.005Z</time></trkpt><trkpt lat="43.9712306" lon="10.6746656"><ele>743.3333333333334</ele><time>2026-04-29T16:51:02.017Z</time></trkpt><trkpt lat="43.9712917" lon="10.6747507"><ele>745.0</ele><time>2026-04-29T16:51:03.015Z</time></trkpt><trkpt lat="43.9713591" lon="10.6748107"><ele>745.0</ele><time>2026-04-29T16:51:04.015Z</time></trkpt><trkpt lat="43.9714293" lon="10.6748744"><ele>745.0</ele><time>2026-04-29T16:51:05.02Z</time></trkpt><trkpt lat="43.9714931" lon="10.674931"><ele>745.0</ele><time>2026-04-29T16:51:06.008Z</time></trkpt><trkpt lat="43.9715734" lon="10.6749905"><ele>745.0</ele><time>2026-04-29T16:51:08.013Z</time></trkpt><trkpt lat="43.9716371" lon="10.6750503"><ele>745.0</ele><time>2026-04-29T16:51:11.024Z</time></trkpt><trkpt lat="43.9716186" lon="10.6751415"><ele>745.0</ele><time>2026-04-29T16:51:21.017Z</time></trkpt><trkpt lat="43.9715526" lon="10.6751779"><ele>745.0</ele><time>2026-04-29T16:51:25.019Z</time></trkpt><trkpt lat="43.9715878" lon="10.6752564"><ele>745.0</ele><time>2026-04-29T16:51:28.025Z</time></trkpt><trkpt lat="43.971665" lon="10.6750417"><ele>745.0</ele><time>2026-04-29T17:01:26.011Z</time></trkpt><trkpt lat="43.9717233" lon="10.6749574"><ele>745.0</ele><time>2026-04-29T17:01:34.025Z</time></trkpt><trkpt lat="43.9718284" lon="10.6749398"><ele>745.0</ele><time>2026-04-29T17:01:36.009Z</time></trkpt><trkpt lat="43.9719583" lon="10.6749699"><ele>747.3333333333334</ele><time>2026-04-29T17:01:38.015Z</time></trkpt><trkpt lat="43.9720387" lon="10.675067"><ele>749.6666666666667</ele><time>2026-04-29T17:01:40.008Z</time></trkpt><trkpt lat="43.9720668" lon="10.6751593"><ele>752.0</ele><time>2026-04-29T17:01:41.019Z</time></trkpt><trkpt lat="43.972089" lon="10.6752718"><ele>754.3333333333334</ele><time>2026-04-29T17:01:42.014Z</time></trkpt><trkpt lat="43.9721113" lon="10.6753692"><ele>756.6666666666666</ele><time>2026-04-29T17:01:43.018Z</time></trkpt><trkpt lat="43.9721531" lon="10.6754653"><ele>759.0</ele><time>2026-04-29T17:01:44.041Z</time></trkpt><trkpt lat="43.9722023" lon="10.6755697"><ele>759.4000000000001</ele><time>2026-04-29T17:01:45.012Z</time></trkpt><trkpt lat="43.9722511" lon="10.6756816"><ele>759.8</ele><time>2026-04-29T17:01:46.024Z</time></trkpt><trkpt lat="43.9722829" lon="10.6757977"><ele>760.2</ele><time>2026-04-29T17:01:47.014Z</time></trkpt><trkpt lat="43.9723083" lon="10.6759027"><ele>760.5999999999999</ele><time>2026-04-29T17:01:48.017Z</time></trkpt><trkpt lat="43.9723428" lon="10.6760581"><ele>761.0</ele><time>2026-04-29T17:01:50.01Z</time></trkpt><trkpt lat="43.9723757" lon="10.6761509"><ele>759.5</ele><time>2026-04-29T17:01:51.012Z</time></trkpt><trkpt lat="43.9724358" lon="10.676236"><ele>758.0</ele><time>2026-04-29T17:01:52.03Z</time></trkpt><trkpt lat="43.9725024" lon="10.6763145"><ele>756.5</ele><time>2026-04-29T17:01:53.01Z</time></trkpt><trkpt lat="43.9725757" lon="10.6763901"><ele>755.0</ele><time>2026-04-29T17:01:54.015Z</time></trkpt><trkpt lat="43.9726469" lon="10.6764484"><ele>753.5</ele><time>2026-04-29T17:01:55.024Z</time></trkpt><trkpt lat="43.9727054" lon="10.6764948"><ele>752.0</ele><time>2026-04-29T17:01:56.041Z</time></trkpt><trkpt lat="43.9727549" lon="10.6765513"><ele>758.0</ele><time>2026-04-29T17:01:57.029Z</time></trkpt><trkpt lat="43.9727967" lon="10.6766282"><ele>764.0</ele><time>2026-04-29T17:01:58.014Z</time></trkpt><trkpt lat="43.9728256" lon="10.6767156"><ele>770.0</ele><time>2026-04-29T17:01:59.029Z</time></trkpt><trkpt lat="43.9728356" lon="10.6768227"><ele>776.0</ele><time>2026-04-29T17:02:00.016Z</time></trkpt><trkpt lat="43.9728246" lon="10.6769518"><ele>782.0000000000001</ele><time>2026-04-29T17:02:01.011Z</time></trkpt><trkpt lat="43.9727898" lon="10.6770724"><ele>788.0</ele><time>2026-04-29T17:02:02.032Z</time></trkpt><trkpt lat="43.9727445" lon="10.6771796"><ele>788.4</ele><time>2026-04-29T17:02:03.01Z</time></trkpt><trkpt lat="43.9727093" lon="10.6772672"><ele>788.8</ele><time>2026-04-29T17:02:04.019Z</time></trkpt><trkpt lat="43.9726655" lon="10.6774332"><ele>789.2</ele><time>2026-04-29T17:02:06.014Z</time></trkpt><trkpt lat="43.9726448" lon="10.6775609"><ele>789.6</ele><time>2026-04-29T17:02:07.028Z</time></trkpt><trkpt lat="43.9726061" lon="10.6776843"><ele>790.0</ele><time>2026-04-29T17:02:08.022Z</time></trkpt><trkpt lat="43.9725711" lon="10.6777904"><ele>788.8571428571428</ele><time>2026-04-29T17:02:09.018Z</time></trkpt><trkpt lat="43.9725316" lon="10.6778924"><ele>787.7142857142858</ele><time>2026-04-29T17:02:10.005Z</time></trkpt><trkpt lat="43.97251" lon="10.6779774"><ele>786.5714285714286</ele><time>2026-04-29T17:02:11.024Z</time></trkpt><trkpt lat="43.9725016" lon="10.6780811"><ele>785.4285714285713</ele><time>2026-04-29T17:02:12.023Z</time></trkpt><trkpt lat="43.9725031" lon="10.6781756"><ele>784.2857142857142</ele><time>2026-04-29T17:02:13.023Z</time></trkpt><trkpt lat="43.9725119" lon="10.6782707"><ele>783.1428571428571</ele><time>2026-04-29T17:02:14.009Z</time></trkpt><trkpt lat="43.9725373" lon="10.6783728"><ele>782.0</ele><time>2026-04-29T17:02:15.024Z</time></trkpt><trkpt lat="43.9725701" lon="10.6784753"><ele>782.0</ele><time>2026-04-29T17:02:16.02Z</time></trkpt><trkpt lat="43.972653" lon="10.6785655"><ele>782.0</ele><time>2026-04-29T17:02:18.014Z</time></trkpt><trkpt lat="43.9727725" lon="10.6785344"><ele>782.0</ele><time>2026-04-29T17:02:20.035Z</time></trkpt><trkpt lat="43.9728422" lon="10.6784997"><ele>782.0</ele><time>2026-04-29T17:02:21.019Z</time></trkpt><trkpt lat="43.9729164" lon="10.6784591"><ele>782.0</ele><time>2026-04-29T17:02:22.023Z</time></trkpt><trkpt lat="43.9729874" lon="10.6784327"><ele>782.0</ele><time>2026-04-29T17:02:23.021Z</time></trkpt><trkpt lat="43.9731076" lon="10.6784773"><ele>782.0</ele><time>2026-04-29T17:02:25.024Z</time></trkpt><trkpt lat="43.9731722" lon="10.678541"><ele>782.0</ele><time>2026-04-29T17:02:26.019Z</time></trkpt><trkpt lat="43.9732384" lon="10.6786078"><ele>782.0</ele><time>2026-04-29T17:02:27.018Z</time></trkpt><trkpt lat="43.9733055" lon="10.6786756"><ele>782.0</ele><time>2026-04-29T17:02:28.015Z</time></trkpt><trkpt lat="43.9733773" lon="10.6787297"><ele>782.3333333333334</ele><time>2026-04-29T17:02:29.021Z</time></trkpt><trkpt lat="43.9734484" lon="10.6787806"><ele>782.6666666666667</ele><time>2026-04-29T17:02:30.016Z</time></trkpt><trkpt lat="43.9735208" lon="10.678804"><ele>783.0</ele><time>2026-04-29T17:02:31.021Z</time></trkpt><trkpt lat="43.9735961" lon="10.6788002"><ele>783.3333333333333</ele><time>2026-04-29T17:02:32.016Z</time></trkpt><trkpt lat="43.9736726" lon="10.6787868"><ele>783.6666666666666</ele><time>2026-04-29T17:02:33.015Z</time></trkpt><trkpt lat="43.9737523" lon="10.6787785"><ele>784.0</ele><time>2026-04-29T17:02:34.02Z</time></trkpt><trkpt lat="43.9738212" lon="10.6787856"><ele>783.9999999999999</ele><time>2026-04-29T17:02:35.016Z</time></trkpt><trkpt lat="43.9739261" lon="10.6788496"><ele>784.0</ele><time>2026-04-29T17:02:37.022Z</time></trkpt><trkpt lat="43.9739784" lon="10.6789131"><ele>784.0</ele><time>2026-04-29T17:02:38.013Z</time></trkpt><trkpt lat="43.974029" lon="10.6789968"><ele>784.0</ele><time>2026-04-29T17:02:39.029Z</time></trkpt><trkpt lat="43.9740737" lon="10.679105"><ele>783.9999999999999</ele><time>2026-04-29T17:02:40.025Z</time></trkpt><trkpt lat="43.9741238" lon="10.6792181"><ele>784.0</ele><time>2026-04-29T17:02:41.021Z</time></trkpt><trkpt lat="43.9741756" lon="10.6793257"><ele>786.2</ele><time>2026-04-29T17:02:42.015Z</time></trkpt><trkpt lat="43.9742337" lon="10.6794244"><ele>788.4000000000001</ele><time>2026-04-29T17:02:43.017Z</time></trkpt><trkpt lat="43.9743023" lon="10.6795155"><ele>790.6</ele><time>2026-04-29T17:02:44.017Z</time></trkpt><trkpt lat="43.9743664" lon="10.6796042"><ele>792.8</ele><time>2026-04-29T17:02:45.025Z</time></trkpt><trkpt lat="43.9744327" lon="10.679688"><ele>795.0</ele><time>2026-04-29T17:02:46.026Z</time></trkpt><trkpt lat="43.974506" lon="10.6797617"><ele>795.0</ele><time>2026-04-29T17:02:47.023Z</time></trkpt><trkpt lat="43.9745756" lon="10.679807"><ele>795.0</ele><time>2026-04-29T17:02:48.021Z</time></trkpt><trkpt lat="43.9746391" lon="10.6798423"><ele>795.0</ele><time>2026-04-29T17:02:49.019Z</time></trkpt><trkpt lat="43.9747068" lon="10.6798584"><ele>795.0</ele><time>2026-04-29T17:02:50.031Z</time></trkpt><trkpt lat="43.9747755" lon="10.6798704"><ele>795.0</ele><time>2026-04-29T17:02:51.016Z</time></trkpt><trkpt lat="43.9748888" lon="10.67988"><ele>795.0</ele><time>2026-04-29T17:02:53.019Z</time></trkpt><trkpt lat="43.9749502" lon="10.679912"><ele>795.0</ele><time>2026-04-29T17:02:54.011Z</time></trkpt><trkpt lat="43.9750157" lon="10.6799471"><ele>795.0</ele><time>2026-04-29T17:02:55.024Z</time></trkpt><trkpt lat="43.9750845" lon="10.6799921"><ele>795.0</ele><time>2026-04-29T17:02:56.008Z</time></trkpt><trkpt lat="43.9751946" lon="10.6800469"><ele>795.0</ele><time>2026-04-29T17:02:58.001Z</time></trkpt><trkpt lat="43.9752596" lon="10.6800659"><ele>795.0</ele><time>2026-04-29T17:02:59.01Z</time></trkpt><trkpt lat="43.9753898" lon="10.6800778"><ele>797.0</ele><time>2026-04-29T17:03:01.019Z</time></trkpt><trkpt lat="43.9754598" lon="10.6800886"><ele>799.0</ele><time>2026-04-29T17:03:02.015Z</time></trkpt><trkpt lat="43.9755288" lon="10.6800971"><ele>801.0</ele><time>2026-04-29T17:03:03.023Z</time></trkpt><trkpt lat="43.9755953" lon="10.6801152"><ele>803.0</ele><time>2026-04-29T17:03:04.012Z</time></trkpt><trkpt lat="43.9756638" lon="10.6801356"><ele>805.0</ele><time>2026-04-29T17:03:05.018Z</time></trkpt><trkpt lat="43.9757664" lon="10.6802354"><ele>807.0</ele><time>2026-04-29T17:03:07.017Z</time></trkpt><trkpt lat="43.9758209" lon="10.680337"><ele>814.6</ele><time>2026-04-29T17:03:08.013Z</time></trkpt><trkpt lat="43.9758782" lon="10.6804598"><ele>822.2</ele><time>2026-04-29T17:03:09.019Z</time></trkpt><trkpt lat="43.9759358" lon="10.6806127"><ele>829.8</ele><time>2026-04-29T17:03:10.017Z</time></trkpt><trkpt lat="43.9759777" lon="10.6807643"><ele>837.4</ele><time>2026-04-29T17:03:11.01Z</time></trkpt><trkpt lat="43.9760122" lon="10.6808972"><ele>845.0</ele><time>2026-04-29T17:03:12.02Z</time></trkpt><trkpt lat="43.9760412" lon="10.6810351"><ele>846.0</ele><time>2026-04-29T17:03:13.024Z</time></trkpt><trkpt lat="43.9760655" lon="10.6811698"><ele>847.0</ele><time>2026-04-29T17:03:14.005Z</time></trkpt><trkpt lat="43.9760712" lon="10.681303"><ele>848.0</ele><time>2026-04-29T17:03:15.015Z</time></trkpt><trkpt lat="43.9760659" lon="10.6814171"><ele>849.0</ele><time>2026-04-29T17:03:16.013Z</time></trkpt><trkpt lat="43.9760414" lon="10.6815216"><ele>850.0</ele><time>2026-04-29T17:03:17.009Z</time></trkpt><trkpt lat="43.9759893" lon="10.6816293"><ele>850.0</ele><time>2026-04-29T17:03:18.013Z</time></trkpt><trkpt lat="43.9759229" lon="10.6817304"><ele>850.0</ele><time>2026-04-29T17:03:19.01Z</time></trkpt><trkpt lat="43.9758487" lon="10.6818387"><ele>850.0</ele><time>2026-04-29T17:03:20.021Z</time></trkpt><trkpt lat="43.9757819" lon="10.6819551"><ele>850.0</ele><time>2026-04-29T17:03:21.014Z</time></trkpt><trkpt lat="43.9757101" lon="10.6820727"><ele>850.0</ele><time>2026-04-29T17:03:22.009Z</time></trkpt><trkpt lat="43.9756466" lon="10.6821957"><ele>847.8</ele><time>2026-04-29T17:03:23.007Z</time></trkpt><trkpt lat="43.9755796" lon="10.6823328"><ele>845.6</ele><time>2026-04-29T17:03:24.015Z</time></trkpt><trkpt lat="43.9755234" lon="10.682463"><ele>843.4000000000001</ele><time>2026-04-29T17:03:24.991Z</time></trkpt><trkpt lat="43.9754775" lon="10.6825825"><ele>841.2</ele><time>2026-04-29T17:03:26.014Z</time></trkpt><trkpt lat="43.9754317" lon="10.6826984"><ele>839.0</ele><time>2026-04-29T17:03:27.002Z</time></trkpt><trkpt lat="43.9753999" lon="10.6827891"><ele>839.0000000000001</ele><time>2026-04-29T17:03:28.02Z</time></trkpt><trkpt lat="43.9753777" lon="10.6828828"><ele>839.0</ele><time>2026-04-29T17:03:29.014Z</time></trkpt><trkpt lat="43.9753593" lon="10.6829864"><ele>839.0</ele><time>2026-04-29T17:03:30.001Z</time></trkpt><trkpt lat="43.9753454" lon="10.6830996"><ele>839.0</ele><time>2026-04-29T17:03:31.013Z</time></trkpt><trkpt lat="43.9753292" lon="10.6832074"><ele>839.0000000000001</ele><time>2026-04-29T17:03:32.013Z</time></trkpt><trkpt lat="43.9753025" lon="10.6833131"><ele>839.0</ele><time>2026-04-29T17:03:33.01Z</time></trkpt><trkpt lat="43.9752745" lon="10.6834169"><ele>839.0000000000001</ele><time>2026-04-29T17:03:34.008Z</time></trkpt><trkpt lat="43.975242" lon="10.6835369"><ele>839.0</ele><time>2026-04-29T17:03:35.003Z</time></trkpt><trkpt lat="43.9752138" lon="10.6836463"><ele>839.0</ele><time>2026-04-29T17:03:36.019Z</time></trkpt><trkpt lat="43.9751917" lon="10.6837484"><ele>839.0</ele><time>2026-04-29T17:03:37.013Z</time></trkpt><trkpt lat="43.9751793" lon="10.683846"><ele>839.0000000000001</ele><time>2026-04-29T17:03:38.03Z</time></trkpt><trkpt lat="43.9751845" lon="10.6839433"><ele>839.0</ele><time>2026-04-29T17:03:39.015Z</time></trkpt><trkpt lat="43.975205" lon="10.6840461"><ele>836.8000000000001</ele><time>2026-04-29T17:03:40.024Z</time></trkpt><trkpt lat="43.9752464" lon="10.6841386"><ele>834.6</ele><time>2026-04-29T17:03:41.011Z</time></trkpt><trkpt lat="43.9753079" lon="10.684217"><ele>832.4</ele><time>2026-04-29T17:03:42.017Z</time></trkpt><trkpt lat="43.9753612" lon="10.6842755"><ele>830.2</ele><time>2026-04-29T17:03:43.01Z</time></trkpt><trkpt lat="43.9754499" lon="10.6843568"><ele>828.0</ele><time>2026-04-29T17:03:45.024Z</time></trkpt><trkpt lat="43.9755927" lon="10.6843126"><ele>828.0</ele><time>2026-04-29T17:03:47.013Z</time></trkpt><trkpt lat="43.9756862" lon="10.6842371"><ele>828.0</ele><time>2026-04-29T17:03:48.018Z</time></trkpt><trkpt lat="43.9757802" lon="10.6841656"><ele>828.0</ele><time>2026-04-29T17:03:49.025Z</time></trkpt><trkpt lat="43.9758605" lon="10.6840993"><ele>828.0</ele><time>2026-04-29T17:03:50.016Z</time></trkpt><trkpt lat="43.9759387" lon="10.6840411"><ele>828.0</ele><time>2026-04-29T17:03:51.019Z</time></trkpt><trkpt lat="43.9760191" lon="10.6839799"><ele>826.5999999999999</ele><time>2026-04-29T17:03:52.018Z</time></trkpt><trkpt lat="43.9760935" lon="10.6839217"><ele>825.1999999999999</ele><time>2026-04-29T17:03:53.03Z</time></trkpt><trkpt lat="43.9761714" lon="10.6838598"><ele>823.8</ele><time>2026-04-29T17:03:54.015Z</time></trkpt><trkpt lat="43.9762517" lon="10.6837988"><ele>822.4</ele><time>2026-04-29T17:03:55.02Z</time></trkpt><trkpt lat="43.9763362" lon="10.6837413"><ele>821.0</ele><time>2026-04-29T17:03:56.021Z</time></trkpt><trkpt lat="43.9764233" lon="10.6836991"><ele>821.0</ele><time>2026-04-29T17:03:57.031Z</time></trkpt><trkpt lat="43.9765161" lon="10.6836618"><ele>821.0</ele><time>2026-04-29T17:03:58.028Z</time></trkpt><trkpt lat="43.9766123" lon="10.6836282"><ele>821.0</ele><time>2026-04-29T17:03:59.024Z</time></trkpt><trkpt lat="43.9767003" lon="10.6835879"><ele>821.0</ele><time>2026-04-29T17:04:00.018Z</time></trkpt><trkpt lat="43.9767882" lon="10.6835445"><ele>821.0</ele><time>2026-04-29T17:04:01.017Z</time></trkpt><trkpt lat="43.9768714" lon="10.6835009"><ele>826.0</ele><time>2026-04-29T17:04:02.015Z</time></trkpt><trkpt lat="43.9769561" lon="10.6834546"><ele>831.0</ele><time>2026-04-29T17:04:03.019Z</time></trkpt><trkpt lat="43.9770421" lon="10.683395"><ele>836.0</ele><time>2026-04-29T17:04:04.017Z</time></trkpt><trkpt lat="43.9771255" lon="10.6833295"><ele>841.0</ele><time>2026-04-29T17:04:05.012Z</time></trkpt><trkpt lat="43.9772036" lon="10.683267"><ele>846.0</ele><time>2026-04-29T17:04:06.013Z</time></trkpt><trkpt lat="43.9772843" lon="10.6831989"><ele>846.0</ele><time>2026-04-29T17:04:07.002Z</time></trkpt><trkpt lat="43.9773644" lon="10.6831329"><ele>846.0</ele><time>2026-04-29T17:04:08.004Z</time></trkpt><trkpt lat="43.9774457" lon="10.6830632"><ele>846.0</ele><time>2026-04-29T17:04:09.016Z</time></trkpt><trkpt lat="43.9775233" lon="10.6829915"><ele>846.0</ele><time>2026-04-29T17:04:10.019Z</time></trkpt><trkpt lat="43.9776019" lon="10.6829298"><ele>846.0</ele><time>2026-04-29T17:04:11.018Z</time></trkpt><trkpt lat="43.9776881" lon="10.6829004"><ele>847.0</ele><time>2026-04-29T17:04:12.011Z</time></trkpt><trkpt lat="43.9777692" lon="10.682913"><ele>848.0</ele><time>2026-04-29T17:04:13.019Z</time></trkpt><trkpt lat="43.9778549" lon="10.6829541"><ele>849.0</ele><time>2026-04-29T17:04:14.023Z</time></trkpt><trkpt lat="43.9779329" lon="10.6829894"><ele>850.0</ele><time>2026-04-29T17:04:15.013Z</time></trkpt><trkpt lat="43.9780135" lon="10.6830238"><ele>851.0</ele><time>2026-04-29T17:04:16.023Z</time></trkpt><trkpt lat="43.9781093" lon="10.6830555"><ele>852.0</ele><time>2026-04-29T17:04:17.02Z</time></trkpt><trkpt lat="43.9782011" lon="10.6830694"><ele>852.0</ele><time>2026-04-29T17:04:18.018Z</time></trkpt><trkpt lat="43.9782929" lon="10.6830945"><ele>852.0</ele><time>2026-04-29T17:04:19.013Z</time></trkpt><trkpt lat="43.9783884" lon="10.683104"><ele>852.0</ele><time>2026-04-29T17:04:20.029Z</time></trkpt><trkpt lat="43.9784922" lon="10.6830963"><ele>852.0</ele><time>2026-04-29T17:04:21.012Z</time></trkpt><trkpt lat="43.9785985" lon="10.6830872"><ele>852.0</ele><time>2026-04-29T17:04:22.018Z</time></trkpt><trkpt lat="43.9787047" lon="10.6830838"><ele>854.0</ele><time>2026-04-29T17:04:23.012Z</time></trkpt><trkpt lat="43.9788041" lon="10.6830896"><ele>856.0</ele><time>2026-04-29T17:04:24.019Z</time></trkpt><trkpt lat="43.9789068" lon="10.683104"><ele>858.0</ele><time>2026-04-29T17:04:25.027Z</time></trkpt><trkpt lat="43.9790003" lon="10.6831256"><ele>860.0</ele><time>2026-04-29T17:04:26.03Z</time></trkpt><trkpt lat="43.9790879" lon="10.6831429"><ele>862.0</ele><time>2026-04-29T17:04:27.017Z</time></trkpt><trkpt lat="43.9791721" lon="10.6831559"><ele>864.0</ele><time>2026-04-29T17:04:28.015Z</time></trkpt><trkpt lat="43.9792691" lon="10.6831817"><ele>866.0</ele><time>2026-04-29T17:04:29.022Z</time></trkpt><trkpt lat="43.9793594" lon="10.6831966"><ele>868.0</ele><time>2026-04-29T17:04:30.016Z</time></trkpt><trkpt lat="43.9794521" lon="10.6832303"><ele>870.0</ele><time>2026-04-29T17:04:31.012Z</time></trkpt><trkpt lat="43.9795369" lon="10.6832678"><ele>872.0</ele><time>2026-04-29T17:04:32.013Z</time></trkpt><trkpt lat="43.9796175" lon="10.6833092"><ele>872.0000000000001</ele><time>2026-04-29T17:04:33.014Z</time></trkpt><trkpt lat="43.979698" lon="10.6833438"><ele>872.0</ele><time>2026-04-29T17:04:34.022Z</time></trkpt><trkpt lat="43.9797804" lon="10.6833741"><ele>872.0</ele><time>2026-04-29T17:04:35.017Z</time></trkpt><trkpt lat="43.9798651" lon="10.6833942"><ele>872.0</ele><time>2026-04-29T17:04:36.021Z</time></trkpt><trkpt lat="43.9799456" lon="10.6834144"><ele>872.0000000000001</ele><time>2026-04-29T17:04:37.018Z</time></trkpt><trkpt lat="43.980026" lon="10.6834301"><ele>872.0</ele><time>2026-04-29T17:04:38.009Z</time></trkpt><trkpt lat="43.9801099" lon="10.683448"><ele>873.6</ele><time>2026-04-29T17:04:39.02Z</time></trkpt><trkpt lat="43.9801984" lon="10.6834679"><ele>875.2</ele><time>2026-04-29T17:04:40.02Z</time></trkpt><trkpt lat="43.9802893" lon="10.6835177"><ele>876.8</ele><time>2026-04-29T17:04:41.025Z</time></trkpt><trkpt lat="43.9803745" lon="10.6835749"><ele>878.4</ele><time>2026-04-29T17:04:42.022Z</time></trkpt><trkpt lat="43.9804415" lon="10.6836534"><ele>880.0</ele><time>2026-04-29T17:04:43.027Z</time></trkpt><trkpt lat="43.9804938" lon="10.6837426"><ele>879.0</ele><time>2026-04-29T17:04:44.02Z</time></trkpt><trkpt lat="43.9805375" lon="10.6838221"><ele>878.0</ele><time>2026-04-29T17:04:45.008Z</time></trkpt><trkpt lat="43.9806377" lon="10.6839172"><ele>877.0</ele><time>2026-04-29T17:04:47.028Z</time></trkpt><trkpt lat="43.9807476" lon="10.6840077"><ele>876.0</ele><time>2026-04-29T17:04:49.036Z</time></trkpt><trkpt lat="43.9808054" lon="10.684056"><ele>875.0</ele><time>2026-04-29T17:04:50.017Z</time></trkpt><trkpt lat="43.980865" lon="10.6841131"><ele>875.0</ele><time>2026-04-29T17:04:51.016Z</time></trkpt><trkpt lat="43.9809279" lon="10.6841556"><ele>875.0</ele><time>2026-04-29T17:04:52.018Z</time></trkpt><trkpt lat="43.9810235" lon="10.6841863"><ele>875.0</ele><time>2026-04-29T17:04:54.04Z</time></trkpt><trkpt lat="43.981126" lon="10.6841869"><ele>875.0</ele><time>2026-04-29T17:04:56.011Z</time></trkpt><trkpt lat="43.9812002" lon="10.6842676"><ele>875.0</ele><time>2026-04-29T17:04:58.023Z</time></trkpt><trkpt lat="43.9812577" lon="10.6843903"><ele>874.0</ele><time>2026-04-29T17:05:00.026Z</time></trkpt><trkpt lat="43.9813247" lon="10.684525"><ele>873.0</ele><time>2026-04-29T17:05:02.027Z</time></trkpt><trkpt lat="43.981396" lon="10.6846053"><ele>872.0</ele><time>2026-04-29T17:05:04.025Z</time></trkpt><trkpt lat="43.9815029" lon="10.6846637"><ele>871.0</ele><time>2026-04-29T17:05:06.008Z</time></trkpt><trkpt lat="43.9816258" lon="10.6846934"><ele>870.0</ele><time>2026-04-29T17:05:08.016Z</time></trkpt><trkpt lat="43.9816904" lon="10.6847141"><ele>870.0</ele><time>2026-04-29T17:05:09.023Z</time></trkpt><trkpt lat="43.9817532" lon="10.6847463"><ele>870.0</ele><time>2026-04-29T17:05:10.027Z</time></trkpt><trkpt lat="43.9818578" lon="10.6848324"><ele>870.0</ele><time>2026-04-29T17:05:12.028Z</time></trkpt><trkpt lat="43.9819078" lon="10.6848879"><ele>870.0</ele><time>2026-04-29T17:05:13.026Z</time></trkpt><trkpt lat="43.9819762" lon="10.6850107"><ele>870.0</ele><time>2026-04-29T17:05:15.033Z</time></trkpt><trkpt lat="43.982041" lon="10.6851429"><ele>870.0</ele><time>2026-04-29T17:05:17.038Z</time></trkpt><trkpt lat="43.9821129" lon="10.6852272"><ele>870.0</ele><time>2026-04-29T17:05:19.022Z</time></trkpt><trkpt lat="43.9822295" lon="10.6852399"><ele>870.0</ele><time>2026-04-29T17:05:21.022Z</time></trkpt><trkpt lat="43.9822909" lon="10.6852138"><ele>870.0</ele><time>2026-04-29T17:05:22.008Z</time></trkpt><trkpt lat="43.9823596" lon="10.6851736"><ele>870.0</ele><time>2026-04-29T17:05:23.013Z</time></trkpt><trkpt lat="43.9824336" lon="10.6851279"><ele>870.0</ele><time>2026-04-29T17:05:24.016Z</time></trkpt><trkpt lat="43.9825082" lon="10.6850872"><ele>867.4</ele><time>2026-04-29T17:05:25.018Z</time></trkpt><trkpt lat="43.9825917" lon="10.6850327"><ele>864.8</ele><time>2026-04-29T17:05:26.012Z</time></trkpt><trkpt lat="43.982674" lon="10.6849708"><ele>862.2</ele><time>2026-04-29T17:05:27.016Z</time></trkpt><trkpt lat="43.9827524" lon="10.684891"><ele>859.6</ele><time>2026-04-29T17:05:28.017Z</time></trkpt><trkpt lat="43.9828377" lon="10.6847926"><ele>857.0</ele><time>2026-04-29T17:05:29.014Z</time></trkpt><trkpt lat="43.9829208" lon="10.6846991"><ele>857.0</ele><time>2026-04-29T17:05:30.001Z</time></trkpt><trkpt lat="43.9830016" lon="10.6846054"><ele>857.0</ele><time>2026-04-29T17:05:31.001Z</time></trkpt><trkpt lat="43.9830702" lon="10.6844994"><ele>857.0</ele><time>2026-04-29T17:05:32.019Z</time></trkpt><trkpt lat="43.9831415" lon="10.6843999"><ele>857.0</ele><time>2026-04-29T17:05:33.017Z</time></trkpt><trkpt lat="43.9831993" lon="10.6843147"><ele>857.0</ele><time>2026-04-29T17:05:34.013Z</time></trkpt><trkpt lat="43.9832997" lon="10.6842391"><ele>859.4000000000001</ele><time>2026-04-29T17:05:36.011Z</time></trkpt><trkpt lat="43.9833996" lon="10.6841998"><ele>861.8000000000001</ele><time>2026-04-29T17:05:38.022Z</time></trkpt><trkpt lat="43.9834683" lon="10.6841499"><ele>864.2</ele><time>2026-04-29T17:05:39.005Z</time></trkpt><trkpt lat="43.983541" lon="10.6840821"><ele>866.6</ele><time>2026-04-29T17:05:40.013Z</time></trkpt><trkpt lat="43.9836082" lon="10.6839894"><ele>869.0</ele><time>2026-04-29T17:05:41.009Z</time></trkpt><trkpt lat="43.9836872" lon="10.6839187"><ele>869.0</ele><time>2026-04-29T17:05:42.011Z</time></trkpt><trkpt lat="43.9837721" lon="10.6838751"><ele>869.0000000000001</ele><time>2026-04-29T17:05:43.025Z</time></trkpt><trkpt lat="43.9838687" lon="10.6838858"><ele>869.0000000000001</ele><time>2026-04-29T17:05:44.02Z</time></trkpt><trkpt lat="43.9839692" lon="10.6839018"><ele>869.0</ele><time>2026-04-29T17:05:45.031Z</time></trkpt><trkpt lat="43.9840615" lon="10.6839166"><ele>869.0</ele><time>2026-04-29T17:05:46.019Z</time></trkpt><trkpt lat="43.9841355" lon="10.6839375"><ele>870.4000000000001</ele><time>2026-04-29T17:05:47.025Z</time></trkpt><trkpt lat="43.9841995" lon="10.6839311"><ele>871.8000000000001</ele><time>2026-04-29T17:05:48.01Z</time></trkpt><trkpt lat="43.984306" lon="10.6838671"><ele>873.1999999999999</ele><time>2026-04-29T17:05:50.02Z</time></trkpt><trkpt lat="43.9844142" lon="10.6838134"><ele>874.5999999999999</ele><time>2026-04-29T17:05:52.022Z</time></trkpt><trkpt lat="43.9845416" lon="10.6839084"><ele>876.0</ele><time>2026-04-29T17:05:54.006Z</time></trkpt><trkpt lat="43.984598" lon="10.6839834"><ele>876.0</ele><time>2026-04-29T17:05:55.024Z</time></trkpt><trkpt lat="43.9846631" lon="10.6840392"><ele>876.0</ele><time>2026-04-29T17:05:56.019Z</time></trkpt><trkpt lat="43.9847336" lon="10.6840894"><ele>876.0</ele><time>2026-04-29T17:05:57.01Z</time></trkpt><trkpt lat="43.9848033" lon="10.6841361"><ele>876.0</ele><time>2026-04-29T17:05:58.017Z</time></trkpt><trkpt lat="43.9848669" lon="10.684195"><ele>876.0</ele><time>2026-04-29T17:05:59.02Z</time></trkpt><trkpt lat="43.9849262" lon="10.6842753"><ele>876.0</ele><time>2026-04-29T17:06:00.02Z</time></trkpt><trkpt lat="43.9849807" lon="10.6843515"><ele>874.5</ele><time>2026-04-29T17:06:01.001Z</time></trkpt><trkpt lat="43.9850149" lon="10.6844377"><ele>873.0</ele><time>2026-04-29T17:06:02.011Z</time></trkpt><trkpt lat="43.9850606" lon="10.6845086"><ele>871.5</ele><time>2026-04-29T17:06:03.015Z</time></trkpt><trkpt lat="43.9851577" lon="10.6845936"><ele>870.0</ele><time>2026-04-29T17:06:05.011Z</time></trkpt><trkpt lat="43.9852211" lon="10.6846082"><ele>868.5</ele><time>2026-04-29T17:06:06.036Z</time></trkpt><trkpt lat="43.985286" lon="10.6846141"><ele>867.0</ele><time>2026-04-29T17:06:07.021Z</time></trkpt><trkpt lat="43.9853556" lon="10.6846086"><ele>867.0</ele><time>2026-04-29T17:06:08.017Z</time></trkpt><trkpt lat="43.9854795" lon="10.6846331"><ele>867.0</ele><time>2026-04-29T17:06:10.016Z</time></trkpt><trkpt lat="43.985546" lon="10.684663"><ele>867.0</ele><time>2026-04-29T17:06:11.031Z</time></trkpt><trkpt lat="43.9856198" lon="10.6847095"><ele>867.0</ele><time>2026-04-29T17:06:12.022Z</time></trkpt><trkpt lat="43.9856952" lon="10.6847485"><ele>867.0</ele><time>2026-04-29T17:06:13.022Z</time></trkpt><trkpt lat="43.9857778" lon="10.6847776"><ele>867.0</ele><time>2026-04-29T17:06:14.011Z</time></trkpt><trkpt lat="43.9858698" lon="10.6848066"><ele>868.1666666666666</ele><time>2026-04-29T17:06:15.017Z</time></trkpt><trkpt lat="43.9859575" lon="10.6848263"><ele>869.3333333333333</ele><time>2026-04-29T17:06:16.009Z</time></trkpt><trkpt lat="43.9860394" lon="10.6848175"><ele>870.5</ele><time>2026-04-29T17:06:17.016Z</time></trkpt><trkpt lat="43.9861095" lon="10.684803"><ele>871.6666666666666</ele><time>2026-04-29T17:06:18.021Z</time></trkpt><trkpt lat="43.9861961" lon="10.6848029"><ele>872.8333333333333</ele><time>2026-04-29T17:06:19.028Z</time></trkpt><trkpt lat="43.9862789" lon="10.6848354"><ele>874.0</ele><time>2026-04-29T17:06:20.028Z</time></trkpt><trkpt lat="43.9863549" lon="10.684901"><ele>873.9999999999999</ele><time>2026-04-29T17:06:21.025Z</time></trkpt><trkpt lat="43.9864175" lon="10.6849496"><ele>874.0</ele><time>2026-04-29T17:06:22.011Z</time></trkpt><trkpt lat="43.986478" lon="10.6849971"><ele>874.0</ele><time>2026-04-29T17:06:23.015Z</time></trkpt><trkpt lat="43.9865406" lon="10.68503"><ele>874.0</ele><time>2026-04-29T17:06:24.02Z</time></trkpt><trkpt lat="43.9866292" lon="10.6850683"><ele>873.9999999999999</ele><time>2026-04-29T17:06:25.014Z</time></trkpt><trkpt lat="43.9867173" lon="10.6851084"><ele>874.0</ele><time>2026-04-29T17:06:26.024Z</time></trkpt><trkpt lat="43.9867923" lon="10.6851463"><ele>873.0</ele><time>2026-04-29T17:06:27.019Z</time></trkpt><trkpt lat="43.9868609" lon="10.685171"><ele>872.0000000000001</ele><time>2026-04-29T17:06:28.002Z</time></trkpt><trkpt lat="43.9869965" lon="10.6851793"><ele>871.0000000000001</ele><time>2026-04-29T17:06:30.021Z</time></trkpt><trkpt lat="43.9870804" lon="10.6852033"><ele>870.0</ele><time>2026-04-29T17:06:31.032Z</time></trkpt><trkpt lat="43.9871671" lon="10.6852478"><ele>869.0</ele><time>2026-04-29T17:06:32.019Z</time></trkpt><trkpt lat="43.9872595" lon="10.6852917"><ele>869.0000000000001</ele><time>2026-04-29T17:06:33.014Z</time></trkpt><trkpt lat="43.9873499" lon="10.6853357"><ele>869.0</ele><time>2026-04-29T17:06:34.01Z</time></trkpt><trkpt lat="43.9874334" lon="10.6853664"><ele>869.0</ele><time>2026-04-29T17:06:35.008Z</time></trkpt><trkpt lat="43.9875163" lon="10.6853941"><ele>869.0</ele><time>2026-04-29T17:06:36.036Z</time></trkpt><trkpt lat="43.9875961" lon="10.6854087"><ele>869.0000000000001</ele><time>2026-04-29T17:06:37.029Z</time></trkpt><trkpt lat="43.9876734" lon="10.6854158"><ele>869.0</ele><time>2026-04-29T17:06:38.02Z</time></trkpt><trkpt lat="43.9877484" lon="10.6854387"><ele>872.0</ele><time>2026-04-29T17:06:39.016Z</time></trkpt><trkpt lat="43.9878065" lon="10.685526"><ele>875.0000000000001</ele><time>2026-04-29T17:06:40.026Z</time></trkpt><trkpt lat="43.9878189" lon="10.6856703"><ele>878.0000000000001</ele><time>2026-04-29T17:06:41.008Z</time></trkpt><trkpt lat="43.987806" lon="10.6858294"><ele>881.0</ele><time>2026-04-29T17:06:42.017Z</time></trkpt><trkpt lat="43.9877887" lon="10.6859525"><ele>884.0</ele><time>2026-04-29T17:06:43.018Z</time></trkpt><trkpt lat="43.9877762" lon="10.6860487"><ele>881.5000000000001</ele><time>2026-04-29T17:06:44.016Z</time></trkpt><trkpt lat="43.987775" lon="10.6861365"><ele>879.0</ele><time>2026-04-29T17:06:45.02Z</time></trkpt><trkpt lat="43.987788" lon="10.6862308"><ele>876.5</ele><time>2026-04-29T17:06:46.01Z</time></trkpt><trkpt lat="43.9878602" lon="10.6863147"><ele>874.0</ele><time>2026-04-29T17:06:48.012Z</time></trkpt><trkpt lat="43.9879848" lon="10.6863269"><ele>871.5000000000001</ele><time>2026-04-29T17:06:50.014Z</time></trkpt><trkpt lat="43.9880518" lon="10.6863274"><ele>869.0</ele><time>2026-04-29T17:06:51.017Z</time></trkpt><trkpt lat="43.9881268" lon="10.6863343"><ele>869.0</ele><time>2026-04-29T17:06:52.025Z</time></trkpt><trkpt lat="43.9882033" lon="10.6863689"><ele>869.0</ele><time>2026-04-29T17:06:53.016Z</time></trkpt><trkpt lat="43.9882714" lon="10.6864137"><ele>869.0</ele><time>2026-04-29T17:06:54.013Z</time></trkpt><trkpt lat="43.9883278" lon="10.6864587"><ele>869.0</ele><time>2026-04-29T17:06:55.029Z</time></trkpt><trkpt lat="43.9883902" lon="10.6864895"><ele>869.0</ele><time>2026-04-29T17:06:56.018Z</time></trkpt><trkpt lat="43.9884572" lon="10.6865017"><ele>869.0</ele><time>2026-04-29T17:06:57.023Z</time></trkpt><trkpt lat="43.9885281" lon="10.6864978"><ele>869.0</ele><time>2026-04-29T17:06:58.022Z</time></trkpt><trkpt lat="43.9886445" lon="10.6864366"><ele>873.2</ele><time>2026-04-29T17:07:00.03Z</time></trkpt><trkpt lat="43.9887272" lon="10.6863319"><ele>877.4000000000001</ele><time>2026-04-29T17:07:02.017Z</time></trkpt><trkpt lat="43.988798" lon="10.6862082"><ele>881.6</ele><time>2026-04-29T17:07:04.011Z</time></trkpt><trkpt lat="43.98886" lon="10.6861062"><ele>885.8</ele><time>2026-04-29T17:07:06.03Z</time></trkpt><trkpt lat="43.9889287" lon="10.686126"><ele>890.0</ele><time>2026-04-29T17:07:08.035Z</time></trkpt><trkpt lat="43.9890062" lon="10.6862103"><ele>890.0000000000001</ele><time>2026-04-29T17:07:10.013Z</time></trkpt><trkpt lat="43.9890565" lon="10.6862795"><ele>890.0</ele><time>2026-04-29T17:07:10.995Z</time></trkpt><trkpt lat="43.9891077" lon="10.6863608"><ele>890.0</ele><time>2026-04-29T17:07:12.018Z</time></trkpt><trkpt lat="43.9891618" lon="10.686457"><ele>890.0</ele><time>2026-04-29T17:07:13.025Z</time></trkpt><trkpt lat="43.9891924" lon="10.6865675"><ele>890.0000000000001</ele><time>2026-04-29T17:07:14.022Z</time></trkpt><trkpt lat="43.9892079" lon="10.6866722"><ele>890.0</ele><time>2026-04-29T17:07:15.029Z</time></trkpt><trkpt lat="43.9892223" lon="10.6867801"><ele>891.8333333333334</ele><time>2026-04-29T17:07:16.021Z</time></trkpt><trkpt lat="43.9892337" lon="10.6868706"><ele>893.6666666666667</ele><time>2026-04-29T17:07:17.03Z</time></trkpt><trkpt lat="43.9892665" lon="10.6870121"><ele>895.5</ele><time>2026-04-29T17:07:19.02Z</time></trkpt><trkpt lat="43.989341" lon="10.6870876"><ele>897.3333333333333</ele><time>2026-04-29T17:07:21.03Z</time></trkpt><trkpt lat="43.9894213" lon="10.6870436"><ele>899.1666666666666</ele><time>2026-04-29T17:07:23.015Z</time></trkpt><trkpt lat="43.9894965" lon="10.6870041"><ele>901.0</ele><time>2026-04-29T17:07:26.027Z</time></trkpt><trkpt lat="43.9895921" lon="10.6869836"><ele>900.9999999999999</ele><time>2026-04-29T17:07:28.019Z</time></trkpt><trkpt lat="43.9896925" lon="10.6870181"><ele>901.0</ele><time>2026-04-29T17:07:30.011Z</time></trkpt><trkpt lat="43.9897862" lon="10.6870984"><ele>901.0</ele><time>2026-04-29T17:07:32.03Z</time></trkpt><trkpt lat="43.9898538" lon="10.6871397"><ele>901.0</ele><time>2026-04-29T17:07:34.032Z</time></trkpt><trkpt lat="43.9899296" lon="10.6871296"><ele>900.9999999999999</ele><time>2026-04-29T17:07:36.015Z</time></trkpt><trkpt lat="43.9899797" lon="10.6870761"><ele>901.0</ele><time>2026-04-29T17:07:37.016Z</time></trkpt><trkpt lat="43.9900536" lon="10.6870095"><ele>904.9999999999999</ele><time>2026-04-29T17:07:39.014Z</time></trkpt><trkpt lat="43.9901372" lon="10.6870101"><ele>909.0</ele><time>2026-04-29T17:07:41.025Z</time></trkpt><trkpt lat="43.990196" lon="10.687055"><ele>913.0</ele><time>2026-04-29T17:07:42.017Z</time></trkpt><trkpt lat="43.9902887" lon="10.6871363"><ele>917.0</ele><time>2026-04-29T17:07:44.019Z</time></trkpt><trkpt lat="43.9903294" lon="10.6872054"><ele>920.9999999999999</ele><time>2026-04-29T17:07:45.028Z</time></trkpt><trkpt lat="43.9903654" lon="10.6872897"><ele>925.0</ele><time>2026-04-29T17:07:46.02Z</time></trkpt><trkpt lat="43.9903949" lon="10.6873807"><ele>924.9999999999999</ele><time>2026-04-29T17:07:47.013Z</time></trkpt><trkpt lat="43.9904214" lon="10.6874668"><ele>925.0</ele><time>2026-04-29T17:07:47.997Z</time></trkpt><trkpt lat="43.9904504" lon="10.6875614"><ele>925.0</ele><time>2026-04-29T17:07:49.025Z</time></trkpt><trkpt lat="43.9904683" lon="10.6876502"><ele>925.0</ele><time>2026-04-29T17:07:50.02Z</time></trkpt><trkpt lat="43.9904964" lon="10.6877906"><ele>924.9999999999999</ele><time>2026-04-29T17:07:52.022Z</time></trkpt><trkpt lat="43.9905373" lon="10.6878879"><ele>925.0</ele><time>2026-04-29T17:07:54.018Z</time></trkpt><trkpt lat="43.9905944" lon="10.6879703"><ele>921.4</ele><time>2026-04-29T17:07:57.017Z</time></trkpt><trkpt lat="43.9906861" lon="10.6879848"><ele>917.8</ele><time>2026-04-29T17:08:13.011Z</time></trkpt><trkpt lat="43.9907628" lon="10.688003"><ele>914.2</ele><time>2026-04-29T17:08:14.006Z</time></trkpt><trkpt lat="43.9908738" lon="10.6880155"><ele>910.6</ele><time>2026-04-29T17:08:16.025Z</time></trkpt><trkpt lat="43.9909741" lon="10.6879999"><ele>907.0</ele><time>2026-04-29T17:08:18.015Z</time></trkpt><trkpt lat="43.9911037" lon="10.6879815"><ele>906.9999999999999</ele><time>2026-04-29T17:08:20.026Z</time></trkpt><trkpt lat="43.991172" lon="10.6879784"><ele>907.0</ele><time>2026-04-29T17:08:21.01Z</time></trkpt><trkpt lat="43.9912453" lon="10.687982"><ele>907.0</ele><time>2026-04-29T17:08:22.016Z</time></trkpt><trkpt lat="43.9913253" lon="10.6879871"><ele>907.0</ele><time>2026-04-29T17:08:23.02Z</time></trkpt><trkpt lat="43.9914078" lon="10.68799"><ele>906.9999999999999</ele><time>2026-04-29T17:08:24.017Z</time></trkpt><trkpt lat="43.9914833" lon="10.6879891"><ele>907.0</ele><time>2026-04-29T17:08:25.042Z</time></trkpt><trkpt lat="43.9915542" lon="10.6880056"><ele>906.9999999999999</ele><time>2026-04-29T17:08:26.022Z</time></trkpt><trkpt lat="43.9916245" lon="10.6880449"><ele>907.0</ele><time>2026-04-29T17:08:27.037Z</time></trkpt><trkpt lat="43.9916876" lon="10.6881003"><ele>907.0</ele><time>2026-04-29T17:08:28.021Z</time></trkpt><trkpt lat="43.9917415" lon="10.6881474"><ele>907.0</ele><time>2026-04-29T17:08:29.02Z</time></trkpt><trkpt lat="43.9918534" lon="10.6881994"><ele>906.9999999999999</ele><time>2026-04-29T17:08:31.025Z</time></trkpt><trkpt lat="43.99192" lon="10.6882082"><ele>907.0</ele><time>2026-04-29T17:08:32.025Z</time></trkpt><trkpt lat="43.9920013" lon="10.6882134"><ele>909.6666666666666</ele><time>2026-04-29T17:08:33.011Z</time></trkpt><trkpt lat="43.9920864" lon="10.688245"><ele>912.3333333333333</ele><time>2026-04-29T17:08:34.038Z</time></trkpt><trkpt lat="43.9921764" lon="10.6882822"><ele>915.0</ele><time>2026-04-29T17:08:35.019Z</time></trkpt><trkpt lat="43.992257" lon="10.6883341"><ele>917.6666666666667</ele><time>2026-04-29T17:08:36.024Z</time></trkpt><trkpt lat="43.9923322" lon="10.6883856"><ele>920.3333333333334</ele><time>2026-04-29T17:08:37.032Z</time></trkpt><trkpt lat="43.9924109" lon="10.6884267"><ele>923.0</ele><time>2026-04-29T17:08:38.016Z</time></trkpt><trkpt lat="43.9924809" lon="10.6884543"><ele>922.1666666666667</ele><time>2026-04-29T17:08:39.027Z</time></trkpt><trkpt lat="43.9925568" lon="10.6884693"><ele>921.3333333333334</ele><time>2026-04-29T17:08:40.006Z</time></trkpt><trkpt lat="43.9926292" lon="10.6884856"><ele>920.5</ele><time>2026-04-29T17:08:41.039Z</time></trkpt><trkpt lat="43.9927018" lon="10.6885043"><ele>919.6666666666667</ele><time>2026-04-29T17:08:42.005Z</time></trkpt><trkpt lat="43.9927832" lon="10.6885301"><ele>918.8333333333334</ele><time>2026-04-29T17:08:43.02Z</time></trkpt><trkpt lat="43.9928654" lon="10.6885761"><ele>918.0</ele><time>2026-04-29T17:08:44.025Z</time></trkpt><trkpt lat="43.9929407" lon="10.6886619"><ele>918.0</ele><time>2026-04-29T17:08:45.015Z</time></trkpt><trkpt lat="43.9930156" lon="10.6887586"><ele>918.0</ele><time>2026-04-29T17:08:46.034Z</time></trkpt><trkpt lat="43.9930771" lon="10.6888335"><ele>918.0</ele><time>2026-04-29T17:08:47.017Z</time></trkpt><trkpt lat="43.9931507" lon="10.6888975"><ele>918.0</ele><time>2026-04-29T17:08:48.025Z</time></trkpt><trkpt lat="43.9932327" lon="10.6889478"><ele>918.0</ele><time>2026-04-29T17:08:49.028Z</time></trkpt><trkpt lat="43.9933348" lon="10.6889781"><ele>919.8</ele><time>2026-04-29T17:08:50.012Z</time></trkpt><trkpt lat="43.9934518" lon="10.6890101"><ele>921.5999999999999</ele><time>2026-04-29T17:08:51.026Z</time></trkpt><trkpt lat="43.9935627" lon="10.6890462"><ele>923.4000000000001</ele><time>2026-04-29T17:08:52.012Z</time></trkpt><trkpt lat="43.9936646" lon="10.6890898"><ele>925.2</ele><time>2026-04-29T17:08:53.035Z</time></trkpt><trkpt lat="43.9937687" lon="10.6891105"><ele>927.0</ele><time>2026-04-29T17:08:54.02Z</time></trkpt><trkpt lat="43.993857" lon="10.689136"><ele>927.0</ele><time>2026-04-29T17:08:55.027Z</time></trkpt><trkpt lat="43.9939453" lon="10.6891723"><ele>927.0</ele><time>2026-04-29T17:08:56.021Z</time></trkpt><trkpt lat="43.9940405" lon="10.6892335"><ele>927.0</ele><time>2026-04-29T17:08:57.031Z</time></trkpt><trkpt lat="43.9941277" lon="10.6892912"><ele>927.0</ele><time>2026-04-29T17:08:58.024Z</time></trkpt><trkpt lat="43.9942052" lon="10.6893499"><ele>927.0</ele><time>2026-04-29T17:08:59.039Z</time></trkpt><trkpt lat="43.9942757" lon="10.6893968"><ele>928.7142857142856</ele><time>2026-04-29T17:09:00.017Z</time></trkpt><trkpt lat="43.9943411" lon="10.6894235"><ele>930.4285714285713</ele><time>2026-04-29T17:09:01.028Z</time></trkpt><trkpt lat="43.994414" lon="10.6894201"><ele>932.1428571428571</ele><time>2026-04-29T17:09:02.031Z</time></trkpt><trkpt lat="43.9944888" lon="10.6894061"><ele>933.8571428571428</ele><time>2026-04-29T17:09:03.018Z</time></trkpt><trkpt lat="43.9945567" lon="10.6893841"><ele>935.5714285714284</ele><time>2026-04-29T17:09:04.028Z</time></trkpt><trkpt lat="43.9946287" lon="10.689369"><ele>937.2857142857143</ele><time>2026-04-29T17:09:05.03Z</time></trkpt><trkpt lat="43.9946998" lon="10.6893659"><ele>939.0</ele><time>2026-04-29T17:09:06.03Z</time></trkpt><trkpt lat="43.9947776" lon="10.6893808"><ele>939.0</ele><time>2026-04-29T17:09:07.026Z</time></trkpt><trkpt lat="43.9948574" lon="10.689397"><ele>939.0</ele><time>2026-04-29T17:09:08.005Z</time></trkpt><trkpt lat="43.9949441" lon="10.6894177"><ele>939.0</ele><time>2026-04-29T17:09:09.02Z</time></trkpt><trkpt lat="43.9950326" lon="10.6894316"><ele>939.0</ele><time>2026-04-29T17:09:10.018Z</time></trkpt><trkpt lat="43.9951065" lon="10.6894417"><ele>939.0</ele><time>2026-04-29T17:09:11.021Z</time></trkpt><trkpt lat="43.9951762" lon="10.689445"><ele>939.0</ele><time>2026-04-29T17:09:12.014Z</time></trkpt><trkpt lat="43.9952481" lon="10.6894391"><ele>939.0</ele><time>2026-04-29T17:09:13.026Z</time></trkpt><trkpt lat="43.9953119" lon="10.6894225"><ele>939.0000000000001</ele><time>2026-04-29T17:09:14.046Z</time></trkpt><trkpt lat="43.9953738" lon="10.6893971"><ele>939.0000000000001</ele><time>2026-04-29T17:09:15.017Z</time></trkpt><trkpt lat="43.995468" lon="10.6893726"><ele>939.0</ele><time>2026-04-29T17:09:17.016Z</time></trkpt><trkpt lat="43.995539" lon="10.6894353"><ele>939.0</ele><time>2026-04-29T17:09:19.026Z</time></trkpt><trkpt lat="43.995589" lon="10.6896244"><ele>939.0</ele><time>2026-04-29T17:09:21.022Z</time></trkpt><trkpt lat="43.9956276" lon="10.6897309"><ele>939.0000000000001</ele><time>2026-04-29T17:09:22.018Z</time></trkpt><trkpt lat="43.9956711" lon="10.6898456"><ele>939.0000000000001</ele><time>2026-04-29T17:09:23.031Z</time></trkpt><trkpt lat="43.995712" lon="10.6899593"><ele>939.0</ele><time>2026-04-29T17:09:24.021Z</time></trkpt><trkpt lat="43.9957458" lon="10.690088"><ele>939.0</ele><time>2026-04-29T17:09:25.024Z</time></trkpt><trkpt lat="43.9957916" lon="10.6902177"><ele>938.4000000000001</ele><time>2026-04-29T17:09:26.011Z</time></trkpt><trkpt lat="43.9958323" lon="10.6903485"><ele>937.8000000000001</ele><time>2026-04-29T17:09:27.016Z</time></trkpt><trkpt lat="43.9958688" lon="10.690478"><ele>937.1999999999999</ele><time>2026-04-29T17:09:28.018Z</time></trkpt><trkpt lat="43.9959049" lon="10.690609"><ele>936.5999999999999</ele><time>2026-04-29T17:09:29.024Z</time></trkpt><trkpt lat="43.9959431" lon="10.6907381"><ele>936.0</ele><time>2026-04-29T17:09:30.024Z</time></trkpt><trkpt lat="43.9959778" lon="10.6908685"><ele>940.5</ele><time>2026-04-29T17:09:31.024Z</time></trkpt><trkpt lat="43.996013" lon="10.6909847"><ele>945.0</ele><time>2026-04-29T17:09:32.017Z</time></trkpt><trkpt lat="43.996056" lon="10.6910923"><ele>949.5</ele><time>2026-04-29T17:09:33.031Z</time></trkpt><trkpt lat="43.9961071" lon="10.6911738"><ele>954.0</ele><time>2026-04-29T17:09:34.012Z</time></trkpt><trkpt lat="43.9961592" lon="10.6912462"><ele>958.5</ele><time>2026-04-29T17:09:35.026Z</time></trkpt><trkpt lat="43.9962075" lon="10.6913151"><ele>963.0</ele><time>2026-04-29T17:09:35.991Z</time></trkpt><trkpt lat="43.9962622" lon="10.6913851"><ele>963.0000000000001</ele><time>2026-04-29T17:09:37.016Z</time></trkpt><trkpt lat="43.9963152" lon="10.691443"><ele>963.0</ele><time>2026-04-29T17:09:38.021Z</time></trkpt><trkpt lat="43.9963797" lon="10.6914928"><ele>963.0000000000001</ele><time>2026-04-29T17:09:39.028Z</time></trkpt><trkpt lat="43.9964435" lon="10.6915362"><ele>963.0000000000001</ele><time>2026-04-29T17:09:40.021Z</time></trkpt><trkpt lat="43.9965002" lon="10.6915883"><ele>963.0</ele><time>2026-04-29T17:09:41.021Z</time></trkpt><trkpt lat="43.9965619" lon="10.6916432"><ele>963.0000000000001</ele><time>2026-04-29T17:09:42.026Z</time></trkpt><trkpt lat="43.9966214" lon="10.6917041"><ele>963.0000000000001</ele><time>2026-04-29T17:09:43.008Z</time></trkpt><trkpt lat="43.9966669" lon="10.6917844"><ele>963.6666666666666</ele><time>2026-04-29T17:09:44.019Z</time></trkpt><trkpt lat="43.9966952" lon="10.6918946"><ele>964.3333333333333</ele><time>2026-04-29T17:09:45.019Z</time></trkpt><trkpt lat="43.9967139" lon="10.6920119"><ele>965.0</ele><time>2026-04-29T17:09:46.011Z</time></trkpt><trkpt lat="43.9967246" lon="10.6921318"><ele>965.6666666666666</ele><time>2026-04-29T17:09:47.024Z</time></trkpt><trkpt lat="43.9967214" lon="10.6922545"><ele>966.3333333333333</ele><time>2026-04-29T17:09:48.027Z</time></trkpt><trkpt lat="43.9967228" lon="10.6923509"><ele>967.0</ele><time>2026-04-29T17:09:49.029Z</time></trkpt><trkpt lat="43.996724" lon="10.6925127"><ele>967.1666666666666</ele><time>2026-04-29T17:09:51.051Z</time></trkpt><trkpt lat="43.9967496" lon="10.6926728"><ele>967.3333333333333</ele><time>2026-04-29T17:09:53.035Z</time></trkpt><trkpt lat="43.996791" lon="10.6927696"><ele>967.5</ele><time>2026-04-29T17:09:54.019Z</time></trkpt><trkpt lat="43.9968343" lon="10.6928592"><ele>967.6666666666667</ele><time>2026-04-29T17:09:55.033Z</time></trkpt><trkpt lat="43.9968774" lon="10.6929353"><ele>967.8333333333334</ele><time>2026-04-29T17:09:56.008Z</time></trkpt><trkpt lat="43.9969457" lon="10.693"><ele>968.0</ele><time>2026-04-29T17:09:58.021Z</time></trkpt><trkpt lat="43.9970522" lon="10.6930272"><ele>968.0000000000001</ele><time>2026-04-29T17:10:00.022Z</time></trkpt><trkpt lat="43.9971752" lon="10.6930159"><ele>968.0</ele><time>2026-04-29T17:10:02.022Z</time></trkpt><trkpt lat="43.9972478" lon="10.6930064"><ele>968.0</ele><time>2026-04-29T17:10:03.038Z</time></trkpt><trkpt lat="43.9973246" lon="10.6930043"><ele>968.0</ele><time>2026-04-29T17:10:04.037Z</time></trkpt><trkpt lat="43.9974063" lon="10.693024"><ele>968.0000000000001</ele><time>2026-04-29T17:10:05.037Z</time></trkpt><trkpt lat="43.9974729" lon="10.6930737"><ele>968.0</ele><time>2026-04-29T17:10:06.014Z</time></trkpt><trkpt lat="43.9975376" lon="10.6931281"><ele>970.5999999999999</ele><time>2026-04-29T17:10:07.02Z</time></trkpt><trkpt lat="43.9976093" lon="10.6932426"><ele>973.1999999999999</ele><time>2026-04-29T17:10:09.022Z</time></trkpt><trkpt lat="43.9976592" lon="10.6933584"><ele>975.8</ele><time>2026-04-29T17:10:12.031Z</time></trkpt><trkpt lat="43.9977248" lon="10.693476"><ele>978.4</ele><time>2026-04-29T17:10:14.012Z</time></trkpt><trkpt lat="43.9978294" lon="10.6935649"><ele>981.0</ele><time>2026-04-29T17:10:16.034Z</time></trkpt><trkpt lat="43.9979195" lon="10.6935772"><ele>981.0</ele><time>2026-04-29T17:10:17.015Z</time></trkpt><trkpt lat="43.9980217" lon="10.6935762"><ele>980.9999999999999</ele><time>2026-04-29T17:10:18.019Z</time></trkpt><trkpt lat="43.9981206" lon="10.6935652"><ele>980.9999999999999</ele><time>2026-04-29T17:10:19.016Z</time></trkpt><trkpt lat="43.9982182" lon="10.693561"><ele>981.0</ele><time>2026-04-29T17:10:20.032Z</time></trkpt><trkpt lat="43.9983001" lon="10.6935734"><ele>981.0</ele><time>2026-04-29T17:10:21.003Z</time></trkpt><trkpt lat="43.9983754" lon="10.6936239"><ele>980.5</ele><time>2026-04-29T17:10:22.019Z</time></trkpt><trkpt lat="43.9984622" lon="10.6936967"><ele>980.0</ele><time>2026-04-29T17:10:23.033Z</time></trkpt><trkpt lat="43.9985494" lon="10.693793"><ele>979.5</ele><time>2026-04-29T17:10:24.015Z</time></trkpt><trkpt lat="43.9986337" lon="10.6939"><ele>979.0</ele><time>2026-04-29T17:10:25.018Z</time></trkpt><trkpt lat="43.9987152" lon="10.6940445"><ele>979.0</ele><time>2026-04-29T17:10:26.024Z</time></trkpt><trkpt lat="43.9987941" lon="10.6941967"><ele>979.0000000000001</ele><time>2026-04-29T17:10:27.004Z</time></trkpt><trkpt lat="43.9988613" lon="10.6943348"><ele>979.0000000000001</ele><time>2026-04-29T17:10:28.011Z</time></trkpt><trkpt lat="43.9989016" lon="10.6944475"><ele>979.0</ele><time>2026-04-29T17:10:29.034Z</time></trkpt><trkpt lat="43.9989297" lon="10.6945613"><ele>979.0</ele><time>2026-04-29T17:10:30.026Z</time></trkpt><trkpt lat="43.9989719" lon="10.6946723"><ele>980.2</ele><time>2026-04-29T17:10:31.035Z</time></trkpt><trkpt lat="43.9990444" lon="10.6947775"><ele>981.4000000000001</ele><time>2026-04-29T17:10:32.015Z</time></trkpt><trkpt lat="43.9991539" lon="10.6948553"><ele>982.6</ele><time>2026-04-29T17:10:33.026Z</time></trkpt><trkpt lat="43.9992485" lon="10.6949242"><ele>983.8</ele><time>2026-04-29T17:10:34.029Z</time></trkpt><trkpt lat="43.9993178" lon="10.6949913"><ele>985.0</ele><time>2026-04-29T17:10:35.02Z</time></trkpt><trkpt lat="43.9993666" lon="10.6950748"><ele>986.2</ele><time>2026-04-29T17:10:36.033Z</time></trkpt><trkpt lat="43.9994151" lon="10.6951546"><ele>987.4</ele><time>2026-04-29T17:10:37.016Z</time></trkpt><trkpt lat="43.999486" lon="10.6952244"><ele>988.5999999999999</ele><time>2026-04-29T17:10:38.026Z</time></trkpt><trkpt lat="43.9995826" lon="10.6952722"><ele>989.8</ele><time>2026-04-29T17:10:39.028Z</time></trkpt><trkpt lat="43.9996731" lon="10.6953214"><ele>991.0</ele><time>2026-04-29T17:10:39.999Z</time></trkpt><trkpt lat="43.9997628" lon="10.6953666"><ele>991.4</ele><time>2026-04-29T17:10:41.038Z</time></trkpt><trkpt lat="43.9998481" lon="10.6954129"><ele>991.8</ele><time>2026-04-29T17:10:42.014Z</time></trkpt><trkpt lat="43.9999354" lon="10.6954643"><ele>992.1999999999999</ele><time>2026-04-29T17:10:43.009Z</time></trkpt><trkpt lat="44.0000238" lon="10.6955098"><ele>992.5999999999999</ele><time>2026-04-29T17:10:44.017Z</time></trkpt><trkpt lat="44.0001196" lon="10.6955503"><ele>993.0</ele><time>2026-04-29T17:10:45.031Z</time></trkpt><trkpt lat="44.0002185" lon="10.6955944"><ele>993.0</ele><time>2026-04-29T17:10:46.012Z</time></trkpt><trkpt lat="44.0003162" lon="10.695644"><ele>993.0</ele><time>2026-04-29T17:10:47.029Z</time></trkpt><trkpt lat="44.0004086" lon="10.6956943"><ele>993.0</ele><time>2026-04-29T17:10:48.022Z</time></trkpt><trkpt lat="44.0004887" lon="10.6957477"><ele>993.0</ele><time>2026-04-29T17:10:49.032Z</time></trkpt><trkpt lat="44.0005711" lon="10.6958093"><ele>993.0</ele><time>2026-04-29T17:10:50.02Z</time></trkpt><trkpt lat="44.0006479" lon="10.6958657"><ele>993.0</ele><time>2026-04-29T17:10:51.01Z</time></trkpt><trkpt lat="44.0007195" lon="10.6959114"><ele>993.0</ele><time>2026-04-29T17:10:52.019Z</time></trkpt><trkpt lat="44.0007903" lon="10.6959371"><ele>993.0</ele><time>2026-04-29T17:10:53.034Z</time></trkpt><trkpt lat="44.0008631" lon="10.695941"><ele>993.0</ele><time>2026-04-29T17:10:54.02Z</time></trkpt><trkpt lat="44.0009462" lon="10.6959331"><ele>993.0</ele><time>2026-04-29T17:10:55.031Z</time></trkpt><trkpt lat="44.0010406" lon="10.6959201"><ele>993.0</ele><time>2026-04-29T17:10:56.02Z</time></trkpt><trkpt lat="44.0011426" lon="10.6959026"><ele>994.0</ele><time>2026-04-29T17:10:57.021Z</time></trkpt><trkpt lat="44.0012394" lon="10.6958784"><ele>995.0</ele><time>2026-04-29T17:10:58.021Z</time></trkpt><trkpt lat="44.0013376" lon="10.6958418"><ele>996.0</ele><time>2026-04-29T17:10:59.021Z</time></trkpt><trkpt lat="44.0014304" lon="10.6958135"><ele>997.0</ele><time>2026-04-29T17:11:00.026Z</time></trkpt><trkpt lat="44.0015078" lon="10.6958136"><ele>998.0</ele><time>2026-04-29T17:11:01.02Z</time></trkpt><trkpt lat="44.0015899" lon="10.6958453"><ele>998.0</ele><time>2026-04-29T17:11:02.016Z</time></trkpt><trkpt lat="44.0016636" lon="10.6959052"><ele>998.0</ele><time>2026-04-29T17:11:03.02Z</time></trkpt><trkpt lat="44.0017428" lon="10.6959829"><ele>998.0</ele><time>2026-04-29T17:11:04.017Z</time></trkpt><trkpt lat="44.0018146" lon="10.696109"><ele>998.0</ele><time>2026-04-29T17:11:05.013Z</time></trkpt><trkpt lat="44.00188" lon="10.6962396"><ele>998.0</ele><time>2026-04-29T17:11:06.021Z</time></trkpt><trkpt lat="44.0019258" lon="10.6963603"><ele>997.6666666666667</ele><time>2026-04-29T17:11:07.007Z</time></trkpt><trkpt lat="44.0019708" lon="10.6964488"><ele>997.3333333333334</ele><time>2026-04-29T17:11:08.033Z</time></trkpt><trkpt lat="44.002021" lon="10.696512"><ele>997.0</ele><time>2026-04-29T17:11:09.021Z</time></trkpt><trkpt lat="44.0020918" lon="10.6965458"><ele>996.6666666666667</ele><time>2026-04-29T17:11:10.017Z</time></trkpt><trkpt lat="44.0021774" lon="10.6965785"><ele>996.3333333333334</ele><time>2026-04-29T17:11:11.016Z</time></trkpt><trkpt lat="44.0022786" lon="10.6965877"><ele>996.0</ele><time>2026-04-29T17:11:12.016Z</time></trkpt><trkpt lat="44.002383" lon="10.6965936"><ele>996.0</ele><time>2026-04-29T17:11:13.032Z</time></trkpt><trkpt lat="44.0024914" lon="10.6965905"><ele>996.0</ele><time>2026-04-29T17:11:14.016Z</time></trkpt><trkpt lat="44.0025959" lon="10.6965743"><ele>996.0</ele><time>2026-04-29T17:11:15.022Z</time></trkpt><trkpt lat="44.0027117" lon="10.6965325"><ele>996.0</ele><time>2026-04-29T17:11:16.017Z</time></trkpt><trkpt lat="44.0028295" lon="10.6964794"><ele>996.8</ele><time>2026-04-29T17:11:17.025Z</time></trkpt><trkpt lat="44.0029362" lon="10.6964312"><ele>997.5999999999999</ele><time>2026-04-29T17:11:18.03Z</time></trkpt><trkpt lat="44.0030351" lon="10.6964072"><ele>998.4</ele><time>2026-04-29T17:11:19.034Z</time></trkpt><trkpt lat="44.0031252" lon="10.6964294"><ele>999.2</ele><time>2026-04-29T17:11:20.02Z</time></trkpt><trkpt lat="44.0032082" lon="10.6965146"><ele>1000.0</ele><time>2026-04-29T17:11:21.019Z</time></trkpt><trkpt lat="44.0032654" lon="10.6966391"><ele>998.75</ele><time>2026-04-29T17:11:22.014Z</time></trkpt><trkpt lat="44.0033326" lon="10.6967576"><ele>997.5</ele><time>2026-04-29T17:11:23.024Z</time></trkpt><trkpt lat="44.0034078" lon="10.6968873"><ele>996.25</ele><time>2026-04-29T17:11:24.017Z</time></trkpt><trkpt lat="44.0035152" lon="10.6970088"><ele>995.0</ele><time>2026-04-29T17:11:25.019Z</time></trkpt><trkpt lat="44.0036147" lon="10.6971388"><ele>995.0</ele><time>2026-04-29T17:11:26.016Z</time></trkpt><trkpt lat="44.0037088" lon="10.697239"><ele>995.0</ele><time>2026-04-29T17:11:27.028Z</time></trkpt><trkpt lat="44.0037889" lon="10.6973448"><ele>995.0</ele><time>2026-04-29T17:11:28.014Z</time></trkpt><trkpt lat="44.0038625" lon="10.6974489"><ele>995.0</ele><time>2026-04-29T17:11:29.037Z</time></trkpt><trkpt lat="44.0039227" lon="10.6975437"><ele>995.0</ele><time>2026-04-29T17:11:30.022Z</time></trkpt><trkpt lat="44.0039767" lon="10.6976242"><ele>995.0000000000001</ele><time>2026-04-29T17:11:31.024Z</time></trkpt><trkpt lat="44.0040315" lon="10.6976767"><ele>995.0</ele><time>2026-04-29T17:11:32.027Z</time></trkpt><trkpt lat="44.0041021" lon="10.6977149"><ele>995.0</ele><time>2026-04-29T17:11:33.024Z</time></trkpt><trkpt lat="44.0041842" lon="10.6977162"><ele>995.0</ele><time>2026-04-29T17:11:34.015Z</time></trkpt><trkpt lat="44.0042728" lon="10.6976993"><ele>995.0000000000001</ele><time>2026-04-29T17:11:35.035Z</time></trkpt><trkpt lat="44.0043757" lon="10.6976806"><ele>995.0</ele><time>2026-04-29T17:11:36.02Z</time></trkpt><trkpt lat="44.0044785" lon="10.6976612"><ele>1000.5</ele><time>2026-04-29T17:11:37.016Z</time></trkpt><trkpt lat="44.0045893" lon="10.6976546"><ele>1006.0</ele><time>2026-04-29T17:11:38.031Z</time></trkpt><trkpt lat="44.004713" lon="10.6976617"><ele>1011.5</ele><time>2026-04-29T17:11:39.02Z</time></trkpt><trkpt lat="44.0048345" lon="10.6976783"><ele>1017.0</ele><time>2026-04-29T17:11:40.009Z</time></trkpt><trkpt lat="44.0049569" lon="10.6977032"><ele>1017.75</ele><time>2026-04-29T17:11:41.03Z</time></trkpt><trkpt lat="44.0050771" lon="10.6977119"><ele>1018.5</ele><time>2026-04-29T17:11:42.014Z</time></trkpt><trkpt lat="44.0052013" lon="10.6977288"><ele>1019.25</ele><time>2026-04-29T17:11:43.02Z</time></trkpt><trkpt lat="44.0053228" lon="10.6977494"><ele>1020.0</ele><time>2026-04-29T17:11:44.013Z</time></trkpt><trkpt lat="44.0054518" lon="10.69776"><ele>1020.0</ele><time>2026-04-29T17:11:45.046Z</time></trkpt><trkpt lat="44.0055788" lon="10.6977668"><ele>1020.0</ele><time>2026-04-29T17:11:46.028Z</time></trkpt><trkpt lat="44.0057095" lon="10.6977481"><ele>1020.0</ele><time>2026-04-29T17:11:47.022Z</time></trkpt><trkpt lat="44.0058272" lon="10.6977462"><ele>1020.0</ele><time>2026-04-29T17:11:48.031Z</time></trkpt><trkpt lat="44.0059328" lon="10.6977772"><ele>1014.0</ele><time>2026-04-29T17:11:49.024Z</time></trkpt><trkpt lat="44.0060403" lon="10.6978208"><ele>1008.0</ele><time>2026-04-29T17:11:50.013Z</time></trkpt><trkpt lat="44.006145" lon="10.697869"><ele>1002.0</ele><time>2026-04-29T17:11:51.029Z</time></trkpt><trkpt lat="44.0062403" lon="10.6979251"><ele>996.0</ele><time>2026-04-29T17:11:52.019Z</time></trkpt><trkpt lat="44.006331" lon="10.6979905"><ele>990.0</ele><time>2026-04-29T17:11:53.023Z</time></trkpt><trkpt lat="44.0064287" lon="10.698066"><ele>990.0</ele><time>2026-04-29T17:11:54.03Z</time></trkpt><trkpt lat="44.0065237" lon="10.6981512"><ele>990.0</ele><time>2026-04-29T17:11:55.033Z</time></trkpt><trkpt lat="44.0066057" lon="10.6982444"><ele>990.0</ele><time>2026-04-29T17:11:56.012Z</time></trkpt><trkpt lat="44.0066726" lon="10.698345"><ele>990.0</ele><time>2026-04-29T17:11:57.023Z</time></trkpt><trkpt lat="44.0067389" lon="10.6984357"><ele>990.0</ele><time>2026-04-29T17:11:58.017Z</time></trkpt><trkpt lat="44.0068071" lon="10.6985029"><ele>991.6666666666666</ele><time>2026-04-29T17:11:59.024Z</time></trkpt><trkpt lat="44.0068778" lon="10.6985559"><ele>993.3333333333333</ele><time>2026-04-29T17:12:00.015Z</time></trkpt><trkpt lat="44.0069453" lon="10.6985987"><ele>995.0</ele><time>2026-04-29T17:12:01.016Z</time></trkpt><trkpt lat="44.0070065" lon="10.6986391"><ele>996.6666666666666</ele><time>2026-04-29T17:12:02.012Z</time></trkpt><trkpt lat="44.0070043" lon="10.6987869"><ele>998.3333333333333</ele><time>2026-04-29T17:12:07.072Z</time></trkpt><trkpt lat="44.0070084" lon="10.6986509"><ele>1000.0</ele><time>2026-04-29T17:12:08.998Z</time></trkpt><trkpt lat="44.0070207" lon="10.698755"><ele>999.9999999999999</ele><time>2026-04-29T17:12:13.016Z</time></trkpt><trkpt lat="44.0070774" lon="10.6989123"><ele>1000.0</ele><time>2026-04-29T17:12:15.014Z</time></trkpt><trkpt lat="44.0070989" lon="10.6990094"><ele>1000.0</ele><time>2026-04-29T17:12:16.032Z</time></trkpt><trkpt lat="44.007116" lon="10.6991023"><ele>1000.0</ele><time>2026-04-29T17:12:17.002Z</time></trkpt><trkpt lat="44.0071154" lon="10.6992046"><ele>999.9999999999999</ele><time>2026-04-29T17:12:18.006Z</time></trkpt><trkpt lat="44.0071023" lon="10.699303"><ele>1000.0</ele><time>2026-04-29T17:12:19.009Z</time></trkpt><trkpt lat="44.0070917" lon="10.6994041"><ele>999.6666666666666</ele><time>2026-04-29T17:12:20.005Z</time></trkpt><trkpt lat="44.0070841" lon="10.6995133"><ele>999.3333333333333</ele><time>2026-04-29T17:12:21.016Z</time></trkpt><trkpt lat="44.0070819" lon="10.6996245"><ele>999.0</ele><time>2026-04-29T17:12:22.013Z</time></trkpt><trkpt lat="44.0070798" lon="10.6997328"><ele>998.6666666666667</ele><time>2026-04-29T17:12:23.014Z</time></trkpt><trkpt lat="44.0070804" lon="10.6998287"><ele>998.3333333333334</ele><time>2026-04-29T17:12:24.014Z</time></trkpt><trkpt lat="44.0071272" lon="10.6999866"><ele>998.0</ele><time>2026-04-29T17:12:26.019Z</time></trkpt><trkpt lat="44.0071809" lon="10.7000643"><ele>998.0000000000001</ele><time>2026-04-29T17:12:27.004Z</time></trkpt><trkpt lat="44.0072414" lon="10.7001349"><ele>998.0</ele><time>2026-04-29T17:12:28.03Z</time></trkpt><trkpt lat="44.0073015" lon="10.7001956"><ele>998.0</ele><time>2026-04-29T17:12:29.002Z</time></trkpt><trkpt lat="44.0073695" lon="10.7002582"><ele>998.0</ele><time>2026-04-29T17:12:30.01Z</time></trkpt><trkpt lat="44.0074477" lon="10.7003176"><ele>998.0000000000001</ele><time>2026-04-29T17:12:31.017Z</time></trkpt><trkpt lat="44.0075175" lon="10.700371"><ele>998.0</ele><time>2026-04-29T17:12:32.026Z</time></trkpt><trkpt lat="44.007579" lon="10.7004327"><ele>999.6666666666667</ele><time>2026-04-29T17:12:33.011Z</time></trkpt><trkpt lat="44.0076376" lon="10.7005085"><ele>1001.3333333333334</ele><time>2026-04-29T17:12:34.028Z</time></trkpt><trkpt lat="44.007687" lon="10.7005916"><ele>1003.0</ele><time>2026-04-29T17:12:35.021Z</time></trkpt><trkpt lat="44.0077296" lon="10.7006817"><ele>1004.6666666666667</ele><time>2026-04-29T17:12:36.019Z</time></trkpt><trkpt lat="44.0077734" lon="10.7007771"><ele>1006.3333333333334</ele><time>2026-04-29T17:12:37.016Z</time></trkpt><trkpt lat="44.0078245" lon="10.7008685"><ele>1008.0</ele><time>2026-04-29T17:12:38.022Z</time></trkpt><trkpt lat="44.0078855" lon="10.7009536"><ele>1008.0</ele><time>2026-04-29T17:12:39.013Z</time></trkpt><trkpt lat="44.0079503" lon="10.7010292"><ele>1008.0</ele><time>2026-04-29T17:12:40.029Z</time></trkpt><trkpt lat="44.0080158" lon="10.7010955"><ele>1008.0</ele><time>2026-04-29T17:12:41.02Z</time></trkpt><trkpt lat="44.008084" lon="10.701163"><ele>1008.0</ele><time>2026-04-29T17:12:42.023Z</time></trkpt><trkpt lat="44.0081483" lon="10.7012289"><ele>1008.0</ele><time>2026-04-29T17:12:43.011Z</time></trkpt><trkpt lat="44.0082066" lon="10.7012906"><ele>1008.0</ele><time>2026-04-29T17:12:44.047Z</time></trkpt><trkpt lat="44.0082647" lon="10.7013354"><ele>1008.3333333333334</ele><time>2026-04-29T17:12:45.018Z</time></trkpt><trkpt lat="44.0083619" lon="10.7014215"><ele>1008.6666666666667</ele><time>2026-04-29T17:12:47.015Z</time></trkpt><trkpt lat="44.0084135" lon="10.7015553"><ele>1009.0</ele><time>2026-04-29T17:12:49.018Z</time></trkpt><trkpt lat="44.008424" lon="10.7016556"><ele>1009.3333333333334</ele><time>2026-04-29T17:12:50.018Z</time></trkpt><trkpt lat="44.0084182" lon="10.7017558"><ele>1009.6666666666667</ele><time>2026-04-29T17:12:51.024Z</time></trkpt><trkpt lat="44.0084225" lon="10.7018547"><ele>1010.0</ele><time>2026-04-29T17:12:52.014Z</time></trkpt><trkpt lat="44.0084318" lon="10.7019426"><ele>1008.1666666666667</ele><time>2026-04-29T17:12:53.004Z</time></trkpt><trkpt lat="44.0084413" lon="10.7020519"><ele>1006.3333333333334</ele><time>2026-04-29T17:12:54.021Z</time></trkpt><trkpt lat="44.0084588" lon="10.7021604"><ele>1004.5</ele><time>2026-04-29T17:12:55.012Z</time></trkpt><trkpt lat="44.0084802" lon="10.7022774"><ele>1002.6666666666667</ele><time>2026-04-29T17:12:56.014Z</time></trkpt><trkpt lat="44.0084916" lon="10.7024092"><ele>1000.8333333333334</ele><time>2026-04-29T17:12:56.993Z</time></trkpt><trkpt lat="44.0085066" lon="10.7025343"><ele>999.0</ele><time>2026-04-29T17:12:58.002Z</time></trkpt><trkpt lat="44.0085125" lon="10.7026615"><ele>997.2</ele><time>2026-04-29T17:12:59.007Z</time></trkpt><trkpt lat="44.0085208" lon="10.7027965"><ele>995.4000000000001</ele><time>2026-04-29T17:13:00.008Z</time></trkpt><trkpt lat="44.0085307" lon="10.7029358"><ele>993.6</ele><time>2026-04-29T17:13:01.003Z</time></trkpt><trkpt lat="44.0085587" lon="10.7030651"><ele>991.8</ele><time>2026-04-29T17:13:02.012Z</time></trkpt><trkpt lat="44.008605" lon="10.7032051"><ele>990.0</ele><time>2026-04-29T17:13:03.018Z</time></trkpt><trkpt lat="44.0086687" lon="10.7033512"><ele>990.0</ele><time>2026-04-29T17:13:04.016Z</time></trkpt><trkpt lat="44.0087368" lon="10.7035241"><ele>990.0</ele><time>2026-04-29T17:13:05.01Z</time></trkpt><trkpt lat="44.0088003" lon="10.7036975"><ele>990.0</ele><time>2026-04-29T17:13:06.009Z</time></trkpt><trkpt lat="44.0088454" lon="10.7038653"><ele>990.0</ele><time>2026-04-29T17:13:07.009Z</time></trkpt><trkpt lat="44.0088799" lon="10.7039924"><ele>989.6</ele><time>2026-04-29T17:13:08.016Z</time></trkpt><trkpt lat="44.0089078" lon="10.7040912"><ele>989.2</ele><time>2026-04-29T17:13:09.003Z</time></trkpt><trkpt lat="44.0089179" lon="10.7041866"><ele>988.8</ele><time>2026-04-29T17:13:10.021Z</time></trkpt><trkpt lat="44.0088518" lon="10.7043513"><ele>988.4</ele><time>2026-04-29T17:13:12.024Z</time></trkpt><trkpt lat="44.0087792" lon="10.7044741"><ele>988.0</ele><time>2026-04-29T17:13:14.016Z</time></trkpt><trkpt lat="44.008789" lon="10.7046402"><ele>987.5714285714287</ele><time>2026-04-29T17:13:16.019Z</time></trkpt><trkpt lat="44.0088202" lon="10.7047418"><ele>987.1428571428571</ele><time>2026-04-29T17:13:17.014Z</time></trkpt><trkpt lat="44.0088624" lon="10.7048106"><ele>986.7142857142858</ele><time>2026-04-29T17:13:18.015Z</time></trkpt><trkpt lat="44.0089213" lon="10.7048504"><ele>986.2857142857143</ele><time>2026-04-29T17:13:19.004Z</time></trkpt><trkpt lat="44.0089883" lon="10.7048837"><ele>985.8571428571429</ele><time>2026-04-29T17:13:20.012Z</time></trkpt><trkpt lat="44.0090601" lon="10.7049078"><ele>985.4285714285714</ele><time>2026-04-29T17:13:21.014Z</time></trkpt><trkpt lat="44.0091321" lon="10.7049334"><ele>985.0</ele><time>2026-04-29T17:13:22.018Z</time></trkpt><trkpt lat="44.0091964" lon="10.7049731"><ele>985.4285714285714</ele><time>2026-04-29T17:13:23.019Z</time></trkpt><trkpt lat="44.0092547" lon="10.705015"><ele>985.8571428571429</ele><time>2026-04-29T17:13:24.022Z</time></trkpt><trkpt lat="44.0093107" lon="10.7050624"><ele>986.2857142857143</ele><time>2026-04-29T17:13:25.023Z</time></trkpt><trkpt lat="44.0093675" lon="10.7051127"><ele>986.7142857142858</ele><time>2026-04-29T17:13:26.028Z</time></trkpt><trkpt lat="44.0094226" lon="10.7051788"><ele>987.1428571428571</ele><time>2026-04-29T17:13:27.006Z</time></trkpt><trkpt lat="44.0094567" lon="10.7052687"><ele>987.5714285714287</ele><time>2026-04-29T17:13:28.028Z</time></trkpt><trkpt lat="44.009477" lon="10.7053787"><ele>988.0</ele><time>2026-04-29T17:13:28.997Z</time></trkpt><trkpt lat="44.0094856" lon="10.7054853"><ele>988.0</ele><time>2026-04-29T17:13:30.005Z</time></trkpt><trkpt lat="44.0094989" lon="10.7055795"><ele>988.0</ele><time>2026-04-29T17:13:31.011Z</time></trkpt><trkpt lat="44.0095792" lon="10.7057234"><ele>988.0</ele><time>2026-04-29T17:13:33.025Z</time></trkpt><trkpt lat="44.0096408" lon="10.7057976"><ele>988.0</ele><time>2026-04-29T17:13:34.004Z</time></trkpt><trkpt lat="44.0097189" lon="10.7058633"><ele>988.0</ele><time>2026-04-29T17:13:35.003Z</time></trkpt><trkpt lat="44.009793" lon="10.7059266"><ele>987.9999999999999</ele><time>2026-04-29T17:13:36.001Z</time></trkpt><trkpt lat="44.0098577" lon="10.7059924"><ele>988.0</ele><time>2026-04-29T17:13:37.008Z</time></trkpt><trkpt lat="44.0099113" lon="10.7060725"><ele>988.0</ele><time>2026-04-29T17:13:38.005Z</time></trkpt><trkpt lat="44.009949" lon="10.7061483"><ele>988.0</ele><time>2026-04-29T17:13:39.006Z</time></trkpt><trkpt lat="44.0100275" lon="10.7062576"><ele>987.9999999999999</ele><time>2026-04-29T17:13:41.011Z</time></trkpt><trkpt lat="44.0101117" lon="10.7063502"><ele>988.0</ele><time>2026-04-29T17:13:43.015Z</time></trkpt><trkpt lat="44.0101878" lon="10.7064509"><ele>989.4999999999999</ele><time>2026-04-29T17:13:45.015Z</time></trkpt><trkpt lat="44.0102434" lon="10.7064962"><ele>991.0</ele><time>2026-04-29T17:13:47.01Z</time></trkpt><trkpt lat="44.0103116" lon="10.7065107"><ele>992.5</ele><time>2026-04-29T17:13:50.019Z</time></trkpt><trkpt lat="44.010394" lon="10.7064617"><ele>994.0</ele><time>2026-04-29T17:13:53.026Z</time></trkpt><trkpt lat="44.0104706" lon="10.7064045"><ele>995.4999999999999</ele><time>2026-04-29T17:13:56.021Z</time></trkpt><trkpt lat="44.0105601" lon="10.70636"><ele>997.0</ele><time>2026-04-29T17:13:59.024Z</time></trkpt><trkpt lat="44.0106444" lon="10.7063128"><ele>996.9999999999999</ele><time>2026-04-29T17:14:01.02Z</time></trkpt><trkpt lat="44.0107203" lon="10.7063006"><ele>997.0</ele><time>2026-04-29T17:14:03.016Z</time></trkpt><trkpt lat="44.0108153" lon="10.7063325"><ele>997.0</ele><time>2026-04-29T17:14:05.012Z</time></trkpt><trkpt lat="44.0108697" lon="10.7064052"><ele>997.0</ele><time>2026-04-29T17:14:07.023Z</time></trkpt><trkpt lat="44.0109196" lon="10.7064855"><ele>996.9999999999999</ele><time>2026-04-29T17:14:09.007Z</time></trkpt><trkpt lat="44.0109939" lon="10.7065486"><ele>997.0</ele><time>2026-04-29T17:14:10.908Z</time></trkpt><trkpt lat="44.0110969" lon="10.7065842"><ele>996.8</ele><time>2026-04-29T17:14:13.011Z</time></trkpt><trkpt lat="44.0112077" lon="10.7065953"><ele>996.6</ele><time>2026-04-29T17:14:15.029Z</time></trkpt><trkpt lat="44.0113324" lon="10.7066133"><ele>996.3999999999999</ele><time>2026-04-29T17:14:17.013Z</time></trkpt><trkpt lat="44.011416" lon="10.7066237"><ele>996.1999999999999</ele><time>2026-04-29T17:14:18.019Z</time></trkpt><trkpt lat="44.0115037" lon="10.7066302"><ele>996.0</ele><time>2026-04-29T17:14:19.022Z</time></trkpt><trkpt lat="44.0115861" lon="10.7066371"><ele>996.3333333333334</ele><time>2026-04-29T17:14:20.009Z</time></trkpt><trkpt lat="44.0116746" lon="10.7066402"><ele>996.6666666666667</ele><time>2026-04-29T17:14:21.02Z</time></trkpt><trkpt lat="44.0117702" lon="10.7066274"><ele>997.0</ele><time>2026-04-29T17:14:22.01Z</time></trkpt><trkpt lat="44.0118581" lon="10.7066084"><ele>997.3333333333334</ele><time>2026-04-29T17:14:23.015Z</time></trkpt><trkpt lat="44.0119384" lon="10.7065886"><ele>997.6666666666667</ele><time>2026-04-29T17:14:24.023Z</time></trkpt><trkpt lat="44.0120068" lon="10.7065718"><ele>998.0</ele><time>2026-04-29T17:14:25.002Z</time></trkpt><trkpt lat="44.0120742" lon="10.7065446"><ele>998.0</ele><time>2026-04-29T17:14:26.019Z</time></trkpt><trkpt lat="44.0121388" lon="10.7064984"><ele>998.0</ele><time>2026-04-29T17:14:27.026Z</time></trkpt><trkpt lat="44.0122056" lon="10.706429"><ele>998.0</ele><time>2026-04-29T17:14:28.043Z</time></trkpt><trkpt lat="44.0122651" lon="10.7063779"><ele>998.0</ele><time>2026-04-29T17:14:29.023Z</time></trkpt><trkpt lat="44.0123825" lon="10.7063426"><ele>998.0</ele><time>2026-04-29T17:14:31.033Z</time></trkpt><trkpt lat="44.0124814" lon="10.7062898"><ele>996.5999999999999</ele><time>2026-04-29T17:14:33.023Z</time></trkpt><trkpt lat="44.0125827" lon="10.7061812"><ele>995.1999999999999</ele><time>2026-04-29T17:14:35.021Z</time></trkpt><trkpt lat="44.0126358" lon="10.7061297"><ele>993.8</ele><time>2026-04-29T17:14:36.045Z</time></trkpt><trkpt lat="44.012703" lon="10.7061117"><ele>992.4</ele><time>2026-04-29T17:14:37.014Z</time></trkpt><trkpt lat="44.0127954" lon="10.7061148"><ele>991.0</ele><time>2026-04-29T17:14:38.034Z</time></trkpt><trkpt lat="44.0128954" lon="10.7061333"><ele>991.0</ele><time>2026-04-29T17:14:39.015Z</time></trkpt><trkpt lat="44.0130001" lon="10.7061468"><ele>991.0</ele><time>2026-04-29T17:14:40.029Z</time></trkpt><trkpt lat="44.0131184" lon="10.7061452"><ele>991.0</ele><time>2026-04-29T17:14:41.051Z</time></trkpt><trkpt lat="44.0132499" lon="10.7061478"><ele>991.0</ele><time>2026-04-29T17:14:42.017Z</time></trkpt><trkpt lat="44.0133806" lon="10.7061692"><ele>990.0</ele><time>2026-04-29T17:14:43.026Z</time></trkpt><trkpt lat="44.0135006" lon="10.7062068"><ele>989.0</ele><time>2026-04-29T17:14:44.018Z</time></trkpt><trkpt lat="44.0136113" lon="10.7062368"><ele>988.0</ele><time>2026-04-29T17:14:45.03Z</time></trkpt><trkpt lat="44.0137226" lon="10.7062537"><ele>987.0</ele><time>2026-04-29T17:14:46.032Z</time></trkpt><trkpt lat="44.0138274" lon="10.706254"><ele>987.0</ele><time>2026-04-29T17:14:47.034Z</time></trkpt><trkpt lat="44.0139329" lon="10.7062497"><ele>987.0</ele><time>2026-04-29T17:14:48.014Z</time></trkpt><trkpt lat="44.0140406" lon="10.7062157"><ele>987.0</ele><time>2026-04-29T17:14:49.031Z</time></trkpt><trkpt lat="44.0141577" lon="10.7061626"><ele>987.0</ele><time>2026-04-29T17:14:50.027Z</time></trkpt><trkpt lat="44.0142607" lon="10.7061232"><ele>987.0</ele><time>2026-04-29T17:14:51.008Z</time></trkpt><trkpt lat="44.0143509" lon="10.7061185"><ele>987.6666666666666</ele><time>2026-04-29T17:14:52.032Z</time></trkpt><trkpt lat="44.0144331" lon="10.7061332"><ele>988.3333333333333</ele><time>2026-04-29T17:14:53.019Z</time></trkpt><trkpt lat="44.0145017" lon="10.7061281"><ele>989.0</ele><time>2026-04-29T17:14:54.027Z</time></trkpt><trkpt lat="44.014565" lon="10.7060947"><ele>989.6666666666666</ele><time>2026-04-29T17:14:55.015Z</time></trkpt><trkpt lat="44.0146311" lon="10.7060407"><ele>990.3333333333333</ele><time>2026-04-29T17:14:56.025Z</time></trkpt><trkpt lat="44.0147067" lon="10.7059929"><ele>991.0</ele><time>2026-04-29T17:14:57.03Z</time></trkpt><trkpt lat="44.0147821" lon="10.7059652"><ele>992.3333333333333</ele><time>2026-04-29T17:14:58.02Z</time></trkpt><trkpt lat="44.0148624" lon="10.7059692"><ele>993.6666666666666</ele><time>2026-04-29T17:14:59.029Z</time></trkpt><trkpt lat="44.0149329" lon="10.7059789"><ele>995.0</ele><time>2026-04-29T17:15:00.022Z</time></trkpt><trkpt lat="44.0150045" lon="10.7059966"><ele>996.3333333333333</ele><time>2026-04-29T17:15:01.016Z</time></trkpt><trkpt lat="44.0150708" lon="10.7060236"><ele>997.6666666666666</ele><time>2026-04-29T17:15:02.019Z</time></trkpt><trkpt lat="44.0151351" lon="10.7060524"><ele>999.0</ele><time>2026-04-29T17:15:03.013Z</time></trkpt><trkpt lat="44.0152117" lon="10.7061367"><ele>999.0</ele><time>2026-04-29T17:15:05.024Z</time></trkpt><trkpt lat="44.0152462" lon="10.7062757"><ele>999.0000000000001</ele><time>2026-04-29T17:15:07.008Z</time></trkpt><trkpt lat="44.0152192" lon="10.706456"><ele>999.0000000000001</ele><time>2026-04-29T17:15:09.023Z</time></trkpt><trkpt lat="44.0151884" lon="10.7065614"><ele>999.0</ele><time>2026-04-29T17:15:10.019Z</time></trkpt><trkpt lat="44.0151504" lon="10.7066632"><ele>999.0</ele><time>2026-04-29T17:15:11.021Z</time></trkpt><trkpt lat="44.0151087" lon="10.7067545"><ele>999.0</ele><time>2026-04-29T17:15:12.025Z</time></trkpt><trkpt lat="44.0150679" lon="10.7068477"><ele>999.0000000000001</ele><time>2026-04-29T17:15:13.035Z</time></trkpt><trkpt lat="44.0150255" lon="10.7069389"><ele>999.0</ele><time>2026-04-29T17:15:14.024Z</time></trkpt><trkpt lat="44.0149861" lon="10.7070211"><ele>999.0</ele><time>2026-04-29T17:15:15.016Z</time></trkpt><trkpt lat="44.014947" lon="10.7071041"><ele>999.0000000000001</ele><time>2026-04-29T17:15:16.024Z</time></trkpt><trkpt lat="44.0149182" lon="10.70719"><ele>999.0</ele><time>2026-04-29T17:15:17.009Z</time></trkpt><trkpt lat="44.0148969" lon="10.7072904"><ele>999.0</ele><time>2026-04-29T17:15:18.017Z</time></trkpt><trkpt lat="44.014888" lon="10.7074112"><ele>995.6</ele><time>2026-04-29T17:15:19.024Z</time></trkpt><trkpt lat="44.0148776" lon="10.7075365"><ele>992.2</ele><time>2026-04-29T17:15:20.025Z</time></trkpt><trkpt lat="44.0148404" lon="10.7076651"><ele>988.8000000000001</ele><time>2026-04-29T17:15:21.016Z</time></trkpt><trkpt lat="44.0147824" lon="10.7077835"><ele>985.4000000000001</ele><time>2026-04-29T17:15:22.028Z</time></trkpt><trkpt lat="44.0147139" lon="10.7078909"><ele>982.0</ele><time>2026-04-29T17:15:23.017Z</time></trkpt><trkpt lat="44.0146562" lon="10.7079986"><ele>981.0</ele><time>2026-04-29T17:15:24.011Z</time></trkpt><trkpt lat="44.014604" lon="10.7081157"><ele>980.0</ele><time>2026-04-29T17:15:25.024Z</time></trkpt><trkpt lat="44.014565" lon="10.7082311"><ele>979.0</ele><time>2026-04-29T17:15:26.021Z</time></trkpt><trkpt lat="44.0145394" lon="10.7083419"><ele>978.0</ele><time>2026-04-29T17:15:27.02Z</time></trkpt><trkpt lat="44.0145335" lon="10.7084685"><ele>977.0</ele><time>2026-04-29T17:15:28.025Z</time></trkpt><trkpt lat="44.0145565" lon="10.7086135"><ele>976.6</ele><time>2026-04-29T17:15:29.025Z</time></trkpt><trkpt lat="44.0145842" lon="10.7087508"><ele>976.2</ele><time>2026-04-29T17:15:30.032Z</time></trkpt><trkpt lat="44.0145963" lon="10.7088668"><ele>975.8</ele><time>2026-04-29T17:15:31.01Z</time></trkpt><trkpt lat="44.0145999" lon="10.7089853"><ele>975.4</ele><time>2026-04-29T17:15:32.016Z</time></trkpt><trkpt lat="44.014575" lon="10.7091191"><ele>975.0</ele><time>2026-04-29T17:15:33.001Z</time></trkpt><trkpt lat="44.0145519" lon="10.709262"><ele>975.0</ele><time>2026-04-29T17:15:34.027Z</time></trkpt><trkpt lat="44.0145435" lon="10.7093883"><ele>975.0</ele><time>2026-04-29T17:15:35.028Z</time></trkpt><trkpt lat="44.0145356" lon="10.7095055"><ele>975.0</ele><time>2026-04-29T17:15:36.021Z</time></trkpt><trkpt lat="44.0144902" lon="10.7095991"><ele>975.0</ele><time>2026-04-29T17:15:37.019Z</time></trkpt><trkpt lat="44.0144301" lon="10.7096753"><ele>975.0</ele><time>2026-04-29T17:15:38.021Z</time></trkpt><trkpt lat="44.0143676" lon="10.7097403"><ele>975.0</ele><time>2026-04-29T17:15:39.028Z</time></trkpt><trkpt lat="44.0143083" lon="10.7098471"><ele>975.4</ele><time>2026-04-29T17:15:40.034Z</time></trkpt><trkpt lat="44.0142612" lon="10.7099786"><ele>975.8</ele><time>2026-04-29T17:15:41.016Z</time></trkpt><trkpt lat="44.0142146" lon="10.7101245"><ele>976.2</ele><time>2026-04-29T17:15:42.005Z</time></trkpt><trkpt lat="44.0141741" lon="10.7102555"><ele>976.6</ele><time>2026-04-29T17:15:43.026Z</time></trkpt><trkpt lat="44.0141157" lon="10.7103815"><ele>977.0</ele><time>2026-04-29T17:15:44.023Z</time></trkpt><trkpt lat="44.0140535" lon="10.7105056"><ele>975.1666666666667</ele><time>2026-04-29T17:15:45.012Z</time></trkpt><trkpt lat="44.0139947" lon="10.7106182"><ele>973.3333333333334</ele><time>2026-04-29T17:15:46.021Z</time></trkpt><trkpt lat="44.013935" lon="10.7107201"><ele>971.5</ele><time>2026-04-29T17:15:47.004Z</time></trkpt><trkpt lat="44.0138804" lon="10.7108093"><ele>969.6666666666667</ele><time>2026-04-29T17:15:48.021Z</time></trkpt><trkpt lat="44.0138443" lon="10.7108899"><ele>967.8333333333334</ele><time>2026-04-29T17:15:48.997Z</time></trkpt><trkpt lat="44.0138284" lon="10.7109751"><ele>966.0</ele><time>2026-04-29T17:15:50.045Z</time></trkpt><trkpt lat="44.0138371" lon="10.7110841"><ele>966.0</ele><time>2026-04-29T17:15:51.02Z</time></trkpt><trkpt lat="44.0138504" lon="10.7112036"><ele>965.9999999999999</ele><time>2026-04-29T17:15:52.054Z</time></trkpt><trkpt lat="44.0138481" lon="10.7113102"><ele>965.9999999999999</ele><time>2026-04-29T17:15:53.026Z</time></trkpt><trkpt lat="44.0137609" lon="10.7114343"><ele>966.0</ele><time>2026-04-29T17:15:55.029Z</time></trkpt><trkpt lat="44.0136903" lon="10.7115011"><ele>966.0</ele><time>2026-04-29T17:15:56.021Z</time></trkpt><trkpt lat="44.0136213" lon="10.7115678"><ele>966.0</ele><time>2026-04-29T17:15:57.026Z</time></trkpt><trkpt lat="44.0135597" lon="10.7116265"><ele>966.0</ele><time>2026-04-29T17:15:58.031Z</time></trkpt><trkpt lat="44.0135" lon="10.7116785"><ele>966.0</ele><time>2026-04-29T17:15:59.011Z</time></trkpt><trkpt lat="44.0134092" lon="10.7117879"><ele>966.0</ele><time>2026-04-29T17:16:01.016Z</time></trkpt><trkpt lat="44.0133768" lon="10.7118669"><ele>966.0</ele><time>2026-04-29T17:16:02.027Z</time></trkpt><trkpt lat="44.013353" lon="10.711967"><ele>966.0</ele><time>2026-04-29T17:16:03.018Z</time></trkpt><trkpt lat="44.0133359" lon="10.7120887"><ele>963.1666666666666</ele><time>2026-04-29T17:16:04.013Z</time></trkpt><trkpt lat="44.0133182" lon="10.7122195"><ele>960.3333333333333</ele><time>2026-04-29T17:16:05.005Z</time></trkpt><trkpt lat="44.0132832" lon="10.7123451"><ele>957.5</ele><time>2026-04-29T17:16:06.032Z</time></trkpt><trkpt lat="44.0132377" lon="10.7124498"><ele>954.6666666666666</ele><time>2026-04-29T17:16:07.028Z</time></trkpt><trkpt lat="44.0131921" lon="10.7125337"><ele>951.8333333333333</ele><time>2026-04-29T17:16:08.017Z</time></trkpt><trkpt lat="44.0131438" lon="10.7126112"><ele>949.0</ele><time>2026-04-29T17:16:09.011Z</time></trkpt><trkpt lat="44.0130965" lon="10.7127094"><ele>950.8333333333333</ele><time>2026-04-29T17:16:10.014Z</time></trkpt><trkpt lat="44.013054" lon="10.7128215"><ele>952.6666666666666</ele><time>2026-04-29T17:16:11.029Z</time></trkpt><trkpt lat="44.0130175" lon="10.7129342"><ele>954.5</ele><time>2026-04-29T17:16:12.023Z</time></trkpt><trkpt lat="44.0129861" lon="10.7130503"><ele>956.3333333333333</ele><time>2026-04-29T17:16:13.023Z</time></trkpt><trkpt lat="44.0129457" lon="10.7131635"><ele>958.1666666666666</ele><time>2026-04-29T17:16:14.018Z</time></trkpt><trkpt lat="44.0128918" lon="10.7132487"><ele>960.0</ele><time>2026-04-29T17:16:15.023Z</time></trkpt><trkpt lat="44.0128327" lon="10.7132887"><ele>960.0</ele><time>2026-04-29T17:16:16.018Z</time></trkpt><trkpt lat="44.0127024" lon="10.7133071"><ele>960.0</ele><time>2026-04-29T17:16:18.026Z</time></trkpt><trkpt lat="44.0126272" lon="10.7133506"><ele>960.0</ele><time>2026-04-29T17:16:19.021Z</time></trkpt><trkpt lat="44.0125621" lon="10.7134041"><ele>960.0</ele><time>2026-04-29T17:16:20.028Z</time></trkpt><trkpt lat="44.012532" lon="10.7134832"><ele>960.0</ele><time>2026-04-29T17:16:21Z</time></trkpt><trkpt lat="44.0125101" lon="10.7135777"><ele>960.0</ele><time>2026-04-29T17:16:22.016Z</time></trkpt><trkpt lat="44.0124962" lon="10.7137114"><ele>955.6</ele><time>2026-04-29T17:16:23.02Z</time></trkpt><trkpt lat="44.0124823" lon="10.7138523"><ele>951.2</ele><time>2026-04-29T17:16:24.034Z</time></trkpt><trkpt lat="44.0124565" lon="10.7139737"><ele>946.8</ele><time>2026-04-29T17:16:25.018Z</time></trkpt><trkpt lat="44.012418" lon="10.7140945"><ele>942.4</ele><time>2026-04-29T17:16:26.026Z</time></trkpt><trkpt lat="44.012365" lon="10.7142037"><ele>938.0</ele><time>2026-04-29T17:16:27.02Z</time></trkpt><trkpt lat="44.0123054" lon="10.7143163"><ele>939.3333333333334</ele><time>2026-04-29T17:16:28.027Z</time></trkpt><trkpt lat="44.0122526" lon="10.7144194"><ele>940.6666666666667</ele><time>2026-04-29T17:16:29.03Z</time></trkpt><trkpt lat="44.0122003" lon="10.7145161"><ele>942.0</ele><time>2026-04-29T17:16:30.013Z</time></trkpt><trkpt lat="44.0121518" lon="10.714616"><ele>943.3333333333333</ele><time>2026-04-29T17:16:31.012Z</time></trkpt><trkpt lat="44.0121035" lon="10.7147265"><ele>944.6666666666666</ele><time>2026-04-29T17:16:32.016Z</time></trkpt><trkpt lat="44.0120449" lon="10.7148246"><ele>946.0</ele><time>2026-04-29T17:16:33.024Z</time></trkpt><trkpt lat="44.01197" lon="10.7149034"><ele>945.9999999999999</ele><time>2026-04-29T17:16:34.014Z</time></trkpt><trkpt lat="44.0118996" lon="10.7149611"><ele>946.0</ele><time>2026-04-29T17:16:35.028Z</time></trkpt><trkpt lat="44.0118392" lon="10.7150301"><ele>946.0</ele><time>2026-04-29T17:16:36.033Z</time></trkpt><trkpt lat="44.0117831" lon="10.7151084"><ele>946.0</ele><time>2026-04-29T17:16:37.022Z</time></trkpt><trkpt lat="44.0117457" lon="10.7152243"><ele>945.9999999999999</ele><time>2026-04-29T17:16:38.023Z</time></trkpt><trkpt lat="44.0117136" lon="10.7153635"><ele>946.0</ele><time>2026-04-29T17:16:39.032Z</time></trkpt><trkpt lat="44.0117027" lon="10.7155115"><ele>946.5999999999999</ele><time>2026-04-29T17:16:40.03Z</time></trkpt><trkpt lat="44.0117004" lon="10.7156595"><ele>947.1999999999999</ele><time>2026-04-29T17:16:41.023Z</time></trkpt><trkpt lat="44.0117" lon="10.715808"><ele>947.8000000000001</ele><time>2026-04-29T17:16:42.03Z</time></trkpt><trkpt lat="44.011703" lon="10.7159449"><ele>948.4000000000001</ele><time>2026-04-29T17:16:43.026Z</time></trkpt><trkpt lat="44.0116765" lon="10.7160454"><ele>949.0</ele><time>2026-04-29T17:16:44.014Z</time></trkpt><trkpt lat="44.0116142" lon="10.7161274"><ele>946.6</ele><time>2026-04-29T17:16:45.019Z</time></trkpt><trkpt lat="44.0115381" lon="10.716204"><ele>944.2</ele><time>2026-04-29T17:16:46.014Z</time></trkpt><trkpt lat="44.0114657" lon="10.7162635"><ele>941.8000000000001</ele><time>2026-04-29T17:16:47.022Z</time></trkpt><trkpt lat="44.0113868" lon="10.7163211"><ele>939.4000000000001</ele><time>2026-04-29T17:16:48.011Z</time></trkpt><trkpt lat="44.0113057" lon="10.7163993"><ele>937.0</ele><time>2026-04-29T17:16:49.001Z</time></trkpt><trkpt lat="44.0112322" lon="10.7164862"><ele>944.0</ele><time>2026-04-29T17:16:50.003Z</time></trkpt><trkpt lat="44.0108467" lon="10.7171581"><ele>938.8000000000001</ele><time>2026-04-29T17:16:55.067Z</time></trkpt><trkpt lat="44.0107423" lon="10.7172783"><ele>933.6000000000001</ele><time>2026-04-29T17:16:57.016Z</time></trkpt><trkpt lat="44.01069" lon="10.7173959"><ele>928.4</ele><time>2026-04-29T17:16:58.004Z</time></trkpt><trkpt lat="44.0106131" lon="10.7174715"><ele>923.2</ele><time>2026-04-29T17:16:59.018Z</time></trkpt><trkpt lat="44.0105817" lon="10.7175506"><ele>918.0</ele><time>2026-04-29T17:17:00.016Z</time></trkpt><trkpt lat="44.0105355" lon="10.7176642"><ele>918.3333333333334</ele><time>2026-04-29T17:17:01.008Z</time></trkpt><trkpt lat="44.0104927" lon="10.7177613"><ele>918.6666666666667</ele><time>2026-04-29T17:17:02.007Z</time></trkpt><trkpt lat="44.0104664" lon="10.7178445"><ele>919.0</ele><time>2026-04-29T17:17:03.017Z</time></trkpt><trkpt lat="44.0104748" lon="10.7179558"><ele>919.3333333333334</ele><time>2026-04-29T17:17:04.005Z</time></trkpt><trkpt lat="44.0105136" lon="10.7180799"><ele>919.6666666666667</ele><time>2026-04-29T17:17:05.026Z</time></trkpt><trkpt lat="44.0105699" lon="10.7182029"><ele>920.0</ele><time>2026-04-29T17:17:06.014Z</time></trkpt><trkpt lat="44.0106322" lon="10.7183257"><ele>920.0</ele><time>2026-04-29T17:17:07.018Z</time></trkpt><trkpt lat="44.010704" lon="10.7184499"><ele>920.0</ele><time>2026-04-29T17:17:08.016Z</time></trkpt><trkpt lat="44.010785" lon="10.7185697"><ele>920.0</ele><time>2026-04-29T17:17:09.021Z</time></trkpt><trkpt lat="44.0108719" lon="10.7186898"><ele>920.0</ele><time>2026-04-29T17:17:10.02Z</time></trkpt><trkpt lat="44.0109586" lon="10.7187917"><ele>920.2</ele><time>2026-04-29T17:17:11.013Z</time></trkpt><trkpt lat="44.0110381" lon="10.7188732"><ele>920.4</ele><time>2026-04-29T17:17:12.018Z</time></trkpt><trkpt lat="44.0110953" lon="10.7189568"><ele>920.5999999999999</ele><time>2026-04-29T17:17:13.025Z</time></trkpt><trkpt lat="44.0111344" lon="10.7190753"><ele>920.8</ele><time>2026-04-29T17:17:15.027Z</time></trkpt><trkpt lat="44.011122" lon="10.7192253"><ele>921.0</ele><time>2026-04-29T17:17:17.017Z</time></trkpt><trkpt lat="44.0111068" lon="10.7193163"><ele>918.8333333333334</ele><time>2026-04-29T17:17:18.019Z</time></trkpt><trkpt lat="44.0111056" lon="10.7194113"><ele>916.6666666666667</ele><time>2026-04-29T17:17:19.019Z</time></trkpt><trkpt lat="44.0111046" lon="10.7195104"><ele>914.5</ele><time>2026-04-29T17:17:20.012Z</time></trkpt><trkpt lat="44.011131" lon="10.7196129"><ele>912.3333333333334</ele><time>2026-04-29T17:17:21.016Z</time></trkpt><trkpt lat="44.0111922" lon="10.7197363"><ele>910.1666666666667</ele><time>2026-04-29T17:17:22.021Z</time></trkpt><trkpt lat="44.0112715" lon="10.7198543"><ele>908.0</ele><time>2026-04-29T17:17:23.017Z</time></trkpt><trkpt lat="44.0113386" lon="10.719964"><ele>908.0000000000001</ele><time>2026-04-29T17:17:24.02Z</time></trkpt><trkpt lat="44.0114027" lon="10.720051"><ele>908.0</ele><time>2026-04-29T17:17:25.02Z</time></trkpt><trkpt lat="44.0114651" lon="10.7201215"><ele>908.0</ele><time>2026-04-29T17:17:26.018Z</time></trkpt><trkpt lat="44.0115324" lon="10.7201781"><ele>908.0</ele><time>2026-04-29T17:17:27.025Z</time></trkpt><trkpt lat="44.0115987" lon="10.7202315"><ele>908.0000000000001</ele><time>2026-04-29T17:17:28.014Z</time></trkpt><trkpt lat="44.0116586" lon="10.7202772"><ele>908.0</ele><time>2026-04-29T17:17:29.028Z</time></trkpt><trkpt lat="44.0117187" lon="10.7203818"><ele>907.5999999999999</ele><time>2026-04-29T17:17:31.014Z</time></trkpt><trkpt lat="44.0116773" lon="10.7205158"><ele>907.1999999999999</ele><time>2026-04-29T17:17:33.017Z</time></trkpt><trkpt lat="44.0115531" lon="10.7205364"><ele>906.8</ele><time>2026-04-29T17:17:35.026Z</time></trkpt><trkpt lat="44.011465" lon="10.7204977"><ele>906.4</ele><time>2026-04-29T17:17:36.023Z</time></trkpt><trkpt lat="44.0113672" lon="10.7204313"><ele>906.0</ele><time>2026-04-29T17:17:37.016Z</time></trkpt><trkpt lat="44.0112746" lon="10.7203629"><ele>905.6666666666666</ele><time>2026-04-29T17:17:38.024Z</time></trkpt><trkpt lat="44.0111881" lon="10.7203016"><ele>905.3333333333333</ele><time>2026-04-29T17:17:39.015Z</time></trkpt><trkpt lat="44.011108" lon="10.7202439"><ele>905.0</ele><time>2026-04-29T17:17:40.005Z</time></trkpt><trkpt lat="44.0110279" lon="10.7202096"><ele>904.6666666666666</ele><time>2026-04-29T17:17:41.008Z</time></trkpt><trkpt lat="44.0109402" lon="10.7202041"><ele>904.3333333333333</ele><time>2026-04-29T17:17:42.008Z</time></trkpt><trkpt lat="44.0108601" lon="10.7201931"><ele>904.0</ele><time>2026-04-29T17:17:43.009Z</time></trkpt><trkpt lat="44.0107887" lon="10.7201843"><ele>903.9999999999999</ele><time>2026-04-29T17:17:44.014Z</time></trkpt><trkpt lat="44.0107217" lon="10.7201816"><ele>904.0</ele><time>2026-04-29T17:17:45.009Z</time></trkpt><trkpt lat="44.0106382" lon="10.720228"><ele>904.0</ele><time>2026-04-29T17:17:47.011Z</time></trkpt><trkpt lat="44.0106289" lon="10.720327"><ele>904.0</ele><time>2026-04-29T17:17:49.04Z</time></trkpt><trkpt lat="44.0106822" lon="10.7204355"><ele>903.9999999999999</ele><time>2026-04-29T17:17:51.021Z</time></trkpt><trkpt lat="44.0107588" lon="10.7205393"><ele>904.0</ele><time>2026-04-29T17:17:53.014Z</time></trkpt><trkpt lat="44.0108873" lon="10.7205638"><ele>903.9999999999999</ele><time>2026-04-29T17:17:55.013Z</time></trkpt><trkpt lat="44.0109492" lon="10.720587"><ele>904.0</ele><time>2026-04-29T17:17:56.009Z</time></trkpt><trkpt lat="44.0109991" lon="10.7206533"><ele>904.0</ele><time>2026-04-29T17:17:57.005Z</time></trkpt><trkpt lat="44.0110871" lon="10.7207785"><ele>904.0</ele><time>2026-04-29T17:17:59.023Z</time></trkpt><trkpt lat="44.0111373" lon="10.7208336"><ele>903.9999999999999</ele><time>2026-04-29T17:18:00.019Z</time></trkpt><trkpt lat="44.0111987" lon="10.7208837"><ele>904.0</ele><time>2026-04-29T17:18:01.032Z</time></trkpt><trkpt lat="44.0112759" lon="10.720923"><ele>903.9999999999999</ele><time>2026-04-29T17:18:02.021Z</time></trkpt><trkpt lat="44.0113656" lon="10.7209456"><ele>904.0</ele><time>2026-04-29T17:18:03.019Z</time></trkpt><trkpt lat="44.0114587" lon="10.7209598"><ele>904.0</ele><time>2026-04-29T17:18:04.014Z</time></trkpt><trkpt lat="44.0115414" lon="10.720983"><ele>904.0</ele><time>2026-04-29T17:18:05.017Z</time></trkpt><trkpt lat="44.0116085" lon="10.7210256"><ele>903.9999999999999</ele><time>2026-04-29T17:18:06.012Z</time></trkpt><trkpt lat="44.0116672" lon="10.7210712"><ele>904.0</ele><time>2026-04-29T17:18:07.018Z</time></trkpt><trkpt lat="44.011739" lon="10.7211219"><ele>902.0</ele><time>2026-04-29T17:18:08.013Z</time></trkpt><trkpt lat="44.0118217" lon="10.7211601"><ele>900.0</ele><time>2026-04-29T17:18:09.028Z</time></trkpt><trkpt lat="44.0118909" lon="10.7211921"><ele>898.0</ele><time>2026-04-29T17:18:10.014Z</time></trkpt><trkpt lat="44.0119559" lon="10.7212169"><ele>896.0</ele><time>2026-04-29T17:18:11.017Z</time></trkpt><trkpt lat="44.0120236" lon="10.7212281"><ele>894.0</ele><time>2026-04-29T17:18:12.012Z</time></trkpt><trkpt lat="44.0120979" lon="10.7212214"><ele>892.0</ele><time>2026-04-29T17:18:13.013Z</time></trkpt><trkpt lat="44.0121691" lon="10.7212115"><ele>890.0</ele><time>2026-04-29T17:18:14.017Z</time></trkpt><trkpt lat="44.0122702" lon="10.7211576"><ele>892.6666666666667</ele><time>2026-04-29T17:18:16.031Z</time></trkpt><trkpt lat="44.0123264" lon="10.7210343"><ele>895.3333333333334</ele><time>2026-04-29T17:18:18.004Z</time></trkpt><trkpt lat="44.0123596" lon="10.7209391"><ele>898.0</ele><time>2026-04-29T17:18:19.022Z</time></trkpt><trkpt lat="44.0123903" lon="10.7208324"><ele>900.6666666666667</ele><time>2026-04-29T17:18:20.02Z</time></trkpt><trkpt lat="44.0124254" lon="10.720732"><ele>903.3333333333334</ele><time>2026-04-29T17:18:21.017Z</time></trkpt><trkpt lat="44.0124572" lon="10.7206272"><ele>906.0</ele><time>2026-04-29T17:18:22.013Z</time></trkpt><trkpt lat="44.0124832" lon="10.7205283"><ele>907.1666666666666</ele><time>2026-04-29T17:18:23.017Z</time></trkpt><trkpt lat="44.0124993" lon="10.720438"><ele>908.3333333333333</ele><time>2026-04-29T17:18:24.016Z</time></trkpt><trkpt lat="44.0125925" lon="10.7203228"><ele>909.5</ele><time>2026-04-29T17:18:26.017Z</time></trkpt><trkpt lat="44.0126686" lon="10.720275"><ele>910.6666666666666</ele><time>2026-04-29T17:18:27.027Z</time></trkpt><trkpt lat="44.0127432" lon="10.7202292"><ele>911.8333333333333</ele><time>2026-04-29T17:18:28.027Z</time></trkpt><trkpt lat="44.0128207" lon="10.720211"><ele>913.0</ele><time>2026-04-29T17:18:29.032Z</time></trkpt><trkpt lat="44.0129154" lon="10.7202418"><ele>908.5999999999999</ele><time>2026-04-29T17:18:30.019Z</time></trkpt><trkpt lat="44.0130209" lon="10.7202956"><ele>904.1999999999999</ele><time>2026-04-29T17:18:31.03Z</time></trkpt><trkpt lat="44.0131256" lon="10.720331"><ele>899.8</ele><time>2026-04-29T17:18:32.019Z</time></trkpt><trkpt lat="44.0132342" lon="10.7203557"><ele>895.4</ele><time>2026-04-29T17:18:33.024Z</time></trkpt><trkpt lat="44.0133283" lon="10.7203999"><ele>891.0</ele><time>2026-04-29T17:18:34.019Z</time></trkpt><trkpt lat="44.0134168" lon="10.7204583"><ele>889.8333333333334</ele><time>2026-04-29T17:18:35.029Z</time></trkpt><trkpt lat="44.0135058" lon="10.7205162"><ele>888.6666666666667</ele><time>2026-04-29T17:18:36.025Z</time></trkpt><trkpt lat="44.0135893" lon="10.7205767"><ele>887.5</ele><time>2026-04-29T17:18:37.033Z</time></trkpt><trkpt lat="44.0136653" lon="10.7206206"><ele>886.3333333333334</ele><time>2026-04-29T17:18:38.016Z</time></trkpt><trkpt lat="44.0137447" lon="10.720655"><ele>885.1666666666667</ele><time>2026-04-29T17:18:39.04Z</time></trkpt><trkpt lat="44.0138174" lon="10.7206877"><ele>884.0</ele><time>2026-04-29T17:18:40.021Z</time></trkpt><trkpt lat="44.0138973" lon="10.720697"><ele>884.0000000000001</ele><time>2026-04-29T17:18:41.037Z</time></trkpt><trkpt lat="44.0139631" lon="10.7206747"><ele>884.0</ele><time>2026-04-29T17:18:42.029Z</time></trkpt><trkpt lat="44.0140178" lon="10.7205516"><ele>884.0</ele><time>2026-04-29T17:18:44.016Z</time></trkpt><trkpt lat="44.0140135" lon="10.7204589"><ele>884.0</ele><time>2026-04-29T17:18:45.03Z</time></trkpt><trkpt lat="44.0139808" lon="10.7203493"><ele>884.0000000000001</ele><time>2026-04-29T17:18:46.018Z</time></trkpt><trkpt lat="44.0139445" lon="10.7202381"><ele>884.0</ele><time>2026-04-29T17:18:47.024Z</time></trkpt><trkpt lat="44.0139317" lon="10.7201258"><ele>886.6666666666667</ele><time>2026-04-29T17:18:48.023Z</time></trkpt><trkpt lat="44.0139329" lon="10.7200219"><ele>889.3333333333334</ele><time>2026-04-29T17:18:49.029Z</time></trkpt><trkpt lat="44.0139584" lon="10.7199159"><ele>892.0</ele><time>2026-04-29T17:18:50.029Z</time></trkpt><trkpt lat="44.0140117" lon="10.7197865"><ele>894.6666666666667</ele><time>2026-04-29T17:18:51.026Z</time></trkpt><trkpt lat="44.0140638" lon="10.7196718"><ele>897.3333333333334</ele><time>2026-04-29T17:18:52.011Z</time></trkpt><trkpt lat="44.0141055" lon="10.7195685"><ele>900.0</ele><time>2026-04-29T17:18:53.015Z</time></trkpt><trkpt lat="44.0141353" lon="10.7194764"><ele>897.0</ele><time>2026-04-29T17:18:54.017Z</time></trkpt><trkpt lat="44.0142331" lon="10.7194129"><ele>894.0</ele><time>2026-04-29T17:18:56.027Z</time></trkpt><trkpt lat="44.0142982" lon="10.7194527"><ele>891.0</ele><time>2026-04-29T17:18:57.013Z</time></trkpt><trkpt lat="44.0143604" lon="10.7195258"><ele>888.0</ele><time>2026-04-29T17:18:58.033Z</time></trkpt><trkpt lat="44.0144216" lon="10.7196357"><ele>885.0</ele><time>2026-04-29T17:18:59.025Z</time></trkpt><trkpt lat="44.0144964" lon="10.7197708"><ele>885.0</ele><time>2026-04-29T17:19:00.01Z</time></trkpt><trkpt lat="44.0145774" lon="10.7199138"><ele>885.0</ele><time>2026-04-29T17:19:01.023Z</time></trkpt><trkpt lat="44.0146657" lon="10.720043"><ele>885.0</ele><time>2026-04-29T17:19:02.016Z</time></trkpt><trkpt lat="44.0147598" lon="10.7201502"><ele>885.0</ele><time>2026-04-29T17:19:03.022Z</time></trkpt><trkpt lat="44.0148486" lon="10.7202357"><ele>885.4</ele><time>2026-04-29T17:19:04.016Z</time></trkpt><trkpt lat="44.0149387" lon="10.7203249"><ele>885.8</ele><time>2026-04-29T17:19:05.031Z</time></trkpt><trkpt lat="44.0150327" lon="10.7204008"><ele>886.2</ele><time>2026-04-29T17:19:06.018Z</time></trkpt><trkpt lat="44.01512" lon="10.7204713"><ele>886.6</ele><time>2026-04-29T17:19:07.032Z</time></trkpt><trkpt lat="44.0152007" lon="10.720548"><ele>887.0</ele><time>2026-04-29T17:19:08.012Z</time></trkpt><trkpt lat="44.0152669" lon="10.7206434"><ele>885.6</ele><time>2026-04-29T17:19:09.025Z</time></trkpt><trkpt lat="44.0153211" lon="10.720748"><ele>884.2</ele><time>2026-04-29T17:19:10.029Z</time></trkpt><trkpt lat="44.0153721" lon="10.7208687"><ele>882.8</ele><time>2026-04-29T17:19:11.021Z</time></trkpt><trkpt lat="44.0154142" lon="10.7209909"><ele>881.4</ele><time>2026-04-29T17:19:12.015Z</time></trkpt><trkpt lat="44.0154554" lon="10.7211244"><ele>880.0</ele><time>2026-04-29T17:19:12.986Z</time></trkpt><trkpt lat="44.0154938" lon="10.7212484"><ele>877.4</ele><time>2026-04-29T17:19:13.995Z</time></trkpt><trkpt lat="44.0155414" lon="10.7213716"><ele>874.8</ele><time>2026-04-29T17:19:15.01Z</time></trkpt><trkpt lat="44.0155807" lon="10.7214767"><ele>872.2</ele><time>2026-04-29T17:19:16.009Z</time></trkpt><trkpt lat="44.0156153" lon="10.7215621"><ele>869.6</ele><time>2026-04-29T17:19:17.003Z</time></trkpt><trkpt lat="44.0156585" lon="10.7216814"><ele>867.0</ele><time>2026-04-29T17:19:19.015Z</time></trkpt><trkpt lat="44.0157678" lon="10.7216781"><ele>865.4000000000001</ele><time>2026-04-29T17:20:22.027Z</time></trkpt><trkpt lat="44.0158415" lon="10.7215907"><ele>863.8000000000001</ele><time>2026-04-29T17:20:24.008Z</time></trkpt><trkpt lat="44.0159324" lon="10.7214855"><ele>862.2</ele><time>2026-04-29T17:20:26.005Z</time></trkpt><trkpt lat="44.016043" lon="10.7214204"><ele>860.6</ele><time>2026-04-29T17:20:28.018Z</time></trkpt><trkpt lat="44.0161512" lon="10.721412"><ele>859.0</ele><time>2026-04-29T17:20:30.018Z</time></trkpt><trkpt lat="44.0162457" lon="10.7214946"><ele>858.9999999999999</ele><time>2026-04-29T17:20:32.016Z</time></trkpt><trkpt lat="44.016308" lon="10.7216259"><ele>859.0</ele><time>2026-04-29T17:20:34.012Z</time></trkpt><trkpt lat="44.0163238" lon="10.7217174"><ele>859.0</ele><time>2026-04-29T17:20:35.028Z</time></trkpt><trkpt lat="44.0163096" lon="10.7218267"><ele>859.0</ele><time>2026-04-29T17:20:36.017Z</time></trkpt><trkpt lat="44.0162863" lon="10.7219344"><ele>858.9999999999999</ele><time>2026-04-29T17:20:37.024Z</time></trkpt><trkpt lat="44.0162659" lon="10.7220372"><ele>859.0</ele><time>2026-04-29T17:20:38.013Z</time></trkpt><trkpt lat="44.0162573" lon="10.7221323"><ele>855.0</ele><time>2026-04-29T17:20:39.021Z</time></trkpt><trkpt lat="44.0163071" lon="10.7222574"><ele>851.0000000000001</ele><time>2026-04-29T17:20:41.019Z</time></trkpt><trkpt lat="44.016401" lon="10.722301"><ele>847.0</ele><time>2026-04-29T17:20:43.013Z</time></trkpt><trkpt lat="44.0165075" lon="10.7222462"><ele>843.0</ele><time>2026-04-29T17:20:45.034Z</time></trkpt><trkpt lat="44.0166201" lon="10.7221982"><ele>839.0</ele><time>2026-04-29T17:20:47.016Z</time></trkpt><trkpt lat="44.0167331" lon="10.7221178"><ele>841.6666666666667</ele><time>2026-04-29T17:20:49.016Z</time></trkpt><trkpt lat="44.0167912" lon="10.7220493"><ele>844.3333333333334</ele><time>2026-04-29T17:20:50.022Z</time></trkpt><trkpt lat="44.0168375" lon="10.7219717"><ele>847.0</ele><time>2026-04-29T17:20:51.025Z</time></trkpt><trkpt lat="44.0168896" lon="10.7218909"><ele>849.6666666666667</ele><time>2026-04-29T17:20:52.019Z</time></trkpt><trkpt lat="44.0169444" lon="10.7218138"><ele>852.3333333333334</ele><time>2026-04-29T17:20:53.02Z</time></trkpt><trkpt lat="44.0170061" lon="10.7217467"><ele>855.0</ele><time>2026-04-29T17:20:54.024Z</time></trkpt><trkpt lat="44.0170716" lon="10.7216736"><ele>855.0</ele><time>2026-04-29T17:20:55.005Z</time></trkpt><trkpt lat="44.0171341" lon="10.7215924"><ele>855.0</ele><time>2026-04-29T17:20:56.02Z</time></trkpt><trkpt lat="44.0171919" lon="10.7215185"><ele>855.0</ele><time>2026-04-29T17:20:57.026Z</time></trkpt><trkpt lat="44.0172517" lon="10.7214533"><ele>855.0</ele><time>2026-04-29T17:20:58.02Z</time></trkpt><trkpt lat="44.0173156" lon="10.7214126"><ele>855.0</ele><time>2026-04-29T17:20:59.018Z</time></trkpt><trkpt lat="44.0173772" lon="10.7213891"><ele>855.0</ele><time>2026-04-29T17:21:00.019Z</time></trkpt><trkpt lat="44.0174414" lon="10.7213607"><ele>855.0</ele><time>2026-04-29T17:21:01.029Z</time></trkpt><trkpt lat="44.0175524" lon="10.7213013"><ele>852.6</ele><time>2026-04-29T17:21:03.036Z</time></trkpt><trkpt lat="44.0176482" lon="10.7211587"><ele>850.2</ele><time>2026-04-29T17:21:05.027Z</time></trkpt><trkpt lat="44.0176956" lon="10.7210523"><ele>847.8</ele><time>2026-04-29T17:21:06.021Z</time></trkpt><trkpt lat="44.0177369" lon="10.7209375"><ele>845.4</ele><time>2026-04-29T17:21:07.014Z</time></trkpt><trkpt lat="44.0177759" lon="10.7208371"><ele>843.0</ele><time>2026-04-29T17:21:08.02Z</time></trkpt><trkpt lat="44.0178248" lon="10.7207453"><ele>843.0</ele><time>2026-04-29T17:21:09.013Z</time></trkpt><trkpt lat="44.017885" lon="10.7206611"><ele>843.0</ele><time>2026-04-29T17:21:10.009Z</time></trkpt><trkpt lat="44.0179386" lon="10.7205843"><ele>843.0</ele><time>2026-04-29T17:21:11.012Z</time></trkpt><trkpt lat="44.0179818" lon="10.7205074"><ele>843.0</ele><time>2026-04-29T17:21:12.026Z</time></trkpt><trkpt lat="44.0180161" lon="10.7204184"><ele>843.0</ele><time>2026-04-29T17:21:13.039Z</time></trkpt><trkpt lat="44.0180447" lon="10.7203153"><ele>843.0</ele><time>2026-04-29T17:21:14.026Z</time></trkpt><trkpt lat="44.0180663" lon="10.7202108"><ele>844.8333333333334</ele><time>2026-04-29T17:21:15.025Z</time></trkpt><trkpt lat="44.0180898" lon="10.7200953"><ele>846.6666666666667</ele><time>2026-04-29T17:21:16.023Z</time></trkpt><trkpt lat="44.0181153" lon="10.7199922"><ele>848.5</ele><time>2026-04-29T17:21:17.02Z</time></trkpt><trkpt lat="44.0181359" lon="10.7198992"><ele>850.3333333333334</ele><time>2026-04-29T17:21:18.024Z</time></trkpt><trkpt lat="44.018177" lon="10.7197583"><ele>852.1666666666667</ele><time>2026-04-29T17:21:20.026Z</time></trkpt><trkpt lat="44.0182707" lon="10.7197088"><ele>854.0</ele><time>2026-04-29T17:21:22.015Z</time></trkpt><trkpt lat="44.0183954" lon="10.7197828"><ele>847.8333333333334</ele><time>2026-04-29T17:21:24.026Z</time></trkpt><trkpt lat="44.0184588" lon="10.7198481"><ele>841.6666666666667</ele><time>2026-04-29T17:21:25.015Z</time></trkpt><trkpt lat="44.0185151" lon="10.7199044"><ele>835.5</ele><time>2026-04-29T17:21:26.006Z</time></trkpt><trkpt lat="44.0185693" lon="10.719967"><ele>829.3333333333333</ele><time>2026-04-29T17:21:27.031Z</time></trkpt><trkpt lat="44.0186305" lon="10.7200316"><ele>823.1666666666666</ele><time>2026-04-29T17:21:28.011Z</time></trkpt><trkpt lat="44.018689" lon="10.720076"><ele>817.0</ele><time>2026-04-29T17:21:29.02Z</time></trkpt><trkpt lat="44.0187851" lon="10.7201173"><ele>816.9999999999999</ele><time>2026-04-29T17:21:31.021Z</time></trkpt><trkpt lat="44.0188639" lon="10.7200397"><ele>817.0</ele><time>2026-04-29T17:21:33.019Z</time></trkpt><trkpt lat="44.0189048" lon="10.7198885"><ele>817.0</ele><time>2026-04-29T17:21:35.015Z</time></trkpt><trkpt lat="44.0189234" lon="10.7197791"><ele>817.0</ele><time>2026-04-29T17:21:36.024Z</time></trkpt><trkpt lat="44.0189431" lon="10.7196797"><ele>816.9999999999999</ele><time>2026-04-29T17:21:37.027Z</time></trkpt><trkpt lat="44.0189676" lon="10.7195829"><ele>817.0</ele><time>2026-04-29T17:21:38.02Z</time></trkpt><trkpt lat="44.0189875" lon="10.7194885"><ele>820.8333333333333</ele><time>2026-04-29T17:21:39.023Z</time></trkpt><trkpt lat="44.0190054" lon="10.719398"><ele>824.6666666666666</ele><time>2026-04-29T17:21:40.023Z</time></trkpt><trkpt lat="44.0190113" lon="10.7192897"><ele>828.5</ele><time>2026-04-29T17:21:41.018Z</time></trkpt><trkpt lat="44.0190108" lon="10.7191648"><ele>832.3333333333333</ele><time>2026-04-29T17:21:42.003Z</time></trkpt><trkpt lat="44.0190179" lon="10.7190397"><ele>836.1666666666666</ele><time>2026-04-29T17:21:43.032Z</time></trkpt><trkpt lat="44.0190418" lon="10.7189257"><ele>840.0</ele><time>2026-04-29T17:21:44.023Z</time></trkpt><trkpt lat="44.0190693" lon="10.7188194"><ele>840.0</ele><time>2026-04-29T17:21:45.013Z</time></trkpt><trkpt lat="44.0190884" lon="10.718713"><ele>840.0</ele><time>2026-04-29T17:21:46.026Z</time></trkpt><trkpt lat="44.0191112" lon="10.7186121"><ele>840.0</ele><time>2026-04-29T17:21:47.018Z</time></trkpt><trkpt lat="44.0191457" lon="10.7185049"><ele>840.0</ele><time>2026-04-29T17:21:48.018Z</time></trkpt><trkpt lat="44.0191867" lon="10.7183885"><ele>840.0</ele><time>2026-04-29T17:21:49.024Z</time></trkpt><trkpt lat="44.0192327" lon="10.7182811"><ele>840.0</ele><time>2026-04-29T17:21:50.011Z</time></trkpt><trkpt lat="44.0192795" lon="10.7181712"><ele>833.8333333333334</ele><time>2026-04-29T17:21:51.018Z</time></trkpt><trkpt lat="44.0193224" lon="10.7180687"><ele>827.6666666666667</ele><time>2026-04-29T17:21:52.005Z</time></trkpt><trkpt lat="44.0193558" lon="10.7179755"><ele>821.5</ele><time>2026-04-29T17:21:53.039Z</time></trkpt><trkpt lat="44.01939" lon="10.7178781"><ele>815.3333333333334</ele><time>2026-04-29T17:21:54.027Z</time></trkpt><trkpt lat="44.01946" lon="10.7177692"><ele>809.1666666666667</ele><time>2026-04-29T17:21:56.017Z</time></trkpt><trkpt lat="44.0195528" lon="10.7177797"><ele>803.0</ele><time>2026-04-29T17:21:58.036Z</time></trkpt><trkpt lat="44.0196374" lon="10.7178787"><ele>803.0</ele><time>2026-04-29T17:22:00.011Z</time></trkpt><trkpt lat="44.0196868" lon="10.7180159"><ele>803.0</ele><time>2026-04-29T17:22:02.019Z</time></trkpt><trkpt lat="44.0196627" lon="10.7181614"><ele>803.0</ele><time>2026-04-29T17:22:04.012Z</time></trkpt><trkpt lat="44.0196476" lon="10.7183302"><ele>803.0</ele><time>2026-04-29T17:22:06.017Z</time></trkpt><trkpt lat="44.0197014" lon="10.7184727"><ele>803.0000000000001</ele><time>2026-04-29T17:22:08.012Z</time></trkpt><trkpt lat="44.0197435" lon="10.7185427"><ele>803.0</ele><time>2026-04-29T17:22:09.021Z</time></trkpt><trkpt lat="44.0198556" lon="10.7186199"><ele>803.0</ele><time>2026-04-29T17:22:11.023Z</time></trkpt><trkpt lat="44.0199271" lon="10.7186596"><ele>803.0</ele><time>2026-04-29T17:22:12.016Z</time></trkpt><trkpt lat="44.0199986" lon="10.7187183"><ele>803.0000000000001</ele><time>2026-04-29T17:22:13.009Z</time></trkpt><trkpt lat="44.0200594" lon="10.7187854"><ele>803.0</ele><time>2026-04-29T17:22:14.003Z</time></trkpt><trkpt lat="44.0201685" lon="10.7188548"><ele>793.4</ele><time>2026-04-29T17:22:16.025Z</time></trkpt><trkpt lat="44.0202929" lon="10.7187689"><ele>783.8</ele><time>2026-04-29T17:22:18.013Z</time></trkpt><trkpt lat="44.0203734" lon="10.7187059"><ele>774.2</ele><time>2026-04-29T17:22:19.018Z</time></trkpt><trkpt lat="44.0204532" lon="10.7186691"><ele>764.6</ele><time>2026-04-29T17:22:20.021Z</time></trkpt><trkpt lat="44.0205277" lon="10.7186541"><ele>755.0</ele><time>2026-04-29T17:22:21.023Z</time></trkpt><trkpt lat="44.0205943" lon="10.7186449"><ele>755.0</ele><time>2026-04-29T17:22:22.019Z</time></trkpt><trkpt lat="44.0206646" lon="10.7186392"><ele>755.0</ele><time>2026-04-29T17:22:23.024Z</time></trkpt><trkpt lat="44.0207315" lon="10.7186194"><ele>755.0</ele><time>2026-04-29T17:22:24.03Z</time></trkpt><trkpt lat="44.0207987" lon="10.7185952"><ele>755.0</ele><time>2026-04-29T17:22:25.013Z</time></trkpt><trkpt lat="44.0208676" lon="10.7185539"><ele>755.0</ele><time>2026-04-29T17:22:26.022Z</time></trkpt><trkpt lat="44.0209283" lon="10.7184996"><ele>755.0</ele><time>2026-04-29T17:22:27.026Z</time></trkpt><trkpt lat="44.0209888" lon="10.718433"><ele>755.0</ele><time>2026-04-29T17:22:28.021Z</time></trkpt><trkpt lat="44.0210473" lon="10.7183588"><ele>757.0</ele><time>2026-04-29T17:22:29.009Z</time></trkpt><trkpt lat="44.0210866" lon="10.718262"><ele>759.0</ele><time>2026-04-29T17:22:30.02Z</time></trkpt><trkpt lat="44.0211074" lon="10.7181623"><ele>761.0</ele><time>2026-04-29T17:22:31.019Z</time></trkpt><trkpt lat="44.0211283" lon="10.7180675"><ele>763.0</ele><time>2026-04-29T17:22:32.013Z</time></trkpt><trkpt lat="44.0211946" lon="10.7179155"><ele>765.0</ele><time>2026-04-29T17:22:34.024Z</time></trkpt><trkpt lat="44.0212657" lon="10.717843"><ele>767.0</ele><time>2026-04-29T17:22:35.031Z</time></trkpt><trkpt lat="44.0213393" lon="10.7177769"><ele>765.0</ele><time>2026-04-29T17:22:36.008Z</time></trkpt><trkpt lat="44.021419" lon="10.717715"><ele>763.0</ele><time>2026-04-29T17:22:37.029Z</time></trkpt><trkpt lat="44.0214959" lon="10.7176536"><ele>761.0</ele><time>2026-04-29T17:22:38.014Z</time></trkpt><trkpt lat="44.0215667" lon="10.7175912"><ele>759.0</ele><time>2026-04-29T17:22:39.017Z</time></trkpt><trkpt lat="44.0216306" lon="10.7175299"><ele>757.0</ele><time>2026-04-29T17:22:40.012Z</time></trkpt><trkpt lat="44.0216983" lon="10.7174632"><ele>755.0</ele><time>2026-04-29T17:22:41.014Z</time></trkpt><trkpt lat="44.0217529" lon="10.7173834"><ele>755.0</ele><time>2026-04-29T17:22:42.019Z</time></trkpt><trkpt lat="44.021801" lon="10.7173031"><ele>755.0</ele><time>2026-04-29T17:22:43.013Z</time></trkpt><trkpt lat="44.021851" lon="10.7172318"><ele>755.0</ele><time>2026-04-29T17:22:44.014Z</time></trkpt><trkpt lat="44.0219124" lon="10.717175"><ele>755.0</ele><time>2026-04-29T17:22:45.023Z</time></trkpt><trkpt lat="44.0219789" lon="10.7171493"><ele>755.0</ele><time>2026-04-29T17:22:46.003Z</time></trkpt><trkpt lat="44.0220548" lon="10.7171422"><ele>755.0</ele><time>2026-04-29T17:22:47.021Z</time></trkpt><trkpt lat="44.0221341" lon="10.7171396"><ele>755.0</ele><time>2026-04-29T17:22:48.01Z</time></trkpt><trkpt lat="44.0222114" lon="10.7171457"><ele>755.0</ele><time>2026-04-29T17:22:49.017Z</time></trkpt><trkpt lat="44.02228" lon="10.7171497"><ele>755.0</ele><time>2026-04-29T17:22:50.04Z</time></trkpt><trkpt lat="44.0223503" lon="10.7171503"><ele>755.0</ele><time>2026-04-29T17:22:51.024Z</time></trkpt><trkpt lat="44.022412" lon="10.7171195"><ele>755.0</ele><time>2026-04-29T17:22:52.018Z</time></trkpt><trkpt lat="44.0224672" lon="10.7170648"><ele>755.0</ele><time>2026-04-29T17:22:53.032Z</time></trkpt><trkpt lat="44.022526" lon="10.7169949"><ele>755.0</ele><time>2026-04-29T17:22:54.015Z</time></trkpt><trkpt lat="44.0225776" lon="10.7169188"><ele>755.0</ele><time>2026-04-29T17:22:55.021Z</time></trkpt><trkpt lat="44.0226308" lon="10.7168634"><ele>752.8</ele><time>2026-04-29T17:22:56.028Z</time></trkpt><trkpt lat="44.0226858" lon="10.7168101"><ele>750.6</ele><time>2026-04-29T17:22:57.005Z</time></trkpt><trkpt lat="44.02277" lon="10.716688"><ele>748.4000000000001</ele><time>2026-04-29T17:22:59.03Z</time></trkpt><trkpt lat="44.0227957" lon="10.7165158"><ele>746.2</ele><time>2026-04-29T17:23:01.024Z</time></trkpt><trkpt lat="44.0227809" lon="10.7164037"><ele>744.0</ele><time>2026-04-29T17:23:02.006Z</time></trkpt><trkpt lat="44.0227704" lon="10.7162831"><ele>744.0000000000001</ele><time>2026-04-29T17:23:03.015Z</time></trkpt><trkpt lat="44.0227473" lon="10.7161819"><ele>744.0</ele><time>2026-04-29T17:23:04.006Z</time></trkpt><trkpt lat="44.0227187" lon="10.7161028"><ele>744.0</ele><time>2026-04-29T17:23:05.02Z</time></trkpt><trkpt lat="44.0226708" lon="10.7160221"><ele>744.0</ele><time>2026-04-29T17:23:06.015Z</time></trkpt><trkpt lat="44.0226306" lon="10.7159473"><ele>744.0</ele><time>2026-04-29T17:23:07.014Z</time></trkpt><trkpt lat="44.0225965" lon="10.7158624"><ele>744.0000000000001</ele><time>2026-04-29T17:23:08.021Z</time></trkpt><trkpt lat="44.022572" lon="10.7157802"><ele>744.0</ele><time>2026-04-29T17:23:09.016Z</time></trkpt><trkpt lat="44.0225865" lon="10.7156061"><ele>745.1666666666666</ele><time>2026-04-29T17:23:11.007Z</time></trkpt><trkpt lat="44.0226253" lon="10.7155264"><ele>746.3333333333334</ele><time>2026-04-29T17:23:12.007Z</time></trkpt><trkpt lat="44.0226711" lon="10.7154497"><ele>747.5</ele><time>2026-04-29T17:23:13.014Z</time></trkpt><trkpt lat="44.0227197" lon="10.7153806"><ele>748.6666666666667</ele><time>2026-04-29T17:23:13.996Z</time></trkpt><trkpt lat="44.0227627" lon="10.7153111"><ele>749.8333333333334</ele><time>2026-04-29T17:23:15.011Z</time></trkpt><trkpt lat="44.0227989" lon="10.7152361"><ele>751.0</ele><time>2026-04-29T17:23:16.015Z</time></trkpt><trkpt lat="44.022822" lon="10.7150799"><ele>752.0</ele><time>2026-04-29T17:23:18.003Z</time></trkpt><trkpt lat="44.0228366" lon="10.7149464"><ele>753.0</ele><time>2026-04-29T17:23:20.003Z</time></trkpt><trkpt lat="44.0229506" lon="10.7149339"><ele>754.0</ele><time>2026-04-29T17:23:22.024Z</time></trkpt><trkpt lat="44.0230195" lon="10.7149595"><ele>755.0</ele><time>2026-04-29T17:23:23.003Z</time></trkpt><trkpt lat="44.023093" lon="10.7149698"><ele>756.0</ele><time>2026-04-29T17:23:23.998Z</time></trkpt><trkpt lat="44.0231668" lon="10.7149514"><ele>757.0</ele><time>2026-04-29T17:23:25.014Z</time></trkpt><trkpt lat="44.0232278" lon="10.7149026"><ele>757.0</ele><time>2026-04-29T17:23:26.014Z</time></trkpt><trkpt lat="44.0232847" lon="10.7148442"><ele>757.0</ele><time>2026-04-29T17:23:27.006Z</time></trkpt><trkpt lat="44.023344" lon="10.7147602"><ele>757.0</ele><time>2026-04-29T17:23:28.015Z</time></trkpt><trkpt lat="44.0233993" lon="10.7146641"><ele>757.0</ele><time>2026-04-29T17:23:29.007Z</time></trkpt><trkpt lat="44.0234533" lon="10.7145768"><ele>757.0</ele><time>2026-04-29T17:23:30.014Z</time></trkpt><trkpt lat="44.0235007" lon="10.714482"><ele>757.0</ele><time>2026-04-29T17:23:30.998Z</time></trkpt><trkpt lat="44.0235488" lon="10.7143935"><ele>752.1666666666667</ele><time>2026-04-29T17:23:32.002Z</time></trkpt><trkpt lat="44.0235892" lon="10.7142993"><ele>747.3333333333334</ele><time>2026-04-29T17:23:33.005Z</time></trkpt><trkpt lat="44.0236216" lon="10.7141862"><ele>742.5</ele><time>2026-04-29T17:23:34.02Z</time></trkpt><trkpt lat="44.0236568" lon="10.7140718"><ele>737.6666666666666</ele><time>2026-04-29T17:23:35.019Z</time></trkpt><trkpt lat="44.0236813" lon="10.7139634"><ele>732.8333333333333</ele><time>2026-04-29T17:23:36.017Z</time></trkpt><trkpt lat="44.023706" lon="10.7138576"><ele>728.0</ele><time>2026-04-29T17:23:37.014Z</time></trkpt><trkpt lat="44.0237462" lon="10.713758"><ele>728.0</ele><time>2026-04-29T17:23:37.989Z</time></trkpt><trkpt lat="44.0237957" lon="10.7136732"><ele>728.0</ele><time>2026-04-29T17:23:39.006Z</time></trkpt><trkpt lat="44.023851" lon="10.713598"><ele>728.0</ele><time>2026-04-29T17:23:39.999Z</time></trkpt><trkpt lat="44.0239045" lon="10.7135315"><ele>728.0</ele><time>2026-04-29T17:23:41.011Z</time></trkpt><trkpt lat="44.0239627" lon="10.7134798"><ele>728.0</ele><time>2026-04-29T17:23:42.006Z</time></trkpt><trkpt lat="44.0240417" lon="10.713357"><ele>728.0</ele><time>2026-04-29T17:23:43.999Z</time></trkpt><trkpt lat="44.0240782" lon="10.713199"><ele>726.8333333333333</ele><time>2026-04-29T17:23:46.004Z</time></trkpt><trkpt lat="44.0240809" lon="10.7130974"><ele>725.6666666666666</ele><time>2026-04-29T17:23:47.019Z</time></trkpt><trkpt lat="44.0240784" lon="10.7130011"><ele>724.5</ele><time>2026-04-29T17:23:48.003Z</time></trkpt><trkpt lat="44.0240898" lon="10.7128447"><ele>723.3333333333334</ele><time>2026-04-29T17:23:50.015Z</time></trkpt><trkpt lat="44.0241206" lon="10.7127291"><ele>722.1666666666667</ele><time>2026-04-29T17:23:52.004Z</time></trkpt><trkpt lat="44.0242043" lon="10.71273"><ele>721.0</ele><time>2026-04-29T17:23:54.019Z</time></trkpt><trkpt lat="44.0242777" lon="10.7127713"><ele>716.1999999999999</ele><time>2026-04-29T17:23:56.002Z</time></trkpt><trkpt lat="44.0243695" lon="10.7128376"><ele>711.4</ele><time>2026-04-29T17:23:58.008Z</time></trkpt><trkpt lat="44.0244646" lon="10.7129452"><ele>706.6</ele><time>2026-04-29T17:24:00.024Z</time></trkpt><trkpt lat="44.024515" lon="10.7130057"><ele>701.8</ele><time>2026-04-29T17:24:01.014Z</time></trkpt><trkpt lat="44.0246006" lon="10.7130846"><ele>697.0</ele><time>2026-04-29T17:24:03.019Z</time></trkpt><trkpt lat="44.0247041" lon="10.7131492"><ele>697.0</ele><time>2026-04-29T17:24:05.005Z</time></trkpt><trkpt lat="44.0247866" lon="10.713212"><ele>697.0</ele><time>2026-04-29T17:24:07.011Z</time></trkpt><trkpt lat="44.0248575" lon="10.7132712"><ele>697.0</ele><time>2026-04-29T17:24:10.01Z</time></trkpt></trkseg></trk></gpx>